<?xml version="1.0" encoding="utf-8"?>
<gpx xmlns:xsi="http://www.w3.org/2001/XMLSchema-instance" xmlns:xsd="http://www.w3.org/2001/XMLSchema" version="1.1" creator="Shapelink.com" xmlns="http://www.topografix.com/GPX/1/1" xmlns:gpxtpx="http://www.garmin.com/xmlschemas/TrackPointExtension/v1">
  <metadata>
    <name>Löpning 18.54 km, 2012-03-18</name>
    <desc></desc>
    <author><name>Dennis Rehn</name></author> 
    <time>2012-03-18T10:35:01Z</time>
  </metadata>
  <trk>
    <name>Löpning 18.54 km, 2012-03-18</name>
    <trkseg>
      <trkpt lat="59.8310489317" lon="22.9898078457">
        <ele>55.8</ele>
        <time>2012-03-18T10:35:01Z</time>
      </trkpt>
      <trkpt lat="59.8307141586" lon="22.9898717158">
        <ele>56</ele>
        <time>2012-03-18T10:35:09Z</time>
      </trkpt>
      <trkpt lat="59.830649115" lon="22.989879511">
        <ele>55.2</ele>
        <time>2012-03-18T10:35:10Z</time>
      </trkpt>
      <trkpt lat="59.8304959777" lon="22.9898500067">
        <ele>51.4</ele>
        <time>2012-03-18T10:35:15Z</time>
      </trkpt>
      <trkpt lat="59.8303145096" lon="22.9897747372">
        <ele>45</ele>
        <time>2012-03-18T10:35:21Z</time>
      </trkpt>
      <trkpt lat="59.8301642221" lon="22.9896761661">
        <ele>39.2</ele>
        <time>2012-03-18T10:35:27Z</time>
      </trkpt>
      <trkpt lat="59.829994321" lon="22.9895899163">
        <ele>34.4</ele>
        <time>2012-03-18T10:35:33Z</time>
      </trkpt>
      <trkpt lat="59.8298846858" lon="22.9895429777">
        <ele>31.8</ele>
        <time>2012-03-18T10:35:37Z</time>
      </trkpt>
      <trkpt lat="59.8298329694" lon="22.9893278143">
        <ele>29.6</ele>
        <time>2012-03-18T10:35:41Z</time>
      </trkpt>
      <trkpt lat="59.8298199775" lon="22.9892868268">
        <ele>29</ele>
        <time>2012-03-18T10:35:42Z</time>
      </trkpt>
      <trkpt lat="59.8297648246" lon="22.9892495273">
        <ele>23.6</ele>
        <time>2012-03-18T10:35:56Z</time>
      </trkpt>
      <trkpt lat="59.8297671715" lon="22.9892806242">
        <ele>21</ele>
        <time>2012-03-18T10:36:06Z</time>
      </trkpt>
      <trkpt lat="59.8296623978" lon="22.9893259703">
        <ele>19.8</ele>
        <time>2012-03-18T10:36:11Z</time>
      </trkpt>
      <trkpt lat="59.829549745" lon="22.989264028">
        <ele>18.8</ele>
        <time>2012-03-18T10:36:15Z</time>
      </trkpt>
      <trkpt lat="59.8295035608" lon="22.9892036784">
        <ele>18.2</ele>
        <time>2012-03-18T10:36:17Z</time>
      </trkpt>
      <trkpt lat="59.8294727992" lon="22.9891489445">
        <ele>17.8</ele>
        <time>2012-03-18T10:36:19Z</time>
      </trkpt>
      <trkpt lat="59.8292201687" lon="22.9891043528">
        <ele>16.2</ele>
        <time>2012-03-18T10:36:28Z</time>
      </trkpt>
      <trkpt lat="59.8291544546" lon="22.9891466814">
        <ele>15.8</ele>
        <time>2012-03-18T10:36:31Z</time>
      </trkpt>
      <trkpt lat="59.8290592363" lon="22.9891069512">
        <ele>15.2</ele>
        <time>2012-03-18T10:36:35Z</time>
      </trkpt>
      <trkpt lat="59.8288981361" lon="22.9889760259">
        <ele>14.4</ele>
        <time>2012-03-18T10:36:42Z</time>
      </trkpt>
      <trkpt lat="59.8287424842" lon="22.9888402392">
        <ele>13.2</ele>
        <time>2012-03-18T10:36:48Z</time>
      </trkpt>
      <trkpt lat="59.8286224554" lon="22.9887202104">
        <ele>12.6</ele>
        <time>2012-03-18T10:36:53Z</time>
      </trkpt>
      <trkpt lat="59.8284995768" lon="22.9885951524">
        <ele>12.4</ele>
        <time>2012-03-18T10:36:58Z</time>
      </trkpt>
      <trkpt lat="59.8284832321" lon="22.9885737786">
        <ele>12.2</ele>
        <time>2012-03-18T10:36:59Z</time>
      </trkpt>
      <trkpt lat="59.8284042746" lon="22.9885113334">
        <ele>12.2</ele>
        <time>2012-03-18T10:37:03Z</time>
      </trkpt>
      <trkpt lat="59.8283269935" lon="22.9884155283">
        <ele>12</ele>
        <time>2012-03-18T10:37:08Z</time>
      </trkpt>
      <trkpt lat="59.828315175" lon="22.98840547">
        <ele>12</ele>
        <time>2012-03-18T10:37:10Z</time>
      </trkpt>
      <trkpt lat="59.8282969024" lon="22.9883761334">
        <ele>12</ele>
        <time>2012-03-18T10:37:14Z</time>
      </trkpt>
      <trkpt lat="59.8282461081" lon="22.9883035461">
        <ele>12</ele>
        <time>2012-03-18T10:37:21Z</time>
      </trkpt>
      <trkpt lat="59.8282366366" lon="22.9882914762">
        <ele>11.8</ele>
        <time>2012-03-18T10:37:22Z</time>
      </trkpt>
      <trkpt lat="59.8281653066" lon="22.9881834335">
        <ele>11</ele>
        <time>2012-03-18T10:37:28Z</time>
      </trkpt>
      <trkpt lat="59.8280669869" lon="22.9880772348">
        <ele>10.4</ele>
        <time>2012-03-18T10:37:33Z</time>
      </trkpt>
      <trkpt lat="59.8279506462" lon="22.9879237622">
        <ele>10.2</ele>
        <time>2012-03-18T10:37:39Z</time>
      </trkpt>
      <trkpt lat="59.8278430226" lon="22.9877876402">
        <ele>10</ele>
        <time>2012-03-18T10:37:44Z</time>
      </trkpt>
      <trkpt lat="59.8277177132" lon="22.9876541165">
        <ele>10</ele>
        <time>2012-03-18T10:37:50Z</time>
      </trkpt>
      <trkpt lat="59.827609419" lon="22.9875328304">
        <ele>9.8</ele>
        <time>2012-03-18T10:37:55Z</time>
      </trkpt>
      <trkpt lat="59.8274795834" lon="22.9873879074">
        <ele>9.8</ele>
        <time>2012-03-18T10:38:01Z</time>
      </trkpt>
      <trkpt lat="59.8274443794" lon="22.9873293179">
        <ele>9.8</ele>
        <time>2012-03-18T10:38:03Z</time>
      </trkpt>
      <trkpt lat="59.8273094308" lon="22.9871922738">
        <ele>9.8</ele>
        <time>2012-03-18T10:38:09Z</time>
      </trkpt>
      <trkpt lat="59.827194515" lon="22.9870689761">
        <ele>9.8</ele>
        <time>2012-03-18T10:38:14Z</time>
      </trkpt>
      <trkpt lat="59.8271148869" lon="22.9869596761">
        <ele>9.8</ele>
        <time>2012-03-18T10:38:18Z</time>
      </trkpt>
      <trkpt lat="59.8270536152" lon="22.9869130727">
        <ele>9.8</ele>
        <time>2012-03-18T10:38:21Z</time>
      </trkpt>
      <trkpt lat="59.826891174" lon="22.9867632882">
        <ele>10.6</ele>
        <time>2012-03-18T10:38:28Z</time>
      </trkpt>
      <trkpt lat="59.8267572312" lon="22.9866279205">
        <ele>11.2</ele>
        <time>2012-03-18T10:38:34Z</time>
      </trkpt>
      <trkpt lat="59.8266328438" lon="22.9864467876">
        <ele>11.4</ele>
        <time>2012-03-18T10:38:40Z</time>
      </trkpt>
      <trkpt lat="59.8265488572" lon="22.9863006911">
        <ele>11.6</ele>
        <time>2012-03-18T10:38:45Z</time>
      </trkpt>
      <trkpt lat="59.8264249727" lon="22.9860806662">
        <ele>11.8</ele>
        <time>2012-03-18T10:38:51Z</time>
      </trkpt>
      <trkpt lat="59.8263279103" lon="22.9858713702">
        <ele>11.8</ele>
        <time>2012-03-18T10:38:56Z</time>
      </trkpt>
      <trkpt lat="59.8262160958" lon="22.9856298038">
        <ele>11.8</ele>
        <time>2012-03-18T10:39:02Z</time>
      </trkpt>
      <trkpt lat="59.8261336179" lon="22.9854190829">
        <ele>11.8</ele>
        <time>2012-03-18T10:39:07Z</time>
      </trkpt>
      <trkpt lat="59.8261145071" lon="22.9853925122">
        <ele>11.8</ele>
        <time>2012-03-18T10:39:08Z</time>
      </trkpt>
      <trkpt lat="59.8259526527" lon="22.9851965434">
        <ele>11.8</ele>
        <time>2012-03-18T10:39:15Z</time>
      </trkpt>
      <trkpt lat="59.8258602003" lon="22.9850421488">
        <ele>11.8</ele>
        <time>2012-03-18T10:39:20Z</time>
      </trkpt>
      <trkpt lat="59.8257657363" lon="22.9847902727">
        <ele>11.8</ele>
        <time>2012-03-18T10:39:26Z</time>
      </trkpt>
      <trkpt lat="59.8256823364" lon="22.9844273365">
        <ele>11.8</ele>
        <time>2012-03-18T10:39:34Z</time>
      </trkpt>
      <trkpt lat="59.8256364874" lon="22.9841928109">
        <ele>11</ele>
        <time>2012-03-18T10:39:39Z</time>
      </trkpt>
      <trkpt lat="59.8255928177" lon="22.9839321338">
        <ele>10.6</ele>
        <time>2012-03-18T10:39:44Z</time>
      </trkpt>
      <trkpt lat="59.8255489803" lon="22.9836099336">
        <ele>10.2</ele>
        <time>2012-03-18T10:39:51Z</time>
      </trkpt>
      <trkpt lat="59.8255183864" lon="22.9833029046">
        <ele>10</ele>
        <time>2012-03-18T10:39:57Z</time>
      </trkpt>
      <trkpt lat="59.8254519179" lon="22.9830739949">
        <ele>10</ele>
        <time>2012-03-18T10:40:02Z</time>
      </trkpt>
      <trkpt lat="59.8254406024" lon="22.9830295708">
        <ele>10</ele>
        <time>2012-03-18T10:40:03Z</time>
      </trkpt>
      <trkpt lat="59.8253370859" lon="22.9828111385">
        <ele>9.8</ele>
        <time>2012-03-18T10:40:09Z</time>
      </trkpt>
      <trkpt lat="59.8253211603" lon="22.9827750963">
        <ele>9.8</ele>
        <time>2012-03-18T10:40:10Z</time>
      </trkpt>
      <trkpt lat="59.8251857088" lon="22.9825041933">
        <ele>9.8</ele>
        <time>2012-03-18T10:40:18Z</time>
      </trkpt>
      <trkpt lat="59.8251745609" lon="22.9824637087">
        <ele>9.8</ele>
        <time>2012-03-18T10:40:19Z</time>
      </trkpt>
      <trkpt lat="59.8250197472" lon="22.981872701">
        <ele>9.8</ele>
        <time>2012-03-18T10:40:31Z</time>
      </trkpt>
      <trkpt lat="59.8249971161" lon="22.9815997025">
        <ele>9.8</ele>
        <time>2012-03-18T10:40:36Z</time>
      </trkpt>
      <trkpt lat="59.8250270394" lon="22.9812144704">
        <ele>9.8</ele>
        <time>2012-03-18T10:40:43Z</time>
      </trkpt>
      <trkpt lat="59.8250687813" lon="22.980907609">
        <ele>9.8</ele>
        <time>2012-03-18T10:40:49Z</time>
      </trkpt>
      <trkpt lat="59.8251044044" lon="22.9806877518">
        <ele>9.8</ele>
        <time>2012-03-18T10:40:53Z</time>
      </trkpt>
      <trkpt lat="59.8251145465" lon="22.9805849897">
        <ele>9.8</ele>
        <time>2012-03-18T10:40:55Z</time>
      </trkpt>
      <trkpt lat="59.8250530233" lon="22.9803044475">
        <ele>9.8</ele>
        <time>2012-03-18T10:41:01Z</time>
      </trkpt>
      <trkpt lat="59.8250348346" lon="22.9802612807">
        <ele>9.8</ele>
        <time>2012-03-18T10:41:02Z</time>
      </trkpt>
      <trkpt lat="59.8249656001" lon="22.9800994262">
        <ele>9.8</ele>
        <time>2012-03-18T10:41:06Z</time>
      </trkpt>
      <trkpt lat="59.8248922585" lon="22.9798896273">
        <ele>9.8</ele>
        <time>2012-03-18T10:41:11Z</time>
      </trkpt>
      <trkpt lat="59.8248295619" lon="22.9796885455">
        <ele>9.8</ele>
        <time>2012-03-18T10:41:16Z</time>
      </trkpt>
      <trkpt lat="59.8247801087" lon="22.9795847776">
        <ele>9.8</ele>
        <time>2012-03-18T10:41:21Z</time>
      </trkpt>
      <trkpt lat="59.8246879078" lon="22.9793737213">
        <ele>9.8</ele>
        <time>2012-03-18T10:41:26Z</time>
      </trkpt>
      <trkpt lat="59.8246653605" lon="22.9793436303">
        <ele>9.8</ele>
        <time>2012-03-18T10:41:27Z</time>
      </trkpt>
      <trkpt lat="59.8245690524" lon="22.9789932669">
        <ele>9.8</ele>
        <time>2012-03-18T10:41:35Z</time>
      </trkpt>
      <trkpt lat="59.8244134005" lon="22.9784895985">
        <ele>9.8</ele>
        <time>2012-03-18T10:41:46Z</time>
      </trkpt>
      <trkpt lat="59.8243819684" lon="22.9784123174">
        <ele>9.8</ele>
        <time>2012-03-18T10:41:48Z</time>
      </trkpt>
      <trkpt lat="59.8242725008" lon="22.9784086293">
        <ele>9.8</ele>
        <time>2012-03-18T10:41:53Z</time>
      </trkpt>
      <trkpt lat="59.8242169288" lon="22.9784621059">
        <ele>9.8</ele>
        <time>2012-03-18T10:41:58Z</time>
      </trkpt>
      <trkpt lat="59.8242139951" lon="22.978457412">
        <ele>9.8</ele>
        <time>2012-03-18T10:41:59Z</time>
      </trkpt>
      <trkpt lat="59.8242062" lon="22.9784533049">
        <ele>9.8</ele>
        <time>2012-03-18T10:42:00Z</time>
      </trkpt>
      <trkpt lat="59.8241711636" lon="22.9784782829">
        <ele>9.8</ele>
        <time>2012-03-18T10:42:05Z</time>
      </trkpt>
      <trkpt lat="59.8241196149" lon="22.9785512055">
        <ele>9.8</ele>
        <time>2012-03-18T10:42:09Z</time>
      </trkpt>
      <trkpt lat="59.8241081317" lon="22.9785884211">
        <ele>9.8</ele>
        <time>2012-03-18T10:42:10Z</time>
      </trkpt>
      <trkpt lat="59.8240240613" lon="22.9787243755">
        <ele>9.8</ele>
        <time>2012-03-18T10:42:16Z</time>
      </trkpt>
      <trkpt lat="59.8240117399" lon="22.978747761">
        <ele>9.8</ele>
        <time>2012-03-18T10:42:18Z</time>
      </trkpt>
      <trkpt lat="59.8240137515" lon="22.9787654468">
        <ele>9.8</ele>
        <time>2012-03-18T10:42:22Z</time>
      </trkpt>
      <trkpt lat="59.8239141746" lon="22.9786231222">
        <ele>9.8</ele>
        <time>2012-03-18T10:42:27Z</time>
      </trkpt>
      <trkpt lat="59.8238962373" lon="22.9785885049">
        <ele>9.8</ele>
        <time>2012-03-18T10:42:28Z</time>
      </trkpt>
      <trkpt lat="59.823715775" lon="22.9783283307">
        <ele>9.8</ele>
        <time>2012-03-18T10:42:40Z</time>
      </trkpt>
      <trkpt lat="59.8236977539" lon="22.9783107288">
        <ele>9.8</ele>
        <time>2012-03-18T10:42:41Z</time>
      </trkpt>
      <trkpt lat="59.8236296091" lon="22.9782778717">
        <ele>9.6</ele>
        <time>2012-03-18T10:42:44Z</time>
      </trkpt>
      <trkpt lat="59.8234858595" lon="22.9781305179">
        <ele>8.8</ele>
        <time>2012-03-18T10:42:50Z</time>
      </trkpt>
      <trkpt lat="59.8233938262" lon="22.9779346329">
        <ele>8.4</ele>
        <time>2012-03-18T10:42:55Z</time>
      </trkpt>
      <trkpt lat="59.8233727877" lon="22.9779226468">
        <ele>8.2</ele>
        <time>2012-03-18T10:42:56Z</time>
      </trkpt>
      <trkpt lat="59.8232644935" lon="22.9778857664">
        <ele>8</ele>
        <time>2012-03-18T10:43:00Z</time>
      </trkpt>
      <trkpt lat="59.8231443809" lon="22.9777125964">
        <ele>7.8</ele>
        <time>2012-03-18T10:43:06Z</time>
      </trkpt>
      <trkpt lat="59.8230491625" lon="22.9775836827">
        <ele>7.8</ele>
        <time>2012-03-18T10:43:11Z</time>
      </trkpt>
      <trkpt lat="59.8229609849" lon="22.9773846964">
        <ele>7</ele>
        <time>2012-03-18T10:43:17Z</time>
      </trkpt>
      <trkpt lat="59.822919746" lon="22.9772180643">
        <ele>6.6</ele>
        <time>2012-03-18T10:43:22Z</time>
      </trkpt>
      <trkpt lat="59.8229111126" lon="22.9771671023">
        <ele>6.4</ele>
        <time>2012-03-18T10:43:23Z</time>
      </trkpt>
      <trkpt lat="59.8228167324" lon="22.9770204191">
        <ele>6.2</ele>
        <time>2012-03-18T10:43:28Z</time>
      </trkpt>
      <trkpt lat="59.8227129645" lon="22.9768943553">
        <ele>6</ele>
        <time>2012-03-18T10:43:33Z</time>
      </trkpt>
      <trkpt lat="59.8226458255" lon="22.976683299">
        <ele>5.8</ele>
        <time>2012-03-18T10:43:38Z</time>
      </trkpt>
      <trkpt lat="59.8226322468" lon="22.9766573152">
        <ele>5.8</ele>
        <time>2012-03-18T10:43:39Z</time>
      </trkpt>
      <trkpt lat="59.8226105377" lon="22.9766138131">
        <ele>5.8</ele>
        <time>2012-03-18T10:43:42Z</time>
      </trkpt>
      <trkpt lat="59.8226232782" lon="22.9765505298">
        <ele>5.8</ele>
        <time>2012-03-18T10:43:45Z</time>
      </trkpt>
      <trkpt lat="59.8226393714" lon="22.9765100452">
        <ele>5.8</ele>
        <time>2012-03-18T10:43:52Z</time>
      </trkpt>
      <trkpt lat="59.8226577278" lon="22.9765016633">
        <ele>5.8</ele>
        <time>2012-03-18T10:43:53Z</time>
      </trkpt>
      <trkpt lat="59.822713635" lon="22.9765074468">
        <ele>5.8</ele>
        <time>2012-03-18T10:43:57Z</time>
      </trkpt>
      <trkpt lat="59.8227481685" lon="22.9765269766">
        <ele>5.8</ele>
        <time>2012-03-18T10:44:00Z</time>
      </trkpt>
      <trkpt lat="59.8227873958" lon="22.976551787">
        <ele>5.8</ele>
        <time>2012-03-18T10:44:02Z</time>
      </trkpt>
      <trkpt lat="59.8228801834" lon="22.9763324327">
        <ele>5.8</ele>
        <time>2012-03-18T10:44:08Z</time>
      </trkpt>
      <trkpt lat="59.8229696183" lon="22.9761665549">
        <ele>5.8</ele>
        <time>2012-03-18T10:44:14Z</time>
      </trkpt>
      <trkpt lat="59.8230553651" lon="22.9759850868">
        <ele>5.8</ele>
        <time>2012-03-18T10:44:20Z</time>
      </trkpt>
      <trkpt lat="59.823161899" lon="22.9757668221">
        <ele>5.8</ele>
        <time>2012-03-18T10:44:26Z</time>
      </trkpt>
      <trkpt lat="59.8233320516" lon="22.9755579452">
        <ele>5.8</ele>
        <time>2012-03-18T10:44:33Z</time>
      </trkpt>
      <trkpt lat="59.8235202253" lon="22.9754356532">
        <ele>5.8</ele>
        <time>2012-03-18T10:44:40Z</time>
      </trkpt>
      <trkpt lat="59.8235372405" lon="22.9754051431">
        <ele>5.8</ele>
        <time>2012-03-18T10:44:41Z</time>
      </trkpt>
      <trkpt lat="59.8234983485" lon="22.9751886386">
        <ele>5.8</ele>
        <time>2012-03-18T10:44:46Z</time>
      </trkpt>
      <trkpt lat="59.8234811656" lon="22.9751330666">
        <ele>5.8</ele>
        <time>2012-03-18T10:44:47Z</time>
      </trkpt>
      <trkpt lat="59.8234374959" lon="22.9749493354">
        <ele>5.8</ele>
        <time>2012-03-18T10:44:51Z</time>
      </trkpt>
      <trkpt lat="59.8233903058" lon="22.9746806117">
        <ele>5.8</ele>
        <time>2012-03-18T10:44:57Z</time>
      </trkpt>
      <trkpt lat="59.8233303752" lon="22.9743639435">
        <ele>5.8</ele>
        <time>2012-03-18T10:45:04Z</time>
      </trkpt>
      <trkpt lat="59.8232804191" lon="22.9741392248">
        <ele>5.8</ele>
        <time>2012-03-18T10:45:09Z</time>
      </trkpt>
      <trkpt lat="59.823203138" lon="22.9738740214">
        <ele>5.8</ele>
        <time>2012-03-18T10:45:15Z</time>
      </trkpt>
      <trkpt lat="59.823123929" lon="22.9736340476">
        <ele>5.8</ele>
        <time>2012-03-18T10:45:20Z</time>
      </trkpt>
      <trkpt lat="59.8230341589" lon="22.9733491469">
        <ele>5.8</ele>
        <time>2012-03-18T10:45:26Z</time>
      </trkpt>
      <trkpt lat="59.8229537765" lon="22.9731770665">
        <ele>5.8</ele>
        <time>2012-03-18T10:45:31Z</time>
      </trkpt>
      <trkpt lat="59.8228630843" lon="22.9729870488">
        <ele>5.8</ele>
        <time>2012-03-18T10:45:36Z</time>
      </trkpt>
      <trkpt lat="59.8228320713" lon="22.9728837838">
        <ele>5.8</ele>
        <time>2012-03-18T10:45:38Z</time>
      </trkpt>
      <trkpt lat="59.8227615795" lon="22.9725960332">
        <ele>5.8</ele>
        <time>2012-03-18T10:45:44Z</time>
      </trkpt>
      <trkpt lat="59.8226732343" lon="22.9723313327">
        <ele>5.8</ele>
        <time>2012-03-18T10:45:50Z</time>
      </trkpt>
      <trkpt lat="59.8225646049" lon="22.9721217014">
        <ele>5.8</ele>
        <time>2012-03-18T10:45:56Z</time>
      </trkpt>
      <trkpt lat="59.8224173349" lon="22.9719911114">
        <ele>5.8</ele>
        <time>2012-03-18T10:46:02Z</time>
      </trkpt>
      <trkpt lat="59.8222937857" lon="22.9718689033">
        <ele>5.8</ele>
        <time>2012-03-18T10:46:07Z</time>
      </trkpt>
      <trkpt lat="59.8221904368" lon="22.9717906164">
        <ele>5.8</ele>
        <time>2012-03-18T10:46:11Z</time>
      </trkpt>
      <trkpt lat="59.8220695698" lon="22.9716615351">
        <ele>5.8</ele>
        <time>2012-03-18T10:46:16Z</time>
      </trkpt>
      <trkpt lat="59.821973178" lon="22.9714317034">
        <ele>5.8</ele>
        <time>2012-03-18T10:46:22Z</time>
      </trkpt>
      <trkpt lat="59.8218891075" lon="22.9711758878">
        <ele>5.8</ele>
        <time>2012-03-18T10:46:28Z</time>
      </trkpt>
      <trkpt lat="59.8217807296" lon="22.9708421206">
        <ele>5.8</ele>
        <time>2012-03-18T10:46:36Z</time>
      </trkpt>
      <trkpt lat="59.8216700885" lon="22.9705728101">
        <ele>5.8</ele>
        <time>2012-03-18T10:46:43Z</time>
      </trkpt>
      <trkpt lat="59.8215774685" lon="22.9703262146">
        <ele>5.8</ele>
        <time>2012-03-18T10:46:49Z</time>
      </trkpt>
      <trkpt lat="59.8214714375" lon="22.9700263102">
        <ele>5.8</ele>
        <time>2012-03-18T10:46:56Z</time>
      </trkpt>
      <trkpt lat="59.8213925638" lon="22.9698007533">
        <ele>5.4</ele>
        <time>2012-03-18T10:47:01Z</time>
      </trkpt>
      <trkpt lat="59.8212921486" lon="22.9694941434">
        <ele>4.4</ele>
        <time>2012-03-18T10:47:08Z</time>
      </trkpt>
      <trkpt lat="59.8212395103" lon="22.9694000985">
        <ele>4.2</ele>
        <time>2012-03-18T10:47:11Z</time>
      </trkpt>
      <trkpt lat="59.8210670946" lon="22.9694102406">
        <ele>4</ele>
        <time>2012-03-18T10:47:18Z</time>
      </trkpt>
      <trkpt lat="59.8210408593" lon="22.9694169461">
        <ele>4</ele>
        <time>2012-03-18T10:47:19Z</time>
      </trkpt>
      <trkpt lat="59.8208498358" lon="22.96944293">
        <ele>3.8</ele>
        <time>2012-03-18T10:47:26Z</time>
      </trkpt>
      <trkpt lat="59.8208231813" lon="22.96943832">
        <ele>3.8</ele>
        <time>2012-03-18T10:47:27Z</time>
      </trkpt>
      <trkpt lat="59.8206705469" lon="22.9694588556">
        <ele>3.8</ele>
        <time>2012-03-18T10:47:33Z</time>
      </trkpt>
      <trkpt lat="59.8205414657" lon="22.9695691614">
        <ele>3.8</ele>
        <time>2012-03-18T10:47:38Z</time>
      </trkpt>
      <trkpt lat="59.8204243705" lon="22.9697080495">
        <ele>3.8</ele>
        <time>2012-03-18T10:47:43Z</time>
      </trkpt>
      <trkpt lat="59.8203407191" lon="22.9698596781">
        <ele>3.8</ele>
        <time>2012-03-18T10:47:48Z</time>
      </trkpt>
      <trkpt lat="59.8202811238" lon="22.9700486899">
        <ele>3.4</ele>
        <time>2012-03-18T10:47:52Z</time>
      </trkpt>
      <trkpt lat="59.8202042618" lon="22.9702944472">
        <ele>2.6</ele>
        <time>2012-03-18T10:47:57Z</time>
      </trkpt>
      <trkpt lat="59.8201465943" lon="22.97046175">
        <ele>2.2</ele>
        <time>2012-03-18T10:48:01Z</time>
      </trkpt>
      <trkpt lat="59.8200067843" lon="22.9706289689">
        <ele>2</ele>
        <time>2012-03-18T10:48:07Z</time>
      </trkpt>
      <trkpt lat="59.8198788765" lon="22.9707538592">
        <ele>1.8</ele>
        <time>2012-03-18T10:48:12Z</time>
      </trkpt>
      <trkpt lat="59.8197915371" lon="22.9708315594">
        <ele>1.8</ele>
        <time>2012-03-18T10:48:16Z</time>
      </trkpt>
      <trkpt lat="59.8197408266" lon="22.9708655061">
        <ele>1.8</ele>
        <time>2012-03-18T10:48:19Z</time>
      </trkpt>
      <trkpt lat="59.8196710892" lon="22.970823848">
        <ele>1.8</ele>
        <time>2012-03-18T10:48:24Z</time>
      </trkpt>
      <trkpt lat="59.8195807323" lon="22.9706855467">
        <ele>1.6</ele>
        <time>2012-03-18T10:48:30Z</time>
      </trkpt>
      <trkpt lat="59.819575284" lon="22.9705870594">
        <ele>1.6</ele>
        <time>2012-03-18T10:48:32Z</time>
      </trkpt>
      <trkpt lat="59.8195704225" lon="22.9704205948">
        <ele>1.6</ele>
        <time>2012-03-18T10:48:36Z</time>
      </trkpt>
      <trkpt lat="59.8195638847" lon="22.9702687148">
        <ele>1.6</ele>
        <time>2012-03-18T10:48:40Z</time>
      </trkpt>
      <trkpt lat="59.8196177803" lon="22.9701032561">
        <ele>1.6</ele>
        <time>2012-03-18T10:48:45Z</time>
      </trkpt>
      <trkpt lat="59.8196622043" lon="22.9700701476">
        <ele>1.6</ele>
        <time>2012-03-18T10:48:50Z</time>
      </trkpt>
      <trkpt lat="59.81964938" lon="22.9700928625">
        <ele>1.6</ele>
        <time>2012-03-18T10:48:54Z</time>
      </trkpt>
      <trkpt lat="59.8196347955" lon="22.970108872">
        <ele>1.4</ele>
        <time>2012-03-18T10:48:55Z</time>
      </trkpt>
      <trkpt lat="59.8195343804" lon="22.9702429824">
        <ele>0.6</ele>
        <time>2012-03-18T10:49:01Z</time>
      </trkpt>
      <trkpt lat="59.8195047084" lon="22.9701688864">
        <ele>0.2</ele>
        <time>2012-03-18T10:49:04Z</time>
      </trkpt>
      <trkpt lat="59.8195358891" lon="22.9700295792">
        <ele>0</ele>
        <time>2012-03-18T10:49:07Z</time>
      </trkpt>
      <trkpt lat="59.8195608672" lon="22.9699470175">
        <ele>0</ele>
        <time>2012-03-18T10:49:09Z</time>
      </trkpt>
      <trkpt lat="59.8196094822" lon="22.9698171818">
        <ele>0</ele>
        <time>2012-03-18T10:49:14Z</time>
      </trkpt>
      <trkpt lat="59.8196268327" lon="22.9696855022">
        <ele>0</ele>
        <time>2012-03-18T10:49:20Z</time>
      </trkpt>
      <trkpt lat="59.8196180317" lon="22.969665218">
        <ele>0</ele>
        <time>2012-03-18T10:49:21Z</time>
      </trkpt>
      <trkpt lat="59.8195905391" lon="22.9695825725">
        <ele>0</ele>
        <time>2012-03-18T10:49:24Z</time>
      </trkpt>
      <trkpt lat="59.8195050437" lon="22.9695177804">
        <ele>0</ele>
        <time>2012-03-18T10:49:29Z</time>
      </trkpt>
      <trkpt lat="59.819439162" lon="22.9695330354">
        <ele>0</ele>
        <time>2012-03-18T10:49:32Z</time>
      </trkpt>
      <trkpt lat="59.8193606236" lon="22.9694463666">
        <ele>0</ele>
        <time>2012-03-18T10:49:36Z</time>
      </trkpt>
      <trkpt lat="59.8192814146" lon="22.9692307003">
        <ele>0</ele>
        <time>2012-03-18T10:49:42Z</time>
      </trkpt>
      <trkpt lat="59.8192723622" lon="22.9691876173">
        <ele>0</ele>
        <time>2012-03-18T10:49:43Z</time>
      </trkpt>
      <trkpt lat="59.8191834302" lon="22.9690464661">
        <ele>0</ele>
        <time>2012-03-18T10:49:49Z</time>
      </trkpt>
      <trkpt lat="59.8191430295" lon="22.968973376">
        <ele>0</ele>
        <time>2012-03-18T10:49:54Z</time>
      </trkpt>
      <trkpt lat="59.8191564405" lon="22.9688868748">
        <ele>0</ele>
        <time>2012-03-18T10:49:58Z</time>
      </trkpt>
      <trkpt lat="59.8191576978" lon="22.9688663391">
        <ele>0</ele>
        <time>2012-03-18T10:49:59Z</time>
      </trkpt>
      <trkpt lat="59.8191680913" lon="22.968854353">
        <ele>0</ele>
        <time>2012-03-18T10:50:04Z</time>
      </trkpt>
      <trkpt lat="59.819169181" lon="22.9688390979">
        <ele>0</ele>
        <time>2012-03-18T10:50:06Z</time>
      </trkpt>
      <trkpt lat="59.8191569434" lon="22.9687214161">
        <ele>0</ele>
        <time>2012-03-18T10:50:10Z</time>
      </trkpt>
      <trkpt lat="59.8191322168" lon="22.9686976953">
        <ele>0</ele>
        <time>2012-03-18T10:50:11Z</time>
      </trkpt>
      <trkpt lat="59.8191078255" lon="22.9686644191">
        <ele>0</ele>
        <time>2012-03-18T10:50:12Z</time>
      </trkpt>
      <trkpt lat="59.8191449573" lon="22.9685806001">
        <ele>0</ele>
        <time>2012-03-18T10:50:16Z</time>
      </trkpt>
      <trkpt lat="59.8191827597" lon="22.9685029837">
        <ele>0</ele>
        <time>2012-03-18T10:50:18Z</time>
      </trkpt>
      <trkpt lat="59.819320139" lon="22.9681829628">
        <ele>0</ele>
        <time>2012-03-18T10:50:27Z</time>
      </trkpt>
      <trkpt lat="59.8192542573" lon="22.9680830506">
        <ele>0</ele>
        <time>2012-03-18T10:50:31Z</time>
      </trkpt>
      <trkpt lat="59.819109921" lon="22.9679573221">
        <ele>0</ele>
        <time>2012-03-18T10:50:36Z</time>
      </trkpt>
      <trkpt lat="59.8189307159" lon="22.9677934559">
        <ele>0</ele>
        <time>2012-03-18T10:50:43Z</time>
      </trkpt>
      <trkpt lat="59.8187650896" lon="22.9676352056">
        <ele>0</ele>
        <time>2012-03-18T10:50:50Z</time>
      </trkpt>
      <trkpt lat="59.8186376847" lon="22.9675183619">
        <ele>0</ele>
        <time>2012-03-18T10:50:56Z</time>
      </trkpt>
      <trkpt lat="59.8186467372" lon="22.9675204574">
        <ele>0</ele>
        <time>2012-03-18T10:50:57Z</time>
      </trkpt>
      <trkpt lat="59.8187413688" lon="22.9676037735">
        <ele>0</ele>
        <time>2012-03-18T10:51:01Z</time>
      </trkpt>
      <trkpt lat="59.8189116052" lon="22.9677552344">
        <ele>0</ele>
        <time>2012-03-18T10:51:06Z</time>
      </trkpt>
      <trkpt lat="59.8189753915" lon="22.9678099683">
        <ele>0</ele>
        <time>2012-03-18T10:51:08Z</time>
      </trkpt>
      <trkpt lat="59.8191291155" lon="22.9679582441">
        <ele>0</ele>
        <time>2012-03-18T10:51:14Z</time>
      </trkpt>
      <trkpt lat="59.8192536705" lon="22.9680694719">
        <ele>0</ele>
        <time>2012-03-18T10:51:19Z</time>
      </trkpt>
      <trkpt lat="59.8194149383" lon="22.968214814">
        <ele>0.4</ele>
        <time>2012-03-18T10:51:26Z</time>
      </trkpt>
      <trkpt lat="59.819510911" lon="22.9681630139">
        <ele>0.8</ele>
        <time>2012-03-18T10:51:30Z</time>
      </trkpt>
      <trkpt lat="59.8196489609" lon="22.9680562285">
        <ele>1.2</ele>
        <time>2012-03-18T10:51:36Z</time>
      </trkpt>
      <trkpt lat="59.8197221349" lon="22.967949024">
        <ele>1.4</ele>
        <time>2012-03-18T10:51:41Z</time>
      </trkpt>
      <trkpt lat="59.8197503819" lon="22.9679419832">
        <ele>1.4</ele>
        <time>2012-03-18T10:51:42Z</time>
      </trkpt>
      <trkpt lat="59.819878625" lon="22.9678735031">
        <ele>1.6</ele>
        <time>2012-03-18T10:51:47Z</time>
      </trkpt>
      <trkpt lat="59.8199538106" lon="22.9676703258">
        <ele>2.4</ele>
        <time>2012-03-18T10:51:52Z</time>
      </trkpt>
      <trkpt lat="59.8198928742" lon="22.9675264086">
        <ele>2.8</ele>
        <time>2012-03-18T10:51:56Z</time>
      </trkpt>
      <trkpt lat="59.81986798" lon="22.9674982454">
        <ele>2.8</ele>
        <time>2012-03-18T10:51:57Z</time>
      </trkpt>
      <trkpt lat="59.8197270802" lon="22.9673052102">
        <ele>3.2</ele>
        <time>2012-03-18T10:52:03Z</time>
      </trkpt>
      <trkpt lat="59.8195614539" lon="22.967082587">
        <ele>3.6</ele>
        <time>2012-03-18T10:52:10Z</time>
      </trkpt>
      <trkpt lat="59.8194452808" lon="22.9669025438">
        <ele>3.6</ele>
        <time>2012-03-18T10:52:16Z</time>
      </trkpt>
      <trkpt lat="59.8193387468" lon="22.9667466404">
        <ele>3.6</ele>
        <time>2012-03-18T10:52:21Z</time>
      </trkpt>
      <trkpt lat="59.8192109228" lon="22.9665526833">
        <ele>3.8</ele>
        <time>2012-03-18T10:52:27Z</time>
      </trkpt>
      <trkpt lat="59.8190873736" lon="22.9663797647">
        <ele>3.8</ele>
        <time>2012-03-18T10:52:33Z</time>
      </trkpt>
      <trkpt lat="59.8189832704" lon="22.9662033257">
        <ele>3.8</ele>
        <time>2012-03-18T10:52:38Z</time>
      </trkpt>
      <trkpt lat="59.818976062" lon="22.9661834606">
        <ele>3.8</ele>
        <time>2012-03-18T10:52:41Z</time>
      </trkpt>
      <trkpt lat="59.8189966815" lon="22.9662176587">
        <ele>3.8</ele>
        <time>2012-03-18T10:52:42Z</time>
      </trkpt>
      <trkpt lat="59.8191576978" lon="22.9664566267">
        <ele>3.8</ele>
        <time>2012-03-18T10:52:49Z</time>
      </trkpt>
      <trkpt lat="59.8192974241" lon="22.9666479855">
        <ele>4</ele>
        <time>2012-03-18T10:52:55Z</time>
      </trkpt>
      <trkpt lat="59.8194260862" lon="22.9668380869">
        <ele>4.8</ele>
        <time>2012-03-18T10:53:01Z</time>
      </trkpt>
      <trkpt lat="59.8195632979" lon="22.9670396716">
        <ele>5.4</ele>
        <time>2012-03-18T10:53:07Z</time>
      </trkpt>
      <trkpt lat="59.8197161" lon="22.9672663182">
        <ele>6.6</ele>
        <time>2012-03-18T10:53:14Z</time>
      </trkpt>
      <trkpt lat="59.8198590114" lon="22.9674862593">
        <ele>7.2</ele>
        <time>2012-03-18T10:53:21Z</time>
      </trkpt>
      <trkpt lat="59.8199748492" lon="22.9676468565">
        <ele>7.6</ele>
        <time>2012-03-18T10:53:26Z</time>
      </trkpt>
      <trkpt lat="59.8201224545" lon="22.9673082277">
        <ele>7.8</ele>
        <time>2012-03-18T10:53:35Z</time>
      </trkpt>
      <trkpt lat="59.8201401403" lon="22.9671239097">
        <ele>7.8</ele>
        <time>2012-03-18T10:53:39Z</time>
      </trkpt>
      <trkpt lat="59.8201107198" lon="22.966806571">
        <ele>8</ele>
        <time>2012-03-18T10:53:45Z</time>
      </trkpt>
      <trkpt lat="59.8201531322" lon="22.9666289585">
        <ele>8</ele>
        <time>2012-03-18T10:53:49Z</time>
      </trkpt>
      <trkpt lat="59.8202149068" lon="22.9664976142">
        <ele>8</ele>
        <time>2012-03-18T10:53:53Z</time>
      </trkpt>
      <trkpt lat="59.8203401324" lon="22.9664883103">
        <ele>8</ele>
        <time>2012-03-18T10:53:59Z</time>
      </trkpt>
      <trkpt lat="59.8204083611" lon="22.966480096">
        <ele>8</ele>
        <time>2012-03-18T10:54:05Z</time>
      </trkpt>
      <trkpt lat="59.8204620052" lon="22.9664921659">
        <ele>8</ele>
        <time>2012-03-18T10:54:09Z</time>
      </trkpt>
      <trkpt lat="59.8204839658" lon="22.9664469875">
        <ele>8</ele>
        <time>2012-03-18T10:54:10Z</time>
      </trkpt>
      <trkpt lat="59.8205971215" lon="22.9661704686">
        <ele>8</ele>
        <time>2012-03-18T10:54:16Z</time>
      </trkpt>
      <trkpt lat="59.8206490892" lon="22.9660218575">
        <ele>8</ele>
        <time>2012-03-18T10:54:20Z</time>
      </trkpt>
      <trkpt lat="59.8206827845" lon="22.965676188">
        <ele>8</ele>
        <time>2012-03-18T10:54:26Z</time>
      </trkpt>
      <trkpt lat="59.8206909987" lon="22.9654359627">
        <ele>8</ele>
        <time>2012-03-18T10:54:32Z</time>
      </trkpt>
      <trkpt lat="59.8207013085" lon="22.9652836636">
        <ele>8</ele>
        <time>2012-03-18T10:54:36Z</time>
      </trkpt>
      <trkpt lat="59.820764508" lon="22.9651910436">
        <ele>8</ele>
        <time>2012-03-18T10:54:41Z</time>
      </trkpt>
      <trkpt lat="59.8209114427" lon="22.9650248305">
        <ele>8</ele>
        <time>2012-03-18T10:54:47Z</time>
      </trkpt>
      <trkpt lat="59.8209282065" lon="22.9650149399">
        <ele>8</ele>
        <time>2012-03-18T10:54:48Z</time>
      </trkpt>
      <trkpt lat="59.8209959323" lon="22.9651418418">
        <ele>8</ele>
        <time>2012-03-18T10:54:56Z</time>
      </trkpt>
      <trkpt lat="59.8210958445" lon="22.9652116631">
        <ele>8</ele>
        <time>2012-03-18T10:55:01Z</time>
      </trkpt>
      <trkpt lat="59.8211182242" lon="22.9652105734">
        <ele>8</ele>
        <time>2012-03-18T10:55:02Z</time>
      </trkpt>
      <trkpt lat="59.8212183879" lon="22.9652168598">
        <ele>8</ele>
        <time>2012-03-18T10:55:07Z</time>
      </trkpt>
      <trkpt lat="59.8212987703" lon="22.9650404209">
        <ele>8</ele>
        <time>2012-03-18T10:55:13Z</time>
      </trkpt>
      <trkpt lat="59.821345206" lon="22.9648551809">
        <ele>8</ele>
        <time>2012-03-18T10:55:18Z</time>
      </trkpt>
      <trkpt lat="59.8213702679" lon="22.9645664244">
        <ele>8</ele>
        <time>2012-03-18T10:55:24Z</time>
      </trkpt>
      <trkpt lat="59.8213716928" lon="22.9645145404">
        <ele>8</ele>
        <time>2012-03-18T10:55:25Z</time>
      </trkpt>
      <trkpt lat="59.8213492294" lon="22.9641536997">
        <ele>8</ele>
        <time>2012-03-18T10:55:32Z</time>
      </trkpt>
      <trkpt lat="59.8213065655" lon="22.9638081977">
        <ele>8</ele>
        <time>2012-03-18T10:55:39Z</time>
      </trkpt>
      <trkpt lat="59.8212417734" lon="22.9634816389">
        <ele>8</ele>
        <time>2012-03-18T10:55:46Z</time>
      </trkpt>
      <trkpt lat="59.821187291" lon="22.9631905355">
        <ele>7.6</ele>
        <time>2012-03-18T10:55:52Z</time>
      </trkpt>
      <trkpt lat="59.8211431184" lon="22.9629529087">
        <ele>6.8</ele>
        <time>2012-03-18T10:55:57Z</time>
      </trkpt>
      <trkpt lat="59.8210944196" lon="22.9626983504">
        <ele>6.4</ele>
        <time>2012-03-18T10:56:02Z</time>
      </trkpt>
      <trkpt lat="59.821046978" lon="22.9624448817">
        <ele>6.2</ele>
        <time>2012-03-18T10:56:07Z</time>
      </trkpt>
      <trkpt lat="59.8210384285" lon="22.9621961069">
        <ele>6.2</ele>
        <time>2012-03-18T10:56:12Z</time>
      </trkpt>
      <trkpt lat="59.8210527616" lon="22.9620004734">
        <ele>6</ele>
        <time>2012-03-18T10:56:17Z</time>
      </trkpt>
      <trkpt lat="59.8210525101" lon="22.9619465777">
        <ele>6</ele>
        <time>2012-03-18T10:56:18Z</time>
      </trkpt>
      <trkpt lat="59.8210227543" lon="22.9618139761">
        <ele>6</ele>
        <time>2012-03-18T10:56:21Z</time>
      </trkpt>
      <trkpt lat="59.820959471" lon="22.9614650376">
        <ele>6</ele>
        <time>2012-03-18T10:56:28Z</time>
      </trkpt>
      <trkpt lat="59.8209492451" lon="22.9611152609">
        <ele>6</ele>
        <time>2012-03-18T10:56:35Z</time>
      </trkpt>
      <trkpt lat="59.8209552801" lon="22.9609705893">
        <ele>6</ele>
        <time>2012-03-18T10:56:38Z</time>
      </trkpt>
      <trkpt lat="59.8209692778" lon="22.9609331222">
        <ele>6</ele>
        <time>2012-03-18T10:56:40Z</time>
      </trkpt>
      <trkpt lat="59.8209599739" lon="22.9609420908">
        <ele>6</ele>
        <time>2012-03-18T10:56:46Z</time>
      </trkpt>
      <trkpt lat="59.8210047333" lon="22.960921639">
        <ele>6</ele>
        <time>2012-03-18T10:57:40Z</time>
      </trkpt>
      <trkpt lat="59.820993753" lon="22.9608838366">
        <ele>6</ele>
        <time>2012-03-18T10:57:42Z</time>
      </trkpt>
      <trkpt lat="59.8209953455" lon="22.9607458706">
        <ele>6</ele>
        <time>2012-03-18T10:57:46Z</time>
      </trkpt>
      <trkpt lat="59.8210401049" lon="22.960357621">
        <ele>6</ele>
        <time>2012-03-18T10:57:54Z</time>
      </trkpt>
      <trkpt lat="59.8210717885" lon="22.9600687807">
        <ele>6</ele>
        <time>2012-03-18T10:58:00Z</time>
      </trkpt>
      <trkpt lat="59.8211121054" lon="22.9597877356">
        <ele>6</ele>
        <time>2012-03-18T10:58:06Z</time>
      </trkpt>
      <trkpt lat="59.8211798312" lon="22.9594450835">
        <ele>6</ele>
        <time>2012-03-18T10:58:13Z</time>
      </trkpt>
      <trkpt lat="59.8212224112" lon="22.9591520523">
        <ele>6</ele>
        <time>2012-03-18T10:58:19Z</time>
      </trkpt>
      <trkpt lat="59.8212335591" lon="22.9591319357">
        <ele>6</ele>
        <time>2012-03-18T10:58:20Z</time>
      </trkpt>
      <trkpt lat="59.821252167" lon="22.9591281639">
        <ele>6</ele>
        <time>2012-03-18T10:58:22Z</time>
      </trkpt>
      <trkpt lat="59.8213385843" lon="22.9591985718">
        <ele>6</ele>
        <time>2012-03-18T10:58:25Z</time>
      </trkpt>
      <trkpt lat="59.8214851" lon="22.9592141622">
        <ele>6.4</ele>
        <time>2012-03-18T10:58:31Z</time>
      </trkpt>
      <trkpt lat="59.8215102457" lon="22.9592438341">
        <ele>6.4</ele>
        <time>2012-03-18T10:58:32Z</time>
      </trkpt>
      <trkpt lat="59.821680985" lon="22.9594125617">
        <ele>7.4</ele>
        <time>2012-03-18T10:58:39Z</time>
      </trkpt>
      <trkpt lat="59.8218258242" lon="22.9595598317">
        <ele>8.6</ele>
        <time>2012-03-18T10:58:45Z</time>
      </trkpt>
      <trkpt lat="59.8219645446" lon="22.9597122147">
        <ele>10</ele>
        <time>2012-03-18T10:58:51Z</time>
      </trkpt>
      <trkpt lat="59.8220746828" lon="22.9598378593">
        <ele>11</ele>
        <time>2012-03-18T10:58:56Z</time>
      </trkpt>
      <trkpt lat="59.822184821" lon="22.959953781">
        <ele>12</ele>
        <time>2012-03-18T10:59:01Z</time>
      </trkpt>
      <trkpt lat="59.8223451667" lon="22.9601298847">
        <ele>13.2</ele>
        <time>2012-03-18T10:59:08Z</time>
      </trkpt>
      <trkpt lat="59.822493694" lon="22.960301546">
        <ele>14.8</ele>
        <time>2012-03-18T10:59:15Z</time>
      </trkpt>
      <trkpt lat="59.8226234458" lon="22.9604496542">
        <ele>15.6</ele>
        <time>2012-03-18T10:59:21Z</time>
      </trkpt>
      <trkpt lat="59.822784043" lon="22.9606480538">
        <ele>16.8</ele>
        <time>2012-03-18T10:59:28Z</time>
      </trkpt>
      <trkpt lat="59.8229144654" lon="22.9608099921">
        <ele>17.6</ele>
        <time>2012-03-18T10:59:34Z</time>
      </trkpt>
      <trkpt lat="59.8230816843" lon="22.9609846709">
        <ele>18.4</ele>
        <time>2012-03-18T10:59:41Z</time>
      </trkpt>
      <trkpt lat="59.8232352407" lon="22.9611380597">
        <ele>19.6</ele>
        <time>2012-03-18T10:59:47Z</time>
      </trkpt>
      <trkpt lat="59.8233998612" lon="22.961316678">
        <ele>21.6</ele>
        <time>2012-03-18T10:59:54Z</time>
      </trkpt>
      <trkpt lat="59.823533804" lon="22.9614761017">
        <ele>23.4</ele>
        <time>2012-03-18T11:00:00Z</time>
      </trkpt>
      <trkpt lat="59.8236641425" lon="22.9616348549">
        <ele>25.2</ele>
        <time>2012-03-18T11:00:06Z</time>
      </trkpt>
      <trkpt lat="59.8237923856" lon="22.9618073544">
        <ele>26</ele>
        <time>2012-03-18T11:00:12Z</time>
      </trkpt>
      <trkpt lat="59.8239171082" lon="22.9619829552">
        <ele>27.4</ele>
        <time>2012-03-18T11:00:18Z</time>
      </trkpt>
      <trkpt lat="59.824068653" lon="22.9621754036">
        <ele>28.2</ele>
        <time>2012-03-18T11:00:25Z</time>
      </trkpt>
      <trkpt lat="59.8242911086" lon="22.9624412775">
        <ele>28.8</ele>
        <time>2012-03-18T11:00:35Z</time>
      </trkpt>
      <trkpt lat="59.8244079523" lon="22.9625810876">
        <ele>29</ele>
        <time>2012-03-18T11:00:40Z</time>
      </trkpt>
      <trkpt lat="59.824489592" lon="22.9627849354">
        <ele>29</ele>
        <time>2012-03-18T11:00:45Z</time>
      </trkpt>
      <trkpt lat="59.824595623" lon="22.962983754">
        <ele>29</ele>
        <time>2012-03-18T11:00:51Z</time>
      </trkpt>
      <trkpt lat="59.8247034981" lon="22.9631012683">
        <ele>29.2</ele>
        <time>2012-03-18T11:00:56Z</time>
      </trkpt>
      <trkpt lat="59.824724369" lon="22.9631191217">
        <ele>29.2</ele>
        <time>2012-03-18T11:00:57Z</time>
      </trkpt>
      <trkpt lat="59.8248793504" lon="22.9633178566">
        <ele>29.2</ele>
        <time>2012-03-18T11:01:04Z</time>
      </trkpt>
      <trkpt lat="59.8249990439" lon="22.9635244704">
        <ele>29.2</ele>
        <time>2012-03-18T11:01:10Z</time>
      </trkpt>
      <trkpt lat="59.8250238543" lon="22.9635974768">
        <ele>29.2</ele>
        <time>2012-03-18T11:01:12Z</time>
      </trkpt>
      <trkpt lat="59.8250549512" lon="22.9638350198">
        <ele>29.2</ele>
        <time>2012-03-18T11:01:17Z</time>
      </trkpt>
      <trkpt lat="59.8251060808" lon="22.9640720599">
        <ele>28.8</ele>
        <time>2012-03-18T11:01:23Z</time>
      </trkpt>
      <trkpt lat="59.8251256106" lon="22.964402223">
        <ele>28</ele>
        <time>2012-03-18T11:01:29Z</time>
      </trkpt>
      <trkpt lat="59.825142542" lon="22.964631887">
        <ele>27.8</ele>
        <time>2012-03-18T11:01:34Z</time>
      </trkpt>
      <trkpt lat="59.8251697832" lon="22.9647025465">
        <ele>27.6</ele>
        <time>2012-03-18T11:01:36Z</time>
      </trkpt>
      <trkpt lat="59.8253511675" lon="22.9648592042">
        <ele>27.4</ele>
        <time>2012-03-18T11:01:44Z</time>
      </trkpt>
      <trkpt lat="59.8255085796" lon="22.9649684203">
        <ele>27.2</ele>
        <time>2012-03-18T11:01:51Z</time>
      </trkpt>
      <trkpt lat="59.8256342243" lon="22.9650784747">
        <ele>27.2</ele>
        <time>2012-03-18T11:01:57Z</time>
      </trkpt>
      <trkpt lat="59.8257803208" lon="22.9651959889">
        <ele>27.2</ele>
        <time>2012-03-18T11:02:04Z</time>
      </trkpt>
      <trkpt lat="59.825923316" lon="22.9652982481">
        <ele>27.2</ele>
        <time>2012-03-18T11:02:10Z</time>
      </trkpt>
      <trkpt lat="59.8260890262" lon="22.9653942209">
        <ele>27.2</ele>
        <time>2012-03-18T11:02:17Z</time>
      </trkpt>
      <trkpt lat="59.8262513836" lon="22.9654571689">
        <ele>27.2</ele>
        <time>2012-03-18T11:02:23Z</time>
      </trkpt>
      <trkpt lat="59.8264776111" lon="22.9655391439">
        <ele>27.2</ele>
        <time>2012-03-18T11:02:32Z</time>
      </trkpt>
      <trkpt lat="59.8266065247" lon="22.9655660498">
        <ele>27.2</ele>
        <time>2012-03-18T11:02:37Z</time>
      </trkpt>
      <trkpt lat="59.8267783536" lon="22.9655855796">
        <ele>27.2</ele>
        <time>2012-03-18T11:02:44Z</time>
      </trkpt>
      <trkpt lat="59.8269042498" lon="22.9656056962">
        <ele>27.2</ele>
        <time>2012-03-18T11:02:49Z</time>
      </trkpt>
      <trkpt lat="59.8270311517" lon="22.9656160897">
        <ele>27.2</ele>
        <time>2012-03-18T11:02:54Z</time>
      </trkpt>
      <trkpt lat="59.8271737278" lon="22.9656342785">
        <ele>26.2</ele>
        <time>2012-03-18T11:02:59Z</time>
      </trkpt>
      <trkpt lat="59.8273642484" lon="22.9656564067">
        <ele>25.6</ele>
        <time>2012-03-18T11:03:06Z</time>
      </trkpt>
      <trkpt lat="59.8275029689" lon="22.9656668002">
        <ele>25.4</ele>
        <time>2012-03-18T11:03:11Z</time>
      </trkpt>
      <trkpt lat="59.8277051403" lon="22.965689599">
        <ele>25.2</ele>
        <time>2012-03-18T11:03:18Z</time>
      </trkpt>
      <trkpt lat="59.8278664919" lon="22.9657136551">
        <ele>25</ele>
        <time>2012-03-18T11:03:24Z</time>
      </trkpt>
      <trkpt lat="59.8280518995" lon="22.9656749307">
        <ele>25</ele>
        <time>2012-03-18T11:03:31Z</time>
      </trkpt>
      <trkpt lat="59.8281762869" lon="22.9654727593">
        <ele>25</ele>
        <time>2012-03-18T11:03:37Z</time>
      </trkpt>
      <trkpt lat="59.828228087" lon="22.965325154">
        <ele>25</ele>
        <time>2012-03-18T11:03:41Z</time>
      </trkpt>
      <trkpt lat="59.8282269136" lon="22.9651570969">
        <ele>25</ele>
        <time>2012-03-18T11:03:44Z</time>
      </trkpt>
      <trkpt lat="59.8282246505" lon="22.9648321306">
        <ele>25</ele>
        <time>2012-03-18T11:03:50Z</time>
      </trkpt>
      <trkpt lat="59.8282422525" lon="22.9645252693">
        <ele>25</ele>
        <time>2012-03-18T11:03:56Z</time>
      </trkpt>
      <trkpt lat="59.8282664761" lon="22.9642761592">
        <ele>25</ele>
        <time>2012-03-18T11:04:01Z</time>
      </trkpt>
      <trkpt lat="59.8282761153" lon="22.9640086928">
        <ele>25</ele>
        <time>2012-03-18T11:04:06Z</time>
      </trkpt>
      <trkpt lat="59.8282741875" lon="22.9637375383">
        <ele>25</ele>
        <time>2012-03-18T11:04:11Z</time>
      </trkpt>
      <trkpt lat="59.8282767859" lon="22.9634964749">
        <ele>25</ele>
        <time>2012-03-18T11:04:16Z</time>
      </trkpt>
      <trkpt lat="59.8283122413" lon="22.9627741227">
        <ele>25</ele>
        <time>2012-03-18T11:04:31Z</time>
      </trkpt>
      <trkpt lat="59.8283103135" lon="22.9627204786">
        <ele>25</ele>
        <time>2012-03-18T11:04:32Z</time>
      </trkpt>
      <trkpt lat="59.8283184439" lon="22.9625096738">
        <ele>25</ele>
        <time>2012-03-18T11:04:36Z</time>
      </trkpt>
      <trkpt lat="59.8283250656" lon="22.9621482463">
        <ele>24.6</ele>
        <time>2012-03-18T11:04:43Z</time>
      </trkpt>
      <trkpt lat="59.828320707" lon="22.9619386149">
        <ele>24</ele>
        <time>2012-03-18T11:04:47Z</time>
      </trkpt>
      <trkpt lat="59.8283181087" lon="22.9616465057">
        <ele>23.6</ele>
        <time>2012-03-18T11:04:52Z</time>
      </trkpt>
      <trkpt lat="59.8283236407" lon="22.9613617726">
        <ele>22.8</ele>
        <time>2012-03-18T11:04:57Z</time>
      </trkpt>
      <trkpt lat="59.828332777" lon="22.9610279215">
        <ele>22</ele>
        <time>2012-03-18T11:05:03Z</time>
      </trkpt>
      <trkpt lat="59.8283482835" lon="22.9606256741">
        <ele>21.4</ele>
        <time>2012-03-18T11:05:10Z</time>
      </trkpt>
      <trkpt lat="59.8283596829" lon="22.9602950082">
        <ele>21.2</ele>
        <time>2012-03-18T11:05:16Z</time>
      </trkpt>
      <trkpt lat="59.8283687353" lon="22.9599859675">
        <ele>21.2</ele>
        <time>2012-03-18T11:05:22Z</time>
      </trkpt>
      <trkpt lat="59.8283741836" lon="22.9595940299">
        <ele>21</ele>
        <time>2012-03-18T11:05:29Z</time>
      </trkpt>
      <trkpt lat="59.8283857506" lon="22.9593277369">
        <ele>21</ele>
        <time>2012-03-18T11:05:34Z</time>
      </trkpt>
      <trkpt lat="59.8283939648" lon="22.9589632081">
        <ele>21</ele>
        <time>2012-03-18T11:05:41Z</time>
      </trkpt>
      <trkpt lat="59.8284032688" lon="22.9586462884">
        <ele>21</ele>
        <time>2012-03-18T11:05:47Z</time>
      </trkpt>
      <trkpt lat="59.8284064539" lon="22.9584825061">
        <ele>21</ele>
        <time>2012-03-18T11:05:50Z</time>
      </trkpt>
      <trkpt lat="59.8284170989" lon="22.9582833522">
        <ele>21</ele>
        <time>2012-03-18T11:05:54Z</time>
      </trkpt>
      <trkpt lat="59.8284218766" lon="22.9579019757">
        <ele>21</ele>
        <time>2012-03-18T11:06:01Z</time>
      </trkpt>
      <trkpt lat="59.8284315996" lon="22.9575604133">
        <ele>21</ele>
        <time>2012-03-18T11:06:07Z</time>
      </trkpt>
      <trkpt lat="59.828434198" lon="22.9572170907">
        <ele>21</ele>
        <time>2012-03-18T11:06:13Z</time>
      </trkpt>
      <trkpt lat="59.8284399815" lon="22.9568803059">
        <ele>21</ele>
        <time>2012-03-18T11:06:19Z</time>
      </trkpt>
      <trkpt lat="59.8284422446" lon="22.9564932298">
        <ele>21</ele>
        <time>2012-03-18T11:06:26Z</time>
      </trkpt>
      <trkpt lat="59.8284658815" lon="22.956292148">
        <ele>21</ele>
        <time>2012-03-18T11:06:30Z</time>
      </trkpt>
      <trkpt lat="59.8284724194" lon="22.9559712889">
        <ele>21</ele>
        <time>2012-03-18T11:06:36Z</time>
      </trkpt>
      <trkpt lat="59.8284766104" lon="22.9559002942">
        <ele>21</ele>
        <time>2012-03-18T11:06:37Z</time>
      </trkpt>
      <trkpt lat="59.8284870039" lon="22.9556270442">
        <ele>21</ele>
        <time>2012-03-18T11:06:42Z</time>
      </trkpt>
      <trkpt lat="59.828488848" lon="22.9553280619">
        <ele>21</ele>
        <time>2012-03-18T11:06:48Z</time>
      </trkpt>
      <trkpt lat="59.8285017561" lon="22.9550709052">
        <ele>21</ele>
        <time>2012-03-18T11:06:53Z</time>
      </trkpt>
      <trkpt lat="59.8285087969" lon="22.954848701">
        <ele>21</ele>
        <time>2012-03-18T11:06:57Z</time>
      </trkpt>
      <trkpt lat="59.8285192743" lon="22.9544866867">
        <ele>21</ele>
        <time>2012-03-18T11:07:03Z</time>
      </trkpt>
      <trkpt lat="59.8285322662" lon="22.9541583677">
        <ele>21</ele>
        <time>2012-03-18T11:07:09Z</time>
      </trkpt>
      <trkpt lat="59.8285496167" lon="22.9538800048">
        <ele>21</ele>
        <time>2012-03-18T11:07:14Z</time>
      </trkpt>
      <trkpt lat="59.8285542268" lon="22.9536113649">
        <ele>21</ele>
        <time>2012-03-18T11:07:19Z</time>
      </trkpt>
      <trkpt lat="59.8285566575" lon="22.9532308267">
        <ele>21</ele>
        <time>2012-03-18T11:07:26Z</time>
      </trkpt>
      <trkpt lat="59.828557831" lon="22.9529654557">
        <ele>21</ele>
        <time>2012-03-18T11:07:31Z</time>
      </trkpt>
      <trkpt lat="59.8285636145" lon="22.952567064">
        <ele>21</ele>
        <time>2012-03-18T11:07:38Z</time>
      </trkpt>
      <trkpt lat="59.8285673025" lon="22.9522939817">
        <ele>21</ele>
        <time>2012-03-18T11:07:43Z</time>
      </trkpt>
      <trkpt lat="59.8285714097" lon="22.9520182172">
        <ele>21</ele>
        <time>2012-03-18T11:07:48Z</time>
      </trkpt>
      <trkpt lat="59.8285752653" lon="22.9516930833">
        <ele>20.2</ele>
        <time>2012-03-18T11:07:54Z</time>
      </trkpt>
      <trkpt lat="59.828575433" lon="22.9514122896">
        <ele>19.8</ele>
        <time>2012-03-18T11:07:59Z</time>
      </trkpt>
      <trkpt lat="59.8285845693" lon="22.9511345973">
        <ele>19.4</ele>
        <time>2012-03-18T11:08:04Z</time>
      </trkpt>
      <trkpt lat="59.8285887602" lon="22.9508750937">
        <ele>19.2</ele>
        <time>2012-03-18T11:08:09Z</time>
      </trkpt>
      <trkpt lat="59.8285983156" lon="22.9505518038">
        <ele>19.2</ele>
        <time>2012-03-18T11:08:15Z</time>
      </trkpt>
      <trkpt lat="59.828606446" lon="22.9500650669">
        <ele>17.8</ele>
        <time>2012-03-18T11:08:25Z</time>
      </trkpt>
      <trkpt lat="59.8286313403" lon="22.9497347362">
        <ele>17.4</ele>
        <time>2012-03-18T11:08:31Z</time>
      </trkpt>
      <trkpt lat="59.8286323461" lon="22.9494707901">
        <ele>17.2</ele>
        <time>2012-03-18T11:08:36Z</time>
      </trkpt>
      <trkpt lat="59.828644416" lon="22.9490964545">
        <ele>17</ele>
        <time>2012-03-18T11:08:43Z</time>
      </trkpt>
      <trkpt lat="59.8286477688" lon="22.948777607">
        <ele>17</ele>
        <time>2012-03-18T11:08:49Z</time>
      </trkpt>
      <trkpt lat="59.8286454218" lon="22.9486782815">
        <ele>17</ele>
        <time>2012-03-18T11:08:51Z</time>
      </trkpt>
      <trkpt lat="59.8285770255" lon="22.9486672174">
        <ele>17</ele>
        <time>2012-03-18T11:08:55Z</time>
      </trkpt>
      <trkpt lat="59.8285556517" lon="22.9486638646">
        <ele>17</ele>
        <time>2012-03-18T11:08:56Z</time>
      </trkpt>
      <trkpt lat="59.828400838" lon="22.9486477714">
        <ele>17</ele>
        <time>2012-03-18T11:09:02Z</time>
      </trkpt>
      <trkpt lat="59.8282344573" lon="22.9486417364">
        <ele>16.2</ele>
        <time>2012-03-18T11:09:08Z</time>
      </trkpt>
      <trkpt lat="59.8281063819" lon="22.9486450054">
        <ele>15.6</ele>
        <time>2012-03-18T11:09:13Z</time>
      </trkpt>
      <trkpt lat="59.8279348882" lon="22.9486458435">
        <ele>15.2</ele>
        <time>2012-03-18T11:09:19Z</time>
      </trkpt>
      <trkpt lat="59.8277712735" lon="22.9486331031">
        <ele>15.2</ele>
        <time>2012-03-18T11:09:25Z</time>
      </trkpt>
      <trkpt lat="59.8276264343" lon="22.9486138247">
        <ele>15</ele>
        <time>2012-03-18T11:09:30Z</time>
      </trkpt>
      <trkpt lat="59.8273544416" lon="22.9485072907">
        <ele>15</ele>
        <time>2012-03-18T11:09:41Z</time>
      </trkpt>
      <trkpt lat="59.8272354186" lon="22.9484125753">
        <ele>15</ele>
        <time>2012-03-18T11:09:46Z</time>
      </trkpt>
      <trkpt lat="59.8271304772" lon="22.9483158481">
        <ele>14.8</ele>
        <time>2012-03-18T11:09:50Z</time>
      </trkpt>
      <trkpt lat="59.8271084328" lon="22.9483056222">
        <ele>14.8</ele>
        <time>2012-03-18T11:09:51Z</time>
      </trkpt>
      <trkpt lat="59.826998127" lon="22.9482481224">
        <ele>14.8</ele>
        <time>2012-03-18T11:09:55Z</time>
      </trkpt>
      <trkpt lat="59.8268505218" lon="22.9481452765">
        <ele>14.8</ele>
        <time>2012-03-18T11:10:01Z</time>
      </trkpt>
      <trkpt lat="59.8267390425" lon="22.9479845116">
        <ele>14.8</ele>
        <time>2012-03-18T11:10:06Z</time>
      </trkpt>
      <trkpt lat="59.8267268049" lon="22.947934807">
        <ele>14.8</ele>
        <time>2012-03-18T11:10:07Z</time>
      </trkpt>
      <trkpt lat="59.8266828838" lon="22.9477273549">
        <ele>14.8</ele>
        <time>2012-03-18T11:10:11Z</time>
      </trkpt>
      <trkpt lat="59.826673077" lon="22.9476808354">
        <ele>14.8</ele>
        <time>2012-03-18T11:10:12Z</time>
      </trkpt>
      <trkpt lat="59.8266102965" lon="22.9473779135">
        <ele>14.8</ele>
        <time>2012-03-18T11:10:18Z</time>
      </trkpt>
      <trkpt lat="59.8265835583" lon="22.9471163983">
        <ele>14.8</ele>
        <time>2012-03-18T11:10:23Z</time>
      </trkpt>
      <trkpt lat="59.826580457" lon="22.9470383628">
        <ele>14.8</ele>
        <time>2012-03-18T11:10:25Z</time>
      </trkpt>
      <trkpt lat="59.8265814628" lon="22.9468477584">
        <ele>14.8</ele>
        <time>2012-03-18T11:10:30Z</time>
      </trkpt>
      <trkpt lat="59.8265791159" lon="22.9468175835">
        <ele>14.8</ele>
        <time>2012-03-18T11:10:31Z</time>
      </trkpt>
      <trkpt lat="59.8265454206" lon="22.9465180144">
        <ele>14.8</ele>
        <time>2012-03-18T11:10:38Z</time>
      </trkpt>
      <trkpt lat="59.8265564847" lon="22.94625608">
        <ele>14.8</ele>
        <time>2012-03-18T11:10:44Z</time>
      </trkpt>
      <trkpt lat="59.826589258" lon="22.9460176988">
        <ele>14.8</ele>
        <time>2012-03-18T11:10:49Z</time>
      </trkpt>
      <trkpt lat="59.8266071952" lon="22.9459315329">
        <ele>14.8</ele>
        <time>2012-03-18T11:10:51Z</time>
      </trkpt>
      <trkpt lat="59.8266948699" lon="22.9457835923">
        <ele>14.8</ele>
        <time>2012-03-18T11:10:57Z</time>
      </trkpt>
      <trkpt lat="59.8267486817" lon="22.9457172077">
        <ele>14.8</ele>
        <time>2012-03-18T11:11:02Z</time>
      </trkpt>
      <trkpt lat="59.8267682953" lon="22.9456856917">
        <ele>14.8</ele>
        <time>2012-03-18T11:11:03Z</time>
      </trkpt>
      <trkpt lat="59.8268775115" lon="22.9455947481">
        <ele>14.8</ele>
        <time>2012-03-18T11:11:09Z</time>
      </trkpt>
      <trkpt lat="59.8268946944" lon="22.9455819238">
        <ele>14.8</ele>
        <time>2012-03-18T11:11:10Z</time>
      </trkpt>
      <trkpt lat="59.8269713888" lon="22.945530459">
        <ele>14.8</ele>
        <time>2012-03-18T11:11:15Z</time>
      </trkpt>
      <trkpt lat="59.8270583091" lon="22.9454550219">
        <ele>14.8</ele>
        <time>2012-03-18T11:11:20Z</time>
      </trkpt>
      <trkpt lat="59.8271583051" lon="22.9453862065">
        <ele>14.8</ele>
        <time>2012-03-18T11:11:26Z</time>
      </trkpt>
      <trkpt lat="59.8272428785" lon="22.9453934149">
        <ele>14.8</ele>
        <time>2012-03-18T11:11:31Z</time>
      </trkpt>
      <trkpt lat="59.8273360014" lon="22.9452515931">
        <ele>14.8</ele>
        <time>2012-03-18T11:11:40Z</time>
      </trkpt>
      <trkpt lat="59.8274148751" lon="22.9451479929">
        <ele>14.8</ele>
        <time>2012-03-18T11:11:45Z</time>
      </trkpt>
      <trkpt lat="59.8274007935" lon="22.9449443127">
        <ele>14.8</ele>
        <time>2012-03-18T11:11:50Z</time>
      </trkpt>
      <trkpt lat="59.8273631588" lon="22.9446540475">
        <ele>14.8</ele>
        <time>2012-03-18T11:11:56Z</time>
      </trkpt>
      <trkpt lat="59.8273565371" lon="22.9445520398">
        <ele>15.2</ele>
        <time>2012-03-18T11:11:58Z</time>
      </trkpt>
      <trkpt lat="59.8272712093" lon="22.9443475214">
        <ele>16</ele>
        <time>2012-03-18T11:12:03Z</time>
      </trkpt>
      <trkpt lat="59.8272394419" lon="22.9442887643">
        <ele>16.2</ele>
        <time>2012-03-18T11:12:05Z</time>
      </trkpt>
      <trkpt lat="59.8271800981" lon="22.9440808932">
        <ele>16.4</ele>
        <time>2012-03-18T11:12:10Z</time>
      </trkpt>
      <trkpt lat="59.8271358417" lon="22.9438527379">
        <ele>16.6</ele>
        <time>2012-03-18T11:12:15Z</time>
      </trkpt>
      <trkpt lat="59.8271293876" lon="22.9438051287">
        <ele>16.6</ele>
        <time>2012-03-18T11:12:16Z</time>
      </trkpt>
      <trkpt lat="59.8270815269" lon="22.9435386681">
        <ele>16.8</ele>
        <time>2012-03-18T11:12:22Z</time>
      </trkpt>
      <trkpt lat="59.8269575586" lon="22.9430308087">
        <ele>18</ele>
        <time>2012-03-18T11:12:34Z</time>
      </trkpt>
      <trkpt lat="59.8269299822" lon="22.9427490931">
        <ele>18.4</ele>
        <time>2012-03-18T11:12:40Z</time>
      </trkpt>
      <trkpt lat="59.8269285573" lon="22.9426717281">
        <ele>18.6</ele>
        <time>2012-03-18T11:12:42Z</time>
      </trkpt>
      <trkpt lat="59.8269275514" lon="22.9424781901">
        <ele>18.6</ele>
        <time>2012-03-18T11:12:47Z</time>
      </trkpt>
      <trkpt lat="59.8269236119" lon="22.9424367835">
        <ele>18.6</ele>
        <time>2012-03-18T11:12:48Z</time>
      </trkpt>
      <trkpt lat="59.8269013999" lon="22.9422909384">
        <ele>18.8</ele>
        <time>2012-03-18T11:12:52Z</time>
      </trkpt>
      <trkpt lat="59.826849516" lon="22.9420923712">
        <ele>19.4</ele>
        <time>2012-03-18T11:12:57Z</time>
      </trkpt>
      <trkpt lat="59.8267768449" lon="22.9418677363">
        <ele>20.2</ele>
        <time>2012-03-18T11:13:03Z</time>
      </trkpt>
      <trkpt lat="59.8267118852" lon="22.9417203825">
        <ele>20.4</ele>
        <time>2012-03-18T11:13:08Z</time>
      </trkpt>
      <trkpt lat="59.8267061016" lon="22.9416870225">
        <ele>20.4</ele>
        <time>2012-03-18T11:13:09Z</time>
      </trkpt>
      <trkpt lat="59.8266538824" lon="22.9414855217">
        <ele>20.6</ele>
        <time>2012-03-18T11:13:14Z</time>
      </trkpt>
      <trkpt lat="59.826583223" lon="22.941173715">
        <ele>20.8</ele>
        <time>2012-03-18T11:13:21Z</time>
      </trkpt>
      <trkpt lat="59.8265759307" lon="22.9411471444">
        <ele>20.8</ele>
        <time>2012-03-18T11:13:22Z</time>
      </trkpt>
      <trkpt lat="59.8264325164" lon="22.9411670095">
        <ele>20.8</ele>
        <time>2012-03-18T11:13:27Z</time>
      </trkpt>
      <trkpt lat="59.8262922872" lon="22.9412603838">
        <ele>20.8</ele>
        <time>2012-03-18T11:13:33Z</time>
      </trkpt>
      <trkpt lat="59.8261741863" lon="22.94131495">
        <ele>21</ele>
        <time>2012-03-18T11:13:38Z</time>
      </trkpt>
      <trkpt lat="59.8260176962" lon="22.9414434445">
        <ele>21</ele>
        <time>2012-03-18T11:13:45Z</time>
      </trkpt>
      <trkpt lat="59.8259118328" lon="22.9415226535">
        <ele>21</ele>
        <time>2012-03-18T11:13:49Z</time>
      </trkpt>
      <trkpt lat="59.8258503935" lon="22.9415416804">
        <ele>21</ele>
        <time>2012-03-18T11:13:52Z</time>
      </trkpt>
      <trkpt lat="59.8257608748" lon="22.9414149461">
        <ele>20.2</ele>
        <time>2012-03-18T11:13:57Z</time>
      </trkpt>
      <trkpt lat="59.8257374893" lon="22.9412846075">
        <ele>19.8</ele>
        <time>2012-03-18T11:14:00Z</time>
      </trkpt>
      <trkpt lat="59.8257094937" lon="22.9410344916">
        <ele>19.2</ele>
        <time>2012-03-18T11:14:05Z</time>
      </trkpt>
      <trkpt lat="59.8256795704" lon="22.9407704618">
        <ele>18.2</ele>
        <time>2012-03-18T11:14:10Z</time>
      </trkpt>
      <trkpt lat="59.8256429414" lon="22.940549012">
        <ele>17.8</ele>
        <time>2012-03-18T11:14:14Z</time>
      </trkpt>
      <trkpt lat="59.8256063125" lon="22.9403571503">
        <ele>17.4</ele>
        <time>2012-03-18T11:14:18Z</time>
      </trkpt>
      <trkpt lat="59.8255645707" lon="22.9401552303">
        <ele>17.2</ele>
        <time>2012-03-18T11:14:22Z</time>
      </trkpt>
      <trkpt lat="59.8255317975" lon="22.9399490356">
        <ele>17</ele>
        <time>2012-03-18T11:14:26Z</time>
      </trkpt>
      <trkpt lat="59.825498186" lon="22.939756168">
        <ele>16.4</ele>
        <time>2012-03-18T11:14:30Z</time>
      </trkpt>
      <trkpt lat="59.8254637364" lon="22.939488534">
        <ele>15.8</ele>
        <time>2012-03-18T11:14:35Z</time>
      </trkpt>
      <trkpt lat="59.8254145347" lon="22.9392499013">
        <ele>15.2</ele>
        <time>2012-03-18T11:14:40Z</time>
      </trkpt>
      <trkpt lat="59.8253621478" lon="22.9390006236">
        <ele>15</ele>
        <time>2012-03-18T11:14:45Z</time>
      </trkpt>
      <trkpt lat="59.8252671809" lon="22.9387782518">
        <ele>14.8</ele>
        <time>2012-03-18T11:14:50Z</time>
      </trkpt>
      <trkpt lat="59.8252451365" lon="22.9387685288">
        <ele>14.8</ele>
        <time>2012-03-18T11:14:51Z</time>
      </trkpt>
      <trkpt lat="59.8250976989" lon="22.9388094324">
        <ele>14.8</ele>
        <time>2012-03-18T11:14:57Z</time>
      </trkpt>
      <trkpt lat="59.8249521891" lon="22.9387639187">
        <ele>14.6</ele>
        <time>2012-03-18T11:15:02Z</time>
      </trkpt>
      <trkpt lat="59.8248097806" lon="22.938688314">
        <ele>14.6</ele>
        <time>2012-03-18T11:15:07Z</time>
      </trkpt>
      <trkpt lat="59.8246696352" lon="22.9385827859">
        <ele>14.6</ele>
        <time>2012-03-18T11:15:13Z</time>
      </trkpt>
      <trkpt lat="59.824556731" lon="22.9384966199">
        <ele>14.6</ele>
        <time>2012-03-18T11:15:18Z</time>
      </trkpt>
      <trkpt lat="59.8243846506" lon="22.9383962886">
        <ele>14.6</ele>
        <time>2012-03-18T11:15:25Z</time>
      </trkpt>
      <trkpt lat="59.82433679" lon="22.9383732384">
        <ele>14.6</ele>
        <time>2012-03-18T11:15:27Z</time>
      </trkpt>
      <trkpt lat="59.8242764403" lon="22.9382632678">
        <ele>14.6</ele>
        <time>2012-03-18T11:15:31Z</time>
      </trkpt>
      <trkpt lat="59.8242479418" lon="22.9382794449">
        <ele>14.6</ele>
        <time>2012-03-18T11:15:33Z</time>
      </trkpt>
      <trkpt lat="59.8241730915" lon="22.938268297">
        <ele>14.6</ele>
        <time>2012-03-18T11:15:36Z</time>
      </trkpt>
      <trkpt lat="59.8240733469" lon="22.9381862382">
        <ele>14.6</ele>
        <time>2012-03-18T11:15:40Z</time>
      </trkpt>
      <trkpt lat="59.8240235584" lon="22.9381411436">
        <ele>14.6</ele>
        <time>2012-03-18T11:15:42Z</time>
      </trkpt>
      <trkpt lat="59.8238644699" lon="22.9380701489">
        <ele>14.6</ele>
        <time>2012-03-18T11:15:48Z</time>
      </trkpt>
      <trkpt lat="59.8238560042" lon="22.9380827217">
        <ele>14.6</ele>
        <time>2012-03-18T11:15:49Z</time>
      </trkpt>
      <trkpt lat="59.8239006797" lon="22.9380588333">
        <ele>14.6</ele>
        <time>2012-03-18T11:15:52Z</time>
      </trkpt>
      <trkpt lat="59.8239388174" lon="22.9379152513">
        <ele>14.6</ele>
        <time>2012-03-18T11:15:57Z</time>
      </trkpt>
      <trkpt lat="59.8239394041" lon="22.9377977371">
        <ele>14.6</ele>
        <time>2012-03-18T11:16:00Z</time>
      </trkpt>
      <trkpt lat="59.8239878515" lon="22.9373931428">
        <ele>13.6</ele>
        <time>2012-03-18T11:16:07Z</time>
      </trkpt>
      <trkpt lat="59.8240069622" lon="22.9370986866">
        <ele>12.6</ele>
        <time>2012-03-18T11:16:13Z</time>
      </trkpt>
      <trkpt lat="59.8239901984" lon="22.9368528455">
        <ele>11.8</ele>
        <time>2012-03-18T11:16:18Z</time>
      </trkpt>
      <trkpt lat="59.8239850016" lon="22.9364919209">
        <ele>11</ele>
        <time>2012-03-18T11:16:25Z</time>
      </trkpt>
      <trkpt lat="59.8239880191" lon="22.9361698883">
        <ele>10.8</ele>
        <time>2012-03-18T11:16:32Z</time>
      </trkpt>
      <trkpt lat="59.8239882706" lon="22.9358911901">
        <ele>10.6</ele>
        <time>2012-03-18T11:16:38Z</time>
      </trkpt>
      <trkpt lat="59.82398299" lon="22.93561157">
        <ele>10</ele>
        <time>2012-03-18T11:16:44Z</time>
      </trkpt>
      <trkpt lat="59.8239782961" lon="22.9353714285">
        <ele>9.4</ele>
        <time>2012-03-18T11:16:49Z</time>
      </trkpt>
      <trkpt lat="59.8239842473" lon="22.9351393337">
        <ele>9</ele>
        <time>2012-03-18T11:16:54Z</time>
      </trkpt>
      <trkpt lat="59.8239929644" lon="22.9349127709">
        <ele>8.8</ele>
        <time>2012-03-18T11:16:59Z</time>
      </trkpt>
      <trkpt lat="59.8240094768" lon="22.9346852024">
        <ele>8.6</ele>
        <time>2012-03-18T11:17:04Z</time>
      </trkpt>
      <trkpt lat="59.8240269949" lon="22.9344066718">
        <ele>8.6</ele>
        <time>2012-03-18T11:17:10Z</time>
      </trkpt>
      <trkpt lat="59.8240316888" lon="22.9343595655">
        <ele>8.6</ele>
        <time>2012-03-18T11:17:11Z</time>
      </trkpt>
      <trkpt lat="59.824054739" lon="22.9341291471">
        <ele>8.4</ele>
        <time>2012-03-18T11:17:16Z</time>
      </trkpt>
      <trkpt lat="59.8239984127" lon="22.9339237067">
        <ele>8.4</ele>
        <time>2012-03-18T11:17:21Z</time>
      </trkpt>
      <trkpt lat="59.8239930483" lon="22.9336108942">
        <ele>8.4</ele>
        <time>2012-03-18T11:17:27Z</time>
      </trkpt>
      <trkpt lat="59.8240261568" lon="22.9333476188">
        <ele>8.4</ele>
        <time>2012-03-18T11:17:33Z</time>
      </trkpt>
      <trkpt lat="59.8240430882" lon="22.9331321201">
        <ele>8.4</ele>
        <time>2012-03-18T11:17:38Z</time>
      </trkpt>
      <trkpt lat="59.8240532303" lon="22.9329085748">
        <ele>8.4</ele>
        <time>2012-03-18T11:17:44Z</time>
      </trkpt>
      <trkpt lat="59.8240527274" lon="22.9328815851">
        <ele>8.4</ele>
        <time>2012-03-18T11:17:45Z</time>
      </trkpt>
      <trkpt lat="59.8240522245" lon="22.9327154559">
        <ele>8.4</ele>
        <time>2012-03-18T11:17:51Z</time>
      </trkpt>
      <trkpt lat="59.8240569183" lon="22.9326124423">
        <ele>8.4</ele>
        <time>2012-03-18T11:17:56Z</time>
      </trkpt>
      <trkpt lat="59.8240726763" lon="22.9325308864">
        <ele>8.4</ele>
        <time>2012-03-18T11:18:00Z</time>
      </trkpt>
      <trkpt lat="59.8240730954" lon="22.9325059084">
        <ele>8.4</ele>
        <time>2012-03-18T11:18:02Z</time>
      </trkpt>
      <trkpt lat="59.8241000013" lon="22.9323812695">
        <ele>8.6</ele>
        <time>2012-03-18T11:18:09Z</time>
      </trkpt>
      <trkpt lat="59.8241196988" lon="22.9322857159">
        <ele>9.4</ele>
        <time>2012-03-18T11:18:13Z</time>
      </trkpt>
      <trkpt lat="59.8242421583" lon="22.932058734">
        <ele>10.6</ele>
        <time>2012-03-18T11:18:23Z</time>
      </trkpt>
      <trkpt lat="59.8242533062" lon="22.9319644376">
        <ele>11.2</ele>
        <time>2012-03-18T11:18:27Z</time>
      </trkpt>
      <trkpt lat="59.8242672202" lon="22.931920265">
        <ele>11.6</ele>
        <time>2012-03-18T11:18:29Z</time>
      </trkpt>
      <trkpt lat="59.8242782843" lon="22.9318693031">
        <ele>11.8</ele>
        <time>2012-03-18T11:18:31Z</time>
      </trkpt>
      <trkpt lat="59.8243296654" lon="22.9317267269">
        <ele>12.2</ele>
        <time>2012-03-18T11:18:36Z</time>
      </trkpt>
      <trkpt lat="59.8243143265" lon="22.9316121464">
        <ele>12.4</ele>
        <time>2012-03-18T11:18:41Z</time>
      </trkpt>
      <trkpt lat="59.8242797092" lon="22.9314593443">
        <ele>12.6</ele>
        <time>2012-03-18T11:18:45Z</time>
      </trkpt>
      <trkpt lat="59.8242473551" lon="22.9314191112">
        <ele>12.6</ele>
        <time>2012-03-18T11:18:46Z</time>
      </trkpt>
      <trkpt lat="59.8241452636" lon="22.9312552451">
        <ele>11.8</ele>
        <time>2012-03-18T11:18:50Z</time>
      </trkpt>
      <trkpt lat="59.8241258175" lon="22.9312307699">
        <ele>11.8</ele>
        <time>2012-03-18T11:18:51Z</time>
      </trkpt>
      <trkpt lat="59.8240816449" lon="22.9309989266">
        <ele>11.4</ele>
        <time>2012-03-18T11:18:56Z</time>
      </trkpt>
      <trkpt lat="59.8240269111" lon="22.9307141096">
        <ele>11</ele>
        <time>2012-03-18T11:19:02Z</time>
      </trkpt>
      <trkpt lat="59.8239719259" lon="22.9304280354">
        <ele>10.8</ele>
        <time>2012-03-18T11:19:08Z</time>
      </trkpt>
      <trkpt lat="59.8239502167" lon="22.930240197">
        <ele>10.8</ele>
        <time>2012-03-18T11:19:12Z</time>
      </trkpt>
      <trkpt lat="59.823935297" lon="22.9299952779">
        <ele>10.8</ele>
        <time>2012-03-18T11:19:17Z</time>
      </trkpt>
      <trkpt lat="59.8239310222" lon="22.9298162405">
        <ele>10.8</ele>
        <time>2012-03-18T11:19:21Z</time>
      </trkpt>
      <trkpt lat="59.8238614524" lon="22.9294795396">
        <ele>10.8</ele>
        <time>2012-03-18T11:19:28Z</time>
      </trkpt>
      <trkpt lat="59.8238283439" lon="22.9292797151">
        <ele>10.6</ele>
        <time>2012-03-18T11:19:32Z</time>
      </trkpt>
      <trkpt lat="59.823756511" lon="22.9289691657">
        <ele>10.6</ele>
        <time>2012-03-18T11:19:39Z</time>
      </trkpt>
      <trkpt lat="59.8237103268" lon="22.9287332152">
        <ele>10.6</ele>
        <time>2012-03-18T11:19:44Z</time>
      </trkpt>
      <trkpt lat="59.8236695907" lon="22.9284959236">
        <ele>10.6</ele>
        <time>2012-03-18T11:19:49Z</time>
      </trkpt>
      <trkpt lat="59.8236352249" lon="22.9282548601">
        <ele>10.6</ele>
        <time>2012-03-18T11:19:54Z</time>
      </trkpt>
      <trkpt lat="59.8235900465" lon="22.9280164789">
        <ele>10.6</ele>
        <time>2012-03-18T11:19:59Z</time>
      </trkpt>
      <trkpt lat="59.8235287748" lon="22.9277332545">
        <ele>10.6</ele>
        <time>2012-03-18T11:20:05Z</time>
      </trkpt>
      <trkpt lat="59.823461552" lon="22.9274773551">
        <ele>10.6</ele>
        <time>2012-03-18T11:20:11Z</time>
      </trkpt>
      <trkpt lat="59.8233938262" lon="22.927216678">
        <ele>10.6</ele>
        <time>2012-03-18T11:20:17Z</time>
      </trkpt>
      <trkpt lat="59.8233454627" lon="22.9270033587">
        <ele>10.6</ele>
        <time>2012-03-18T11:20:22Z</time>
      </trkpt>
      <trkpt lat="59.8233011224" lon="22.9268459466">
        <ele>10.6</ele>
        <time>2012-03-18T11:20:26Z</time>
      </trkpt>
      <trkpt lat="59.8231966001" lon="22.9265126822">
        <ele>10.6</ele>
        <time>2012-03-18T11:20:34Z</time>
      </trkpt>
      <trkpt lat="59.8231074167" lon="22.9262609738">
        <ele>10.6</ele>
        <time>2012-03-18T11:20:40Z</time>
      </trkpt>
      <trkpt lat="59.8230259446" lon="22.9260518454">
        <ele>10.6</ele>
        <time>2012-03-18T11:20:46Z</time>
      </trkpt>
      <trkpt lat="59.8229536927" lon="22.9258531105">
        <ele>10.6</ele>
        <time>2012-03-18T11:20:51Z</time>
      </trkpt>
      <trkpt lat="59.8229004676" lon="22.9256793537">
        <ele>10.6</ele>
        <time>2012-03-18T11:20:55Z</time>
      </trkpt>
      <trkpt lat="59.8228163971" lon="22.925441643">
        <ele>10.6</ele>
        <time>2012-03-18T11:21:01Z</time>
      </trkpt>
      <trkpt lat="59.8227143056" lon="22.925161017">
        <ele>11.4</ele>
        <time>2012-03-18T11:21:08Z</time>
      </trkpt>
      <trkpt lat="59.822633085" lon="22.924924396">
        <ele>12</ele>
        <time>2012-03-18T11:21:14Z</time>
      </trkpt>
      <trkpt lat="59.8225584022" lon="22.9247225598">
        <ele>12.2</ele>
        <time>2012-03-18T11:21:19Z</time>
      </trkpt>
      <trkpt lat="59.8224656146" lon="22.9244667443">
        <ele>12.6</ele>
        <time>2012-03-18T11:21:26Z</time>
      </trkpt>
      <trkpt lat="59.8223942846" lon="22.9242870363">
        <ele>12.6</ele>
        <time>2012-03-18T11:21:31Z</time>
      </trkpt>
      <trkpt lat="59.8223149081" lon="22.9241023831">
        <ele>12.6</ele>
        <time>2012-03-18T11:21:36Z</time>
      </trkpt>
      <trkpt lat="59.8221928676" lon="22.9238395267">
        <ele>13</ele>
        <time>2012-03-18T11:21:43Z</time>
      </trkpt>
      <trkpt lat="59.8221113955" lon="22.9236556278">
        <ele>13.8</ele>
        <time>2012-03-18T11:21:48Z</time>
      </trkpt>
      <trkpt lat="59.8220301749" lon="22.9234277239">
        <ele>14.2</ele>
        <time>2012-03-18T11:21:54Z</time>
      </trkpt>
      <trkpt lat="59.8219674783" lon="22.9232126444">
        <ele>14.4</ele>
        <time>2012-03-18T11:21:59Z</time>
      </trkpt>
      <trkpt lat="59.8218998364" lon="22.92306001">
        <ele>14.6</ele>
        <time>2012-03-18T11:22:03Z</time>
      </trkpt>
      <trkpt lat="59.8218081384" lon="22.9229463514">
        <ele>14.6</ele>
        <time>2012-03-18T11:22:08Z</time>
      </trkpt>
      <trkpt lat="59.8217287618" lon="22.9227933817">
        <ele>14.6</ele>
        <time>2012-03-18T11:22:12Z</time>
      </trkpt>
      <trkpt lat="59.8216775484" lon="22.9226231454">
        <ele>14.6</ele>
        <time>2012-03-18T11:22:16Z</time>
      </trkpt>
      <trkpt lat="59.8215824138" lon="22.9224940641">
        <ele>14.8</ele>
        <time>2012-03-18T11:22:21Z</time>
      </trkpt>
      <trkpt lat="59.8214422684" lon="22.9222495641">
        <ele>14.8</ele>
        <time>2012-03-18T11:22:29Z</time>
      </trkpt>
      <trkpt lat="59.8213058949" lon="22.9220059022">
        <ele>14.8</ele>
        <time>2012-03-18T11:22:36Z</time>
      </trkpt>
      <trkpt lat="59.8211639055" lon="22.9217275393">
        <ele>14.8</ele>
        <time>2012-03-18T11:22:44Z</time>
      </trkpt>
      <trkpt lat="59.8210659211" lon="22.9215687861">
        <ele>14.8</ele>
        <time>2012-03-18T11:22:49Z</time>
      </trkpt>
      <trkpt lat="59.820982186" lon="22.921398885">
        <ele>14.8</ele>
        <time>2012-03-18T11:22:54Z</time>
      </trkpt>
      <trkpt lat="59.8208852074" lon="22.9212496034">
        <ele>14.8</ele>
        <time>2012-03-18T11:22:59Z</time>
      </trkpt>
      <trkpt lat="59.8207966107" lon="22.9210938677">
        <ele>14.8</ele>
        <time>2012-03-18T11:23:04Z</time>
      </trkpt>
      <trkpt lat="59.8207148033" lon="22.9209705699">
        <ele>14.8</ele>
        <time>2012-03-18T11:23:08Z</time>
      </trkpt>
      <trkpt lat="59.8206342533" lon="22.9208085478">
        <ele>14.8</ele>
        <time>2012-03-18T11:23:13Z</time>
      </trkpt>
      <trkpt lat="59.820545489" lon="22.920646861">
        <ele>14.8</ele>
        <time>2012-03-18T11:23:18Z</time>
      </trkpt>
      <trkpt lat="59.8205284737" lon="22.9205224736">
        <ele>14.8</ele>
        <time>2012-03-18T11:23:21Z</time>
      </trkpt>
      <trkpt lat="59.8203605004" lon="22.9202814939">
        <ele>14.8</ele>
        <time>2012-03-18T11:23:31Z</time>
      </trkpt>
      <trkpt lat="59.8202622646" lon="22.9201111737">
        <ele>14.8</ele>
        <time>2012-03-18T11:23:37Z</time>
      </trkpt>
      <trkpt lat="59.8201869951" lon="22.9199877922">
        <ele>14.8</ele>
        <time>2012-03-18T11:23:41Z</time>
      </trkpt>
      <trkpt lat="59.8201729973" lon="22.9199407697">
        <ele>14.8</ele>
        <time>2012-03-18T11:23:42Z</time>
      </trkpt>
      <trkpt lat="59.8200739233" lon="22.9197464773">
        <ele>14.8</ele>
        <time>2012-03-18T11:23:48Z</time>
      </trkpt>
      <trkpt lat="59.8200417368" lon="22.9196606466">
        <ele>14.8</ele>
        <time>2012-03-18T11:23:50Z</time>
      </trkpt>
      <trkpt lat="59.8200246377" lon="22.9195111973">
        <ele>14.8</ele>
        <time>2012-03-18T11:23:53Z</time>
      </trkpt>
      <trkpt lat="59.8199416569" lon="22.9194264563">
        <ele>14.8</ele>
        <time>2012-03-18T11:23:57Z</time>
      </trkpt>
      <trkpt lat="59.819877703" lon="22.9193227722">
        <ele>14.8</ele>
        <time>2012-03-18T11:24:01Z</time>
      </trkpt>
      <trkpt lat="59.8198608554" lon="22.9192763365">
        <ele>14.8</ele>
        <time>2012-03-18T11:24:02Z</time>
      </trkpt>
      <trkpt lat="59.8198108992" lon="22.9190804515">
        <ele>14.2</ele>
        <time>2012-03-18T11:24:07Z</time>
      </trkpt>
      <trkpt lat="59.8197642121" lon="22.9189137355">
        <ele>13.6</ele>
        <time>2012-03-18T11:24:12Z</time>
      </trkpt>
      <trkpt lat="59.8197081372" lon="22.9187535574">
        <ele>13.2</ele>
        <time>2012-03-18T11:24:17Z</time>
      </trkpt>
      <trkpt lat="59.8196430936" lon="22.9186636196">
        <ele>13</ele>
        <time>2012-03-18T11:24:21Z</time>
      </trkpt>
      <trkpt lat="59.819538236" lon="22.9184358834">
        <ele>12.8</ele>
        <time>2012-03-18T11:24:28Z</time>
      </trkpt>
      <trkpt lat="59.8194168661" lon="22.9182759567">
        <ele>12.8</ele>
        <time>2012-03-18T11:24:34Z</time>
      </trkpt>
      <trkpt lat="59.8193106675" lon="22.9180944886">
        <ele>12.8</ele>
        <time>2012-03-18T11:24:39Z</time>
      </trkpt>
      <trkpt lat="59.8192296983" lon="22.9180051375">
        <ele>12.8</ele>
        <time>2012-03-18T11:24:43Z</time>
      </trkpt>
      <trkpt lat="59.8191653253" lon="22.9179348134">
        <ele>12.8</ele>
        <time>2012-03-18T11:24:47Z</time>
      </trkpt>
      <trkpt lat="59.8190783212" lon="22.9178458814">
        <ele>12.6</ele>
        <time>2012-03-18T11:24:52Z</time>
      </trkpt>
      <trkpt lat="59.8189913171" lon="22.9177617272">
        <ele>11.8</ele>
        <time>2012-03-18T11:24:56Z</time>
      </trkpt>
      <trkpt lat="59.8188857889" lon="22.9176339032">
        <ele>11.4</ele>
        <time>2012-03-18T11:25:02Z</time>
      </trkpt>
      <trkpt lat="59.8187976952" lon="22.9175172271">
        <ele>11</ele>
        <time>2012-03-18T11:25:07Z</time>
      </trkpt>
      <trkpt lat="59.8187558695" lon="22.9174383535">
        <ele>11</ele>
        <time>2012-03-18T11:25:10Z</time>
      </trkpt>
      <trkpt lat="59.8187404468" lon="22.9174287143">
        <ele>11</ele>
        <time>2012-03-18T11:25:11Z</time>
      </trkpt>
      <trkpt lat="59.8187182348" lon="22.9174182369">
        <ele>11</ele>
        <time>2012-03-18T11:25:12Z</time>
      </trkpt>
      <trkpt lat="59.8186557058" lon="22.9174013893">
        <ele>10.8</ele>
        <time>2012-03-18T11:25:16Z</time>
      </trkpt>
      <trkpt lat="59.8185709648" lon="22.9172083541">
        <ele>10.8</ele>
        <time>2012-03-18T11:25:21Z</time>
      </trkpt>
      <trkpt lat="59.8184485052" lon="22.9170452424">
        <ele>10.8</ele>
        <time>2012-03-18T11:25:26Z</time>
      </trkpt>
      <trkpt lat="59.8184065119" lon="22.9169841383">
        <ele>10.8</ele>
        <time>2012-03-18T11:25:28Z</time>
      </trkpt>
      <trkpt lat="59.8183543765" lon="22.9169177537">
        <ele>10.8</ele>
        <time>2012-03-18T11:25:31Z</time>
      </trkpt>
      <trkpt lat="59.8182164104" lon="22.9167841462">
        <ele>10.6</ele>
        <time>2012-03-18T11:25:37Z</time>
      </trkpt>
      <trkpt lat="59.8181066075" lon="22.9166249739">
        <ele>10.4</ele>
        <time>2012-03-18T11:25:43Z</time>
      </trkpt>
      <trkpt lat="59.8180042645" lon="22.9165289173">
        <ele>9.6</ele>
        <time>2012-03-18T11:25:48Z</time>
      </trkpt>
      <trkpt lat="59.8178837328" lon="22.9164133309">
        <ele>9.2</ele>
        <time>2012-03-18T11:25:53Z</time>
      </trkpt>
      <trkpt lat="59.8177482813" lon="22.9163006782">
        <ele>9</ele>
        <time>2012-03-18T11:25:59Z</time>
      </trkpt>
      <trkpt lat="59.8176337845" lon="22.9162110757">
        <ele>8.8</ele>
        <time>2012-03-18T11:26:04Z</time>
      </trkpt>
      <trkpt lat="59.8175153483" lon="22.9160764624">
        <ele>8.8</ele>
        <time>2012-03-18T11:26:10Z</time>
      </trkpt>
      <trkpt lat="59.8174116642" lon="22.9159763825">
        <ele>8.8</ele>
        <time>2012-03-18T11:26:15Z</time>
      </trkpt>
      <trkpt lat="59.8171535017" lon="22.9157494006">
        <ele>7.2</ele>
        <time>2012-03-18T11:26:27Z</time>
      </trkpt>
      <trkpt lat="59.8171161184" lon="22.9157079102">
        <ele>7.2</ele>
        <time>2012-03-18T11:26:29Z</time>
      </trkpt>
      <trkpt lat="59.8169956705" lon="22.915573716">
        <ele>7</ele>
        <time>2012-03-18T11:26:34Z</time>
      </trkpt>
      <trkpt lat="59.8169715306" lon="22.9155479836">
        <ele>6.8</ele>
        <time>2012-03-18T11:26:35Z</time>
      </trkpt>
      <trkpt lat="59.8168095085" lon="22.9153571277">
        <ele>6.8</ele>
        <time>2012-03-18T11:26:43Z</time>
      </trkpt>
      <trkpt lat="59.8167369212" lon="22.9152785893">
        <ele>6.8</ele>
        <time>2012-03-18T11:26:47Z</time>
      </trkpt>
      <trkpt lat="59.8166321475" lon="22.9151673615">
        <ele>6.6</ele>
        <time>2012-03-18T11:26:52Z</time>
      </trkpt>
      <trkpt lat="59.8165347498" lon="22.915078681">
        <ele>6.6</ele>
        <time>2012-03-18T11:26:56Z</time>
      </trkpt>
      <trkpt lat="59.8164399505" lon="22.9149638489">
        <ele>6.6</ele>
        <time>2012-03-18T11:27:01Z</time>
      </trkpt>
      <trkpt lat="59.816304499" lon="22.9148246256">
        <ele>6.6</ele>
        <time>2012-03-18T11:27:07Z</time>
      </trkpt>
      <trkpt lat="59.8161852246" lon="22.9147283176">
        <ele>6.6</ele>
        <time>2012-03-18T11:27:12Z</time>
      </trkpt>
      <trkpt lat="59.8160578197" lon="22.9145646191">
        <ele>6.6</ele>
        <time>2012-03-18T11:27:18Z</time>
      </trkpt>
      <trkpt lat="59.81600954" lon="22.9144583366">
        <ele>6.6</ele>
        <time>2012-03-18T11:27:21Z</time>
      </trkpt>
      <trkpt lat="59.8160102943" lon="22.9142660558">
        <ele>6.6</ele>
        <time>2012-03-18T11:27:26Z</time>
      </trkpt>
      <trkpt lat="59.8160124736" lon="22.9141855057">
        <ele>6.6</ele>
        <time>2012-03-18T11:27:28Z</time>
      </trkpt>
      <trkpt lat="59.8159989788" lon="22.9141081408">
        <ele>6.6</ele>
        <time>2012-03-18T11:27:31Z</time>
      </trkpt>
      <trkpt lat="59.816092856" lon="22.9140810672">
        <ele>6.6</ele>
        <time>2012-03-18T11:27:36Z</time>
      </trkpt>
      <trkpt lat="59.8162266312" lon="22.9139884472">
        <ele>6.6</ele>
        <time>2012-03-18T11:27:43Z</time>
      </trkpt>
      <trkpt lat="59.8163203408" lon="22.9139807359">
        <ele>6.6</ele>
        <time>2012-03-18T11:27:48Z</time>
      </trkpt>
      <trkpt lat="59.8163603225" lon="22.9140354697">
        <ele>6.6</ele>
        <time>2012-03-18T11:27:51Z</time>
      </trkpt>
      <trkpt lat="59.8164219294" lon="22.9140375652">
        <ele>6.6</ele>
        <time>2012-03-18T11:27:54Z</time>
      </trkpt>
      <trkpt lat="59.8164960254" lon="22.9139381558">
        <ele>6.6</ele>
        <time>2012-03-18T11:28:00Z</time>
      </trkpt>
      <trkpt lat="59.8165500887" lon="22.9138731123">
        <ele>6.6</ele>
        <time>2012-03-18T11:28:05Z</time>
      </trkpt>
      <trkpt lat="59.8166001286" lon="22.9137668298">
        <ele>6.6</ele>
        <time>2012-03-18T11:28:09Z</time>
      </trkpt>
      <trkpt lat="59.8166390206" lon="22.9136923985">
        <ele>6.6</ele>
        <time>2012-03-18T11:28:13Z</time>
      </trkpt>
      <trkpt lat="59.8166409485" lon="22.9136323003">
        <ele>6.6</ele>
        <time>2012-03-18T11:28:15Z</time>
      </trkpt>
      <trkpt lat="59.8166666809" lon="22.9135659157">
        <ele>6.6</ele>
        <time>2012-03-18T11:28:17Z</time>
      </trkpt>
      <trkpt lat="59.8167601391" lon="22.9135294544">
        <ele>6.6</ele>
        <time>2012-03-18T11:28:22Z</time>
      </trkpt>
      <trkpt lat="59.8167966004" lon="22.9135382554">
        <ele>6.6</ele>
        <time>2012-03-18T11:28:24Z</time>
      </trkpt>
      <trkpt lat="59.8168209079" lon="22.9135425302">
        <ele>6.6</ele>
        <time>2012-03-18T11:28:25Z</time>
      </trkpt>
      <trkpt lat="59.8169667529" lon="22.9135142832">
        <ele>6.6</ele>
        <time>2012-03-18T11:28:32Z</time>
      </trkpt>
      <trkpt lat="59.8170514101" lon="22.9134649138">
        <ele>6.6</ele>
        <time>2012-03-18T11:28:37Z</time>
      </trkpt>
      <trkpt lat="59.8170850215" lon="22.9134381755">
        <ele>6.6</ele>
        <time>2012-03-18T11:28:42Z</time>
      </trkpt>
      <trkpt lat="59.8170924814" lon="22.9134335655">
        <ele>6.6</ele>
        <time>2012-03-18T11:28:45Z</time>
      </trkpt>
      <trkpt lat="59.817104719" lon="22.9132864631">
        <ele>6.6</ele>
        <time>2012-03-18T11:28:50Z</time>
      </trkpt>
      <trkpt lat="59.8171288589" lon="22.9131787557">
        <ele>6.6</ele>
        <time>2012-03-18T11:28:56Z</time>
      </trkpt>
      <trkpt lat="59.8171570221" lon="22.913100804">
        <ele>6.6</ele>
        <time>2012-03-18T11:29:01Z</time>
      </trkpt>
      <trkpt lat="59.8171641467" lon="22.9130746525">
        <ele>7</ele>
        <time>2012-03-18T11:29:03Z</time>
      </trkpt>
      <trkpt lat="59.8172069782" lon="22.912966526">
        <ele>8</ele>
        <time>2012-03-18T11:29:12Z</time>
      </trkpt>
      <trkpt lat="59.8172301122" lon="22.912902153">
        <ele>8.2</ele>
        <time>2012-03-18T11:29:17Z</time>
      </trkpt>
      <trkpt lat="59.8172520728" lon="22.9127804478">
        <ele>8.4</ele>
        <time>2012-03-18T11:29:24Z</time>
      </trkpt>
      <trkpt lat="59.8173155238" lon="22.912700233">
        <ele>8.6</ele>
        <time>2012-03-18T11:29:32Z</time>
      </trkpt>
      <trkpt lat="59.8173733589" lon="22.9126714831">
        <ele>8.6</ele>
        <time>2012-03-18T11:29:37Z</time>
      </trkpt>
      <trkpt lat="59.8173903742" lon="22.9126595808">
        <ele>8.6</ele>
        <time>2012-03-18T11:29:39Z</time>
      </trkpt>
      <trkpt lat="59.8174161066" lon="22.9125353611">
        <ele>9.4</ele>
        <time>2012-03-18T11:29:45Z</time>
      </trkpt>
      <trkpt lat="59.8174628776" lon="22.9124780289">
        <ele>10</ele>
        <time>2012-03-18T11:29:49Z</time>
      </trkpt>
      <trkpt lat="59.817508559" lon="22.9124772745">
        <ele>10</ele>
        <time>2012-03-18T11:29:51Z</time>
      </trkpt>
      <trkpt lat="59.8176247321" lon="22.9125486045">
        <ele>10.4</ele>
        <time>2012-03-18T11:29:57Z</time>
      </trkpt>
      <trkpt lat="59.817715089" lon="22.9126614248">
        <ele>10.6</ele>
        <time>2012-03-18T11:30:02Z</time>
      </trkpt>
      <trkpt lat="59.8177492871" lon="22.9127039211">
        <ele>10.6</ele>
        <time>2012-03-18T11:30:04Z</time>
      </trkpt>
      <trkpt lat="59.8178444217" lon="22.9128459943">
        <ele>10.6</ele>
        <time>2012-03-18T11:30:09Z</time>
      </trkpt>
      <trkpt lat="59.8178728363" lon="22.9129057572">
        <ele>10.6</ele>
        <time>2012-03-18T11:30:11Z</time>
      </trkpt>
      <trkpt lat="59.8179853214" lon="22.9130433042">
        <ele>10.8</ele>
        <time>2012-03-18T11:30:17Z</time>
      </trkpt>
      <trkpt lat="59.8180708168" lon="22.9131771631">
        <ele>11.2</ele>
        <time>2012-03-18T11:30:22Z</time>
      </trkpt>
      <trkpt lat="59.8182053463" lon="22.9133618164">
        <ele>12.2</ele>
        <time>2012-03-18T11:30:30Z</time>
      </trkpt>
      <trkpt lat="59.818220769" lon="22.9133754789">
        <ele>12.2</ele>
        <time>2012-03-18T11:30:31Z</time>
      </trkpt>
      <trkpt lat="59.8183153168" lon="22.9135064042">
        <ele>12.4</ele>
        <time>2012-03-18T11:30:37Z</time>
      </trkpt>
      <trkpt lat="59.818409697" lon="22.9136345634">
        <ele>12.6</ele>
        <time>2012-03-18T11:30:42Z</time>
      </trkpt>
      <trkpt lat="59.8185122077" lon="22.9137906344">
        <ele>12.6</ele>
        <time>2012-03-18T11:30:47Z</time>
      </trkpt>
      <trkpt lat="59.8186257824" lon="22.9139841725">
        <ele>13.2</ele>
        <time>2012-03-18T11:30:53Z</time>
      </trkpt>
      <trkpt lat="59.8186945978" lon="22.914088611">
        <ele>13.8</ele>
        <time>2012-03-18T11:30:57Z</time>
      </trkpt>
      <trkpt lat="59.818765341" lon="22.9141906187">
        <ele>14.2</ele>
        <time>2012-03-18T11:31:01Z</time>
      </trkpt>
      <trkpt lat="59.8188292111" lon="22.9143013436">
        <ele>14.4</ele>
        <time>2012-03-18T11:31:05Z</time>
      </trkpt>
      <trkpt lat="59.8188812627" lon="22.9144403155">
        <ele>14.6</ele>
        <time>2012-03-18T11:31:09Z</time>
      </trkpt>
      <trkpt lat="59.8188940032" lon="22.9144684787">
        <ele>14.6</ele>
        <time>2012-03-18T11:31:10Z</time>
      </trkpt>
      <trkpt lat="59.8190152893" lon="22.914610468">
        <ele>14.6</ele>
        <time>2012-03-18T11:31:16Z</time>
      </trkpt>
      <trkpt lat="59.819078405" lon="22.9146531319">
        <ele>14.8</ele>
        <time>2012-03-18T11:31:19Z</time>
      </trkpt>
      <trkpt lat="59.8191928179" lon="22.9148493522">
        <ele>14.8</ele>
        <time>2012-03-18T11:31:26Z</time>
      </trkpt>
      <trkpt lat="59.8192887069" lon="22.9149749131">
        <ele>14.8</ele>
        <time>2012-03-18T11:31:30Z</time>
      </trkpt>
      <trkpt lat="59.8194029522" lon="22.9151284695">
        <ele>14.8</ele>
        <time>2012-03-18T11:31:36Z</time>
      </trkpt>
      <trkpt lat="59.819494734" lon="22.9152927547">
        <ele>15.6</ele>
        <time>2012-03-18T11:31:41Z</time>
      </trkpt>
      <trkpt lat="59.8195795588" lon="22.9154746419">
        <ele>16.2</ele>
        <time>2012-03-18T11:31:47Z</time>
      </trkpt>
      <trkpt lat="59.8195923831" lon="22.915488053">
        <ele>16.4</ele>
        <time>2012-03-18T11:31:48Z</time>
      </trkpt>
      <trkpt lat="59.8196498829" lon="22.915605651">
        <ele>16.6</ele>
        <time>2012-03-18T11:31:52Z</time>
      </trkpt>
      <trkpt lat="59.8197181954" lon="22.9157700201">
        <ele>16.8</ele>
        <time>2012-03-18T11:31:57Z</time>
      </trkpt>
      <trkpt lat="59.8197385635" lon="22.9158023742">
        <ele>16.8</ele>
        <time>2012-03-18T11:31:58Z</time>
      </trkpt>
      <trkpt lat="59.8198611068" lon="22.9160361454">
        <ele>16.8</ele>
        <time>2012-03-18T11:32:05Z</time>
      </trkpt>
      <trkpt lat="59.8199283297" lon="22.9162256602">
        <ele>16.8</ele>
        <time>2012-03-18T11:32:10Z</time>
      </trkpt>
      <trkpt lat="59.8200141603" lon="22.9164334475">
        <ele>17</ele>
        <time>2012-03-18T11:32:15Z</time>
      </trkpt>
      <trkpt lat="59.820152294" lon="22.9167616827">
        <ele>17</ele>
        <time>2012-03-18T11:32:25Z</time>
      </trkpt>
      <trkpt lat="59.8201646154" lon="22.9167906841">
        <ele>17</ele>
        <time>2012-03-18T11:32:26Z</time>
      </trkpt>
      <trkpt lat="59.8201993165" lon="22.9168763471">
        <ele>17</ele>
        <time>2012-03-18T11:32:30Z</time>
      </trkpt>
      <trkpt lat="59.8202353587" lon="22.9170078591">
        <ele>17</ele>
        <time>2012-03-18T11:32:35Z</time>
      </trkpt>
      <trkpt lat="59.8202474286" lon="22.9170265507">
        <ele>17</ele>
        <time>2012-03-18T11:32:36Z</time>
      </trkpt>
      <trkpt lat="59.8203474247" lon="22.9171402093">
        <ele>17</ele>
        <time>2012-03-18T11:32:41Z</time>
      </trkpt>
      <trkpt lat="59.8203847241" lon="22.917246408">
        <ele>17</ele>
        <time>2012-03-18T11:32:44Z</time>
      </trkpt>
      <trkpt lat="59.8204777632" lon="22.9174387726">
        <ele>17</ele>
        <time>2012-03-18T11:32:50Z</time>
      </trkpt>
      <trkpt lat="59.8205551281" lon="22.9176219171">
        <ele>17</ele>
        <time>2012-03-18T11:32:56Z</time>
      </trkpt>
      <trkpt lat="59.8205856383" lon="22.9176676823">
        <ele>17</ele>
        <time>2012-03-18T11:32:58Z</time>
      </trkpt>
      <trkpt lat="59.820626039" lon="22.9177314685">
        <ele>17</ele>
        <time>2012-03-18T11:33:01Z</time>
      </trkpt>
      <trkpt lat="59.8206428028" lon="22.9177639065">
        <ele>17</ele>
        <time>2012-03-18T11:33:02Z</time>
      </trkpt>
      <trkpt lat="59.8207548688" lon="22.9179568578">
        <ele>17</ele>
        <time>2012-03-18T11:33:07Z</time>
      </trkpt>
      <trkpt lat="59.820828881" lon="22.9181301955">
        <ele>17</ele>
        <time>2012-03-18T11:33:12Z</time>
      </trkpt>
      <trkpt lat="59.8208880572" lon="22.9182800639">
        <ele>17</ele>
        <time>2012-03-18T11:33:16Z</time>
      </trkpt>
      <trkpt lat="59.8209255243" lon="22.9183541599">
        <ele>17</ele>
        <time>2012-03-18T11:33:18Z</time>
      </trkpt>
      <trkpt lat="59.8210382609" lon="22.9185751906">
        <ele>17</ele>
        <time>2012-03-18T11:33:24Z</time>
      </trkpt>
      <trkpt lat="59.8211681803" lon="22.9188029268">
        <ele>17.6</ele>
        <time>2012-03-18T11:33:31Z</time>
      </trkpt>
      <trkpt lat="59.8212265183" lon="22.9189921901">
        <ele>18.2</ele>
        <time>2012-03-18T11:33:35Z</time>
      </trkpt>
      <trkpt lat="59.8213284422" lon="22.9194028194">
        <ele>19.4</ele>
        <time>2012-03-18T11:33:45Z</time>
      </trkpt>
      <trkpt lat="59.8213434458" lon="22.9194397835">
        <ele>19.6</ele>
        <time>2012-03-18T11:33:46Z</time>
      </trkpt>
      <trkpt lat="59.8213703517" lon="22.9195271229">
        <ele>19.8</ele>
        <time>2012-03-18T11:33:48Z</time>
      </trkpt>
      <trkpt lat="59.8214427714" lon="22.9197870457">
        <ele>20.4</ele>
        <time>2012-03-18T11:33:54Z</time>
      </trkpt>
      <trkpt lat="59.8214586131" lon="22.9198249319">
        <ele>20.6</ele>
        <time>2012-03-18T11:33:55Z</time>
      </trkpt>
      <trkpt lat="59.8215078987" lon="22.9199458827">
        <ele>20.8</ele>
        <time>2012-03-18T11:33:58Z</time>
      </trkpt>
      <trkpt lat="59.8216539952" lon="22.9201881196">
        <ele>21</ele>
        <time>2012-03-18T11:34:06Z</time>
      </trkpt>
      <trkpt lat="59.8217546619" lon="22.9203974156">
        <ele>21</ele>
        <time>2012-03-18T11:34:12Z</time>
      </trkpt>
      <trkpt lat="59.8218640457" lon="22.9205775427">
        <ele>21.2</ele>
        <time>2012-03-18T11:34:18Z</time>
      </trkpt>
      <trkpt lat="59.8219831525" lon="22.92078533">
        <ele>21.2</ele>
        <time>2012-03-18T11:34:25Z</time>
      </trkpt>
      <trkpt lat="59.8220678935" lon="22.9209536385">
        <ele>21.2</ele>
        <time>2012-03-18T11:34:30Z</time>
      </trkpt>
      <trkpt lat="59.8221420733" lon="22.9211253836">
        <ele>21.2</ele>
        <time>2012-03-18T11:34:35Z</time>
      </trkpt>
      <trkpt lat="59.8222361182" lon="22.9213596577">
        <ele>21.2</ele>
        <time>2012-03-18T11:34:41Z</time>
      </trkpt>
      <trkpt lat="59.8223322586" lon="22.9215361806">
        <ele>21.2</ele>
        <time>2012-03-18T11:34:46Z</time>
      </trkpt>
      <trkpt lat="59.8224222802" lon="22.9216857137">
        <ele>21.2</ele>
        <time>2012-03-18T11:34:51Z</time>
      </trkpt>
      <trkpt lat="59.8224489346" lon="22.9217754838">
        <ele>21.2</ele>
        <time>2012-03-18T11:34:54Z</time>
      </trkpt>
      <trkpt lat="59.8224848092" lon="22.9218683553">
        <ele>21.2</ele>
        <time>2012-03-18T11:34:59Z</time>
      </trkpt>
      <trkpt lat="59.8224976335" lon="22.9219544374">
        <ele>21.2</ele>
        <time>2012-03-18T11:35:01Z</time>
      </trkpt>
      <trkpt lat="59.8225704722" lon="22.922245876">
        <ele>21.2</ele>
        <time>2012-03-18T11:35:07Z</time>
      </trkpt>
      <trkpt lat="59.8226043351" lon="22.922463554">
        <ele>21.2</ele>
        <time>2012-03-18T11:35:12Z</time>
      </trkpt>
      <trkpt lat="59.8226176623" lon="22.9224903761">
        <ele>21.2</ele>
        <time>2012-03-18T11:35:13Z</time>
      </trkpt>
      <trkpt lat="59.8226296484" lon="22.9225133425">
        <ele>21.2</ele>
        <time>2012-03-18T11:35:14Z</time>
      </trkpt>
      <trkpt lat="59.8226749107" lon="22.9227306851">
        <ele>21.2</ele>
        <time>2012-03-18T11:35:19Z</time>
      </trkpt>
      <trkpt lat="59.8227480846" lon="22.9229517158">
        <ele>21.2</ele>
        <time>2012-03-18T11:35:26Z</time>
      </trkpt>
      <trkpt lat="59.8228121224" lon="22.9231338545">
        <ele>21.2</ele>
        <time>2012-03-18T11:35:31Z</time>
      </trkpt>
      <trkpt lat="59.8228213425" lon="22.9231840621">
        <ele>21.2</ele>
        <time>2012-03-18T11:35:32Z</time>
      </trkpt>
      <trkpt lat="59.8228596477" lon="22.923301744">
        <ele>21.2</ele>
        <time>2012-03-18T11:35:35Z</time>
      </trkpt>
      <trkpt lat="59.8228645092" lon="22.9233351878">
        <ele>21.2</ele>
        <time>2012-03-18T11:35:36Z</time>
      </trkpt>
      <trkpt lat="59.8229446402" lon="22.9235250378">
        <ele>21.2</ele>
        <time>2012-03-18T11:35:41Z</time>
      </trkpt>
      <trkpt lat="59.8230076721" lon="22.923687479">
        <ele>21.2</ele>
        <time>2012-03-18T11:35:45Z</time>
      </trkpt>
      <trkpt lat="59.8231159662" lon="22.9238813524">
        <ele>21.2</ele>
        <time>2012-03-18T11:35:51Z</time>
      </trkpt>
      <trkpt lat="59.8231664253" lon="22.9240214977">
        <ele>21.2</ele>
        <time>2012-03-18T11:35:55Z</time>
      </trkpt>
      <trkpt lat="59.8232236737" lon="22.9242355715">
        <ele>21.2</ele>
        <time>2012-03-18T11:36:01Z</time>
      </trkpt>
      <trkpt lat="59.8232520045" lon="22.9243030457">
        <ele>20.6</ele>
        <time>2012-03-18T11:36:04Z</time>
      </trkpt>
      <trkpt lat="59.8232877114" lon="22.9244633915">
        <ele>20</ele>
        <time>2012-03-18T11:36:10Z</time>
      </trkpt>
      <trkpt lat="59.8233191435" lon="22.9245364817">
        <ele>19.8</ele>
        <time>2012-03-18T11:36:12Z</time>
      </trkpt>
      <trkpt lat="59.8234152839" lon="22.9247578476">
        <ele>19.4</ele>
        <time>2012-03-18T11:36:18Z</time>
      </trkpt>
      <trkpt lat="59.8234560199" lon="22.9248725959">
        <ele>19.4</ele>
        <time>2012-03-18T11:36:21Z</time>
      </trkpt>
      <trkpt lat="59.8235211473" lon="22.9249995816">
        <ele>19.2</ele>
        <time>2012-03-18T11:36:27Z</time>
      </trkpt>
      <trkpt lat="59.8235351451" lon="22.9250324387">
        <ele>19.2</ele>
        <time>2012-03-18T11:36:29Z</time>
      </trkpt>
      <trkpt lat="59.8235584467" lon="22.9251029305">
        <ele>19.2</ele>
        <time>2012-03-18T11:36:34Z</time>
      </trkpt>
      <trkpt lat="59.8235990151" lon="22.9252538885">
        <ele>19.2</ele>
        <time>2012-03-18T11:36:41Z</time>
      </trkpt>
      <trkpt lat="59.8236192993" lon="22.9253162498">
        <ele>19.2</ele>
        <time>2012-03-18T11:36:45Z</time>
      </trkpt>
      <trkpt lat="59.8236346382" lon="22.9254133122">
        <ele>19.2</ele>
        <time>2012-03-18T11:36:50Z</time>
      </trkpt>
      <trkpt lat="59.8236576046" lon="22.9254933594">
        <ele>19.2</ele>
        <time>2012-03-18T11:36:53Z</time>
      </trkpt>
      <trkpt lat="59.8236886176" lon="22.9255844706">
        <ele>19</ele>
        <time>2012-03-18T11:36:57Z</time>
      </trkpt>
      <trkpt lat="59.8237585227" lon="22.9258122907">
        <ele>18.2</ele>
        <time>2012-03-18T11:37:02Z</time>
      </trkpt>
      <trkpt lat="59.823775957" lon="22.9259506758">
        <ele>17.8</ele>
        <time>2012-03-18T11:37:05Z</time>
      </trkpt>
      <trkpt lat="59.8238300203" lon="22.9260818526">
        <ele>17.2</ele>
        <time>2012-03-18T11:37:09Z</time>
      </trkpt>
      <trkpt lat="59.8238596922" lon="22.9262306313">
        <ele>16.2</ele>
        <time>2012-03-18T11:37:15Z</time>
      </trkpt>
      <trkpt lat="59.8238782162" lon="22.9263369138">
        <ele>15.8</ele>
        <time>2012-03-18T11:37:21Z</time>
      </trkpt>
      <trkpt lat="59.8238819881" lon="22.9263589582">
        <ele>15.6</ele>
        <time>2012-03-18T11:37:22Z</time>
      </trkpt>
      <trkpt lat="59.8239106542" lon="22.9264889614">
        <ele>15.4</ele>
        <time>2012-03-18T11:37:28Z</time>
      </trkpt>
      <trkpt lat="59.8239383983" lon="22.9265653206">
        <ele>14.8</ele>
        <time>2012-03-18T11:37:32Z</time>
      </trkpt>
      <trkpt lat="59.8239656394" lon="22.9266807393">
        <ele>14</ele>
        <time>2012-03-18T11:37:37Z</time>
      </trkpt>
      <trkpt lat="59.8239795534" lon="22.9267334615">
        <ele>13.8</ele>
        <time>2012-03-18T11:37:40Z</time>
      </trkpt>
      <trkpt lat="59.8239628734" lon="22.9268143468">
        <ele>13.6</ele>
        <time>2012-03-18T11:37:44Z</time>
      </trkpt>
      <trkpt lat="59.8239176112" lon="22.9268860959">
        <ele>13.4</ele>
        <time>2012-03-18T11:37:47Z</time>
      </trkpt>
      <trkpt lat="59.8239373924" lon="22.9270390655">
        <ele>13.2</ele>
        <time>2012-03-18T11:37:51Z</time>
      </trkpt>
      <trkpt lat="59.8239513902" lon="22.927090279">
        <ele>13.2</ele>
        <time>2012-03-18T11:37:52Z</time>
      </trkpt>
      <trkpt lat="59.8239646336" lon="22.9271247286">
        <ele>13.2</ele>
        <time>2012-03-18T11:37:53Z</time>
      </trkpt>
      <trkpt lat="59.8240551581" lon="22.9272678914">
        <ele>13.2</ele>
        <time>2012-03-18T11:37:59Z</time>
      </trkpt>
      <trkpt lat="59.8241018453" lon="22.9273372097">
        <ele>13.2</ele>
        <time>2012-03-18T11:38:02Z</time>
      </trkpt>
      <trkpt lat="59.8241322716" lon="22.9274193523">
        <ele>13.2</ele>
        <time>2012-03-18T11:38:04Z</time>
      </trkpt>
      <trkpt lat="59.8241589261" lon="22.9275856492">
        <ele>13</ele>
        <time>2012-03-18T11:38:08Z</time>
      </trkpt>
      <trkpt lat="59.8241557409" lon="22.927632085">
        <ele>13</ele>
        <time>2012-03-18T11:38:09Z</time>
      </trkpt>
      <trkpt lat="59.8241424137" lon="22.9276930214">
        <ele>13</ele>
        <time>2012-03-18T11:38:10Z</time>
      </trkpt>
      <trkpt lat="59.8241248955" lon="22.9278524451">
        <ele>13</ele>
        <time>2012-03-18T11:38:13Z</time>
      </trkpt>
      <trkpt lat="59.8241383904" lon="22.9282153814">
        <ele>13</ele>
        <time>2012-03-18T11:38:19Z</time>
      </trkpt>
      <trkpt lat="59.8241401506" lon="22.9283361646">
        <ele>13</ele>
        <time>2012-03-18T11:38:21Z</time>
      </trkpt>
      <trkpt lat="59.8241911125" lon="22.9284592947">
        <ele>13</ele>
        <time>2012-03-18T11:38:24Z</time>
      </trkpt>
      <trkpt lat="59.8242015061" lon="22.9287446146">
        <ele>13</ele>
        <time>2012-03-18T11:38:31Z</time>
      </trkpt>
      <trkpt lat="59.8241300085" lon="22.9288067244">
        <ele>13</ele>
        <time>2012-03-18T11:38:39Z</time>
      </trkpt>
      <trkpt lat="59.8241308467" lon="22.9288269248">
        <ele>13</ele>
        <time>2012-03-18T11:38:45Z</time>
      </trkpt>
      <trkpt lat="59.8241212075" lon="22.9288360611">
        <ele>13</ele>
        <time>2012-03-18T11:38:49Z</time>
      </trkpt>
      <trkpt lat="59.8241773662" lon="22.9289366439">
        <ele>14</ele>
        <time>2012-03-18T11:39:18Z</time>
      </trkpt>
      <trkpt lat="59.8242108938" lon="22.9289539106">
        <ele>14.6</ele>
        <time>2012-03-18T11:39:25Z</time>
      </trkpt>
      <trkpt lat="59.8242736743" lon="22.9290476202">
        <ele>14.8</ele>
        <time>2012-03-18T11:39:31Z</time>
      </trkpt>
      <trkpt lat="59.8243656237" lon="22.9292083013">
        <ele>14.8</ele>
        <time>2012-03-18T11:39:36Z</time>
      </trkpt>
      <trkpt lat="59.8244531307" lon="22.9294240514">
        <ele>15.6</ele>
        <time>2012-03-18T11:39:42Z</time>
      </trkpt>
      <trkpt lat="59.8245318368" lon="22.9297335949">
        <ele>16.4</ele>
        <time>2012-03-18T11:39:49Z</time>
      </trkpt>
      <trkpt lat="59.8245790269" lon="22.929960493">
        <ele>16.6</ele>
        <time>2012-03-18T11:39:54Z</time>
      </trkpt>
      <trkpt lat="59.8246309947" lon="22.9302593077">
        <ele>17.4</ele>
        <time>2012-03-18T11:40:00Z</time>
      </trkpt>
      <trkpt lat="59.8247014026" lon="22.9305279476">
        <ele>18.2</ele>
        <time>2012-03-18T11:40:06Z</time>
      </trkpt>
      <trkpt lat="59.8247505206" lon="22.9307833441">
        <ele>18.6</ele>
        <time>2012-03-18T11:40:11Z</time>
      </trkpt>
      <trkpt lat="59.8247788514" lon="22.9309890359">
        <ele>18.8</ele>
        <time>2012-03-18T11:40:15Z</time>
      </trkpt>
      <trkpt lat="59.8248229402" lon="22.9312067139">
        <ele>19</ele>
        <time>2012-03-18T11:40:20Z</time>
      </trkpt>
      <trkpt lat="59.8249096928" lon="22.9314883457">
        <ele>19</ele>
        <time>2012-03-18T11:40:26Z</time>
      </trkpt>
      <trkpt lat="59.8250256145" lon="22.9317639426">
        <ele>19</ele>
        <time>2012-03-18T11:40:33Z</time>
      </trkpt>
      <trkpt lat="59.8251588867" lon="22.9319018248">
        <ele>19.2</ele>
        <time>2012-03-18T11:40:39Z</time>
      </trkpt>
      <trkpt lat="59.8251800929" lon="22.9319226119">
        <ele>19.2</ele>
        <time>2012-03-18T11:40:40Z</time>
      </trkpt>
      <trkpt lat="59.8251973596" lon="22.9319340113">
        <ele>19.2</ele>
        <time>2012-03-18T11:40:41Z</time>
      </trkpt>
      <trkpt lat="59.8252650016" lon="22.932133752">
        <ele>19.2</ele>
        <time>2012-03-18T11:40:46Z</time>
      </trkpt>
      <trkpt lat="59.8252745569" lon="22.9322965285">
        <ele>19.2</ele>
        <time>2012-03-18T11:40:49Z</time>
      </trkpt>
      <trkpt lat="59.8253304642" lon="22.9326616441">
        <ele>19.2</ele>
        <time>2012-03-18T11:40:56Z</time>
      </trkpt>
      <trkpt lat="59.8253701944" lon="22.9327901386">
        <ele>19.2</ele>
        <time>2012-03-18T11:40:59Z</time>
      </trkpt>
      <trkpt lat="59.8254320528" lon="22.9327033859">
        <ele>19.2</ele>
        <time>2012-03-18T11:41:03Z</time>
      </trkpt>
      <trkpt lat="59.8254869543" lon="22.9324790025">
        <ele>19.2</ele>
        <time>2012-03-18T11:41:08Z</time>
      </trkpt>
      <trkpt lat="59.8255359884" lon="22.9322326584">
        <ele>19.2</ele>
        <time>2012-03-18T11:41:13Z</time>
      </trkpt>
      <trkpt lat="59.8256227411" lon="22.931960582">
        <ele>19.2</ele>
        <time>2012-03-18T11:41:19Z</time>
      </trkpt>
      <trkpt lat="59.8257183785" lon="22.9316496135">
        <ele>19.2</ele>
        <time>2012-03-18T11:41:26Z</time>
      </trkpt>
      <trkpt lat="59.8257843441" lon="22.9314388925">
        <ele>19.2</ele>
        <time>2012-03-18T11:41:31Z</time>
      </trkpt>
      <trkpt lat="59.8258581048" lon="22.9311944763">
        <ele>19.2</ele>
        <time>2012-03-18T11:41:36Z</time>
      </trkpt>
      <trkpt lat="59.8259674048" lon="22.9309154428">
        <ele>19.2</ele>
        <time>2012-03-18T11:41:44Z</time>
      </trkpt>
      <trkpt lat="59.8260856734" lon="22.9306998604">
        <ele>19.2</ele>
        <time>2012-03-18T11:41:50Z</time>
      </trkpt>
      <trkpt lat="59.8262053669" lon="22.9306121019">
        <ele>18.8</ele>
        <time>2012-03-18T11:41:55Z</time>
      </trkpt>
      <trkpt lat="59.8262889345" lon="22.9305410234">
        <ele>18.2</ele>
        <time>2012-03-18T11:41:59Z</time>
      </trkpt>
      <trkpt lat="59.8264084604" lon="22.9304600542">
        <ele>17.8</ele>
        <time>2012-03-18T11:42:04Z</time>
      </trkpt>
      <trkpt lat="59.8265342727" lon="22.9303827731">
        <ele>17.4</ele>
        <time>2012-03-18T11:42:09Z</time>
      </trkpt>
      <trkpt lat="59.8266400523" lon="22.9303553643">
        <ele>17.4</ele>
        <time>2012-03-18T11:42:13Z</time>
      </trkpt>
      <trkpt lat="59.8267980511" lon="22.9302634148">
        <ele>17.2</ele>
        <time>2012-03-18T11:42:19Z</time>
      </trkpt>
      <trkpt lat="59.8269464945" lon="22.9301414582">
        <ele>17.2</ele>
        <time>2012-03-18T11:42:25Z</time>
      </trkpt>
      <trkpt lat="59.827258385" lon="22.9299324136">
        <ele>18.4</ele>
        <time>2012-03-18T11:42:38Z</time>
      </trkpt>
      <trkpt lat="59.8272725504" lon="22.9299168233">
        <ele>18.4</ele>
        <time>2012-03-18T11:42:39Z</time>
      </trkpt>
      <trkpt lat="59.8274828523" lon="22.9298060146">
        <ele>18.8</ele>
        <time>2012-03-18T11:42:47Z</time>
      </trkpt>
      <trkpt lat="59.8275941639" lon="22.9297518675">
        <ele>19</ele>
        <time>2012-03-18T11:42:51Z</time>
      </trkpt>
      <trkpt lat="59.8277172102" lon="22.9296620973">
        <ele>19</ele>
        <time>2012-03-18T11:42:56Z</time>
      </trkpt>
      <trkpt lat="59.8278447828" lon="22.9295717405">
        <ele>19.4</ele>
        <time>2012-03-18T11:43:01Z</time>
      </trkpt>
      <trkpt lat="59.8278723592" lon="22.9295477682">
        <ele>19.6</ele>
        <time>2012-03-18T11:43:02Z</time>
      </trkpt>
      <trkpt lat="59.8280365606" lon="22.9294782823">
        <ele>20.4</ele>
        <time>2012-03-18T11:43:08Z</time>
      </trkpt>
      <trkpt lat="59.8281065495" lon="22.9294405637">
        <ele>20.6</ele>
        <time>2012-03-18T11:43:11Z</time>
      </trkpt>
      <trkpt lat="59.8282218844" lon="22.9293958882">
        <ele>20.8</ele>
        <time>2012-03-18T11:43:15Z</time>
      </trkpt>
      <trkpt lat="59.8282857545" lon="22.9293683956">
        <ele>20.8</ele>
        <time>2012-03-18T11:43:17Z</time>
      </trkpt>
      <trkpt lat="59.8284822263" lon="22.9293054475">
        <ele>22.2</ele>
        <time>2012-03-18T11:43:24Z</time>
      </trkpt>
      <trkpt lat="59.8285685598" lon="22.929234369">
        <ele>22.8</ele>
        <time>2012-03-18T11:43:28Z</time>
      </trkpt>
      <trkpt lat="59.82864165" lon="22.9289865162">
        <ele>23.8</ele>
        <time>2012-03-18T11:43:34Z</time>
      </trkpt>
      <trkpt lat="59.8287056039" lon="22.9288555909">
        <ele>24.2</ele>
        <time>2012-03-18T11:43:37Z</time>
      </trkpt>
      <trkpt lat="59.8287815439" lon="22.9287823331">
        <ele>24.6</ele>
        <time>2012-03-18T11:43:41Z</time>
      </trkpt>
      <trkpt lat="59.8287239603" lon="22.9288051319">
        <ele>24.8</ele>
        <time>2012-03-18T11:43:45Z</time>
      </trkpt>
      <trkpt lat="59.8286206952" lon="22.9287546728">
        <ele>25</ele>
        <time>2012-03-18T11:43:50Z</time>
      </trkpt>
      <trkpt lat="59.8286016683" lon="22.9285962549">
        <ele>25.2</ele>
        <time>2012-03-18T11:43:54Z</time>
      </trkpt>
      <trkpt lat="59.8286025903" lon="22.9285076582">
        <ele>25.2</ele>
        <time>2012-03-18T11:43:56Z</time>
      </trkpt>
      <trkpt lat="59.8286016683" lon="22.9284100091">
        <ele>25.2</ele>
        <time>2012-03-18T11:43:58Z</time>
      </trkpt>
      <trkpt lat="59.8286186836" lon="22.9281657605">
        <ele>25.4</ele>
        <time>2012-03-18T11:44:03Z</time>
      </trkpt>
      <trkpt lat="59.8286383811" lon="22.9280401997">
        <ele>25.2</ele>
        <time>2012-03-18T11:44:06Z</time>
      </trkpt>
      <trkpt lat="59.8286846491" lon="22.9277759184">
        <ele>24.2</ele>
        <time>2012-03-18T11:44:12Z</time>
      </trkpt>
      <trkpt lat="59.8286864932" lon="22.9277275548">
        <ele>24.2</ele>
        <time>2012-03-18T11:44:13Z</time>
      </trkpt>
      <trkpt lat="59.8287121418" lon="22.9275813745">
        <ele>23.8</ele>
        <time>2012-03-18T11:44:18Z</time>
      </trkpt>
      <trkpt lat="59.8287365331" lon="22.927247691">
        <ele>23.2</ele>
        <time>2012-03-18T11:44:28Z</time>
      </trkpt>
      <trkpt lat="59.8287771015" lon="22.9270574219">
        <ele>22.4</ele>
        <time>2012-03-18T11:44:33Z</time>
      </trkpt>
      <trkpt lat="59.8288227829" lon="22.9268363912">
        <ele>22</ele>
        <time>2012-03-18T11:44:39Z</time>
      </trkpt>
      <trkpt lat="59.8288401334" lon="22.9267925539">
        <ele>21.8</ele>
        <time>2012-03-18T11:44:40Z</time>
      </trkpt>
      <trkpt lat="59.8288890837" lon="22.9265809947">
        <ele>21.6</ele>
        <time>2012-03-18T11:44:46Z</time>
      </trkpt>
      <trkpt lat="59.8288971303" lon="22.9264291985">
        <ele>21.4</ele>
        <time>2012-03-18T11:44:52Z</time>
      </trkpt>
      <trkpt lat="59.8289095355" lon="22.9262657515">
        <ele>21.4</ele>
        <time>2012-03-18T11:44:56Z</time>
      </trkpt>
      <trkpt lat="59.8289281433" lon="22.9261501651">
        <ele>21.4</ele>
        <time>2012-03-18T11:44:59Z</time>
      </trkpt>
      <trkpt lat="59.8289818713" lon="22.9259552859">
        <ele>21.4</ele>
        <time>2012-03-18T11:45:05Z</time>
      </trkpt>
      <trkpt lat="59.8291210109" lon="22.925788067">
        <ele>21.4</ele>
        <time>2012-03-18T11:45:11Z</time>
      </trkpt>
      <trkpt lat="59.8292535287" lon="22.925658399">
        <ele>21.4</ele>
        <time>2012-03-18T11:45:17Z</time>
      </trkpt>
      <trkpt lat="59.8294234298" lon="22.9254932755">
        <ele>20.2</ele>
        <time>2012-03-18T11:45:25Z</time>
      </trkpt>
      <trkpt lat="59.8295523434" lon="22.9253670441">
        <ele>19.8</ele>
        <time>2012-03-18T11:45:30Z</time>
      </trkpt>
      <trkpt lat="59.829645634" lon="22.9252650364">
        <ele>19.6</ele>
        <time>2012-03-18T11:45:35Z</time>
      </trkpt>
      <trkpt lat="59.8297713625" lon="22.9250839874">
        <ele>18.8</ele>
        <time>2012-03-18T11:45:42Z</time>
      </trkpt>
      <trkpt lat="59.8298167924" lon="22.9249941334">
        <ele>18.2</ele>
        <time>2012-03-18T11:45:47Z</time>
      </trkpt>
      <trkpt lat="59.8298089972" lon="22.9250097237">
        <ele>17.8</ele>
        <time>2012-03-18T11:45:53Z</time>
      </trkpt>
      <trkpt lat="59.8298089134" lon="22.9250890165">
        <ele>16.8</ele>
        <time>2012-03-18T11:45:58Z</time>
      </trkpt>
      <trkpt lat="59.829782678" lon="22.9252199418">
        <ele>16.2</ele>
        <time>2012-03-18T11:46:03Z</time>
      </trkpt>
      <trkpt lat="59.8297866175" lon="22.925336534">
        <ele>15.8</ele>
        <time>2012-03-18T11:46:08Z</time>
      </trkpt>
      <trkpt lat="59.8297861146" lon="22.9253828859">
        <ele>15.6</ele>
        <time>2012-03-18T11:46:10Z</time>
      </trkpt>
      <trkpt lat="59.8297679259" lon="22.925517164">
        <ele>15.4</ele>
        <time>2012-03-18T11:46:16Z</time>
      </trkpt>
      <trkpt lat="59.8297312132" lon="22.9257057567">
        <ele>15.4</ele>
        <time>2012-03-18T11:46:25Z</time>
      </trkpt>
      <trkpt lat="59.8297128568" lon="22.9258127098">
        <ele>15.2</ele>
        <time>2012-03-18T11:46:31Z</time>
      </trkpt>
      <trkpt lat="59.8297038044" lon="22.9258478299">
        <ele>15.2</ele>
        <time>2012-03-18T11:46:33Z</time>
      </trkpt>
      <trkpt lat="59.8296981047" lon="22.9259267874">
        <ele>14.6</ele>
        <time>2012-03-18T11:46:36Z</time>
      </trkpt>
      <trkpt lat="59.8296986076" lon="22.9259799287">
        <ele>14.2</ele>
        <time>2012-03-18T11:46:39Z</time>
      </trkpt>
      <trkpt lat="59.8296998649" lon="22.9260106064">
        <ele>13.6</ele>
        <time>2012-03-18T11:46:45Z</time>
      </trkpt>
      <trkpt lat="59.8296963445" lon="22.9260624904">
        <ele>13.4</ele>
        <time>2012-03-18T11:46:50Z</time>
      </trkpt>
      <trkpt lat="59.8296959254" lon="22.9261100996">
        <ele>13.4</ele>
        <time>2012-03-18T11:46:56Z</time>
      </trkpt>
      <trkpt lat="59.8296975179" lon="22.9261229239">
        <ele>13.4</ele>
        <time>2012-03-18T11:46:57Z</time>
      </trkpt>
      <trkpt lat="59.8297047264" lon="22.9262076649">
        <ele>13.2</ele>
        <time>2012-03-18T11:47:01Z</time>
      </trkpt>
      <trkpt lat="59.8297007869" lon="22.9263697708">
        <ele>13.2</ele>
        <time>2012-03-18T11:47:06Z</time>
      </trkpt>
      <trkpt lat="59.8297144494" lon="22.9264314616">
        <ele>13.2</ele>
        <time>2012-03-18T11:47:10Z</time>
      </trkpt>
      <trkpt lat="59.8297101746" lon="22.9264924818">
        <ele>13.2</ele>
        <time>2012-03-18T11:47:14Z</time>
      </trkpt>
      <trkpt lat="59.8297192271" lon="22.9265903824">
        <ele>13.2</ele>
        <time>2012-03-18T11:47:18Z</time>
      </trkpt>
      <trkpt lat="59.8297138626" lon="22.9267172006">
        <ele>13.2</ele>
        <time>2012-03-18T11:47:24Z</time>
      </trkpt>
      <trkpt lat="59.8297363261" lon="22.9267917157">
        <ele>13.2</ele>
        <time>2012-03-18T11:47:27Z</time>
      </trkpt>
      <trkpt lat="59.8297424449" lon="22.9268261653">
        <ele>13.2</ele>
        <time>2012-03-18T11:47:30Z</time>
      </trkpt>
      <trkpt lat="59.8297763078" lon="22.9268635486">
        <ele>13.2</ele>
        <time>2012-03-18T11:47:36Z</time>
      </trkpt>
      <trkpt lat="59.8298326342" lon="22.9268858444">
        <ele>13.2</ele>
        <time>2012-03-18T11:47:44Z</time>
      </trkpt>
      <trkpt lat="59.829918381" lon="22.9269223057">
        <ele>13.2</ele>
        <time>2012-03-18T11:47:50Z</time>
      </trkpt>
      <trkpt lat="59.8299564348" lon="22.9269491278">
        <ele>13.2</ele>
        <time>2012-03-18T11:47:53Z</time>
      </trkpt>
      <trkpt lat="59.8299920579" lon="22.9270454358">
        <ele>13.2</ele>
        <time>2012-03-18T11:47:57Z</time>
      </trkpt>
      <trkpt lat="59.8300024515" lon="22.9270625349">
        <ele>13.2</ele>
        <time>2012-03-18T11:47:58Z</time>
      </trkpt>
      <trkpt lat="59.8300348894" lon="22.9271511315">
        <ele>14</ele>
        <time>2012-03-18T11:48:03Z</time>
      </trkpt>
      <trkpt lat="59.8300856837" lon="22.9272119003">
        <ele>14.6</ele>
        <time>2012-03-18T11:48:09Z</time>
      </trkpt>
      <trkpt lat="59.8300919701" lon="22.9272259819">
        <ele>14.6</ele>
        <time>2012-03-18T11:48:10Z</time>
      </trkpt>
      <trkpt lat="59.8301245757" lon="22.9272702383">
        <ele>14.8</ele>
        <time>2012-03-18T11:48:17Z</time>
      </trkpt>
      <trkpt lat="59.8301457819" lon="22.9272503732">
        <ele>15</ele>
        <time>2012-03-18T11:48:21Z</time>
      </trkpt>
      <trkpt lat="59.8301791419" lon="22.9271813064">
        <ele>15</ele>
        <time>2012-03-18T11:48:26Z</time>
      </trkpt>
      <trkpt lat="59.8301909604" lon="22.9271669733">
        <ele>15</ele>
        <time>2012-03-18T11:48:27Z</time>
      </trkpt>
      <trkpt lat="59.830228176" lon="22.9271380558">
        <ele>15</ele>
        <time>2012-03-18T11:48:31Z</time>
      </trkpt>
      <trkpt lat="59.8302612007" lon="22.9270552426">
        <ele>15.2</ele>
        <time>2012-03-18T11:48:35Z</time>
      </trkpt>
      <trkpt lat="59.8303458579" lon="22.926997156">
        <ele>15.2</ele>
        <time>2012-03-18T11:48:39Z</time>
      </trkpt>
      <trkpt lat="59.8304487038" lon="22.926934208">
        <ele>15.2</ele>
        <time>2012-03-18T11:48:45Z</time>
      </trkpt>
      <trkpt lat="59.8304715864" lon="22.9269003451">
        <ele>15.2</ele>
        <time>2012-03-18T11:48:46Z</time>
      </trkpt>
      <trkpt lat="59.8305448442" lon="22.9268281769">
        <ele>15.2</ele>
        <time>2012-03-18T11:48:49Z</time>
      </trkpt>
      <trkpt lat="59.8305807187" lon="22.9267726049">
        <ele>15.2</ele>
        <time>2012-03-18T11:48:53Z</time>
      </trkpt>
      <trkpt lat="59.8306223768" lon="22.9267203019">
        <ele>15.2</ele>
        <time>2012-03-18T11:48:58Z</time>
      </trkpt>
      <trkpt lat="59.830707956" lon="22.9267664862">
        <ele>15.2</ele>
        <time>2012-03-18T11:49:03Z</time>
      </trkpt>
      <trkpt lat="59.8308527114" lon="22.9269689929">
        <ele>14.6</ele>
        <time>2012-03-18T11:49:09Z</time>
      </trkpt>
      <trkpt lat="59.8309272265" lon="22.9270476989">
        <ele>14.2</ele>
        <time>2012-03-18T11:49:12Z</time>
      </trkpt>
      <trkpt lat="59.8310920985" lon="22.9271828151">
        <ele>13.8</ele>
        <time>2012-03-18T11:49:18Z</time>
      </trkpt>
      <trkpt lat="59.831213636" lon="22.9273020057">
        <ele>13.4</ele>
        <time>2012-03-18T11:49:24Z</time>
      </trkpt>
      <trkpt lat="59.8313464053" lon="22.9273528839">
        <ele>13.4</ele>
        <time>2012-03-18T11:49:28Z</time>
      </trkpt>
      <trkpt lat="59.8313656837" lon="22.9273498664">
        <ele>13.4</ele>
        <time>2012-03-18T11:49:29Z</time>
      </trkpt>
      <trkpt lat="59.8314878918" lon="22.9272398121">
        <ele>13.2</ele>
        <time>2012-03-18T11:49:35Z</time>
      </trkpt>
      <trkpt lat="59.8316532667" lon="22.9270996667">
        <ele>13.2</ele>
        <time>2012-03-18T11:49:41Z</time>
      </trkpt>
      <trkpt lat="59.8317807554" lon="22.927040239">
        <ele>13.2</ele>
        <time>2012-03-18T11:49:46Z</time>
      </trkpt>
      <trkpt lat="59.8318002014" lon="22.9270290073">
        <ele>13.2</ele>
        <time>2012-03-18T11:49:47Z</time>
      </trkpt>
      <trkpt lat="59.8317924062" lon="22.9268705894">
        <ele>13.2</ele>
        <time>2012-03-18T11:49:52Z</time>
      </trkpt>
      <trkpt lat="59.8318174681" lon="22.926673028">
        <ele>13.8</ele>
        <time>2012-03-18T11:49:57Z</time>
      </trkpt>
      <trkpt lat="59.831848062" lon="22.9265103353">
        <ele>14.4</ele>
        <time>2012-03-18T11:50:01Z</time>
      </trkpt>
      <trkpt lat="59.8319165421" lon="22.9262491553">
        <ele>14.8</ele>
        <time>2012-03-18T11:50:09Z</time>
      </trkpt>
      <trkpt lat="59.8319654086" lon="22.9260713752">
        <ele>15</ele>
        <time>2012-03-18T11:50:14Z</time>
      </trkpt>
      <trkpt lat="59.8319699348" lon="22.9260293819">
        <ele>15</ele>
        <time>2012-03-18T11:50:15Z</time>
      </trkpt>
      <trkpt lat="59.8320191366" lon="22.9258917511">
        <ele>15</ele>
        <time>2012-03-18T11:50:18Z</time>
      </trkpt>
      <trkpt lat="59.8320893769" lon="22.9258341674">
        <ele>14.8</ele>
        <time>2012-03-18T11:50:21Z</time>
      </trkpt>
      <trkpt lat="59.832269923" lon="22.9257404578">
        <ele>14</ele>
        <time>2012-03-18T11:50:27Z</time>
      </trkpt>
      <trkpt lat="59.8323828272" lon="22.9256659427">
        <ele>13.6</ele>
        <time>2012-03-18T11:50:32Z</time>
      </trkpt>
      <trkpt lat="59.8325027722" lon="22.9255612528">
        <ele>13.4</ele>
        <time>2012-03-18T11:50:38Z</time>
      </trkpt>
      <trkpt lat="59.8325259901" lon="22.9255490152">
        <ele>13.4</ele>
        <time>2012-03-18T11:50:39Z</time>
      </trkpt>
      <trkpt lat="59.8325971524" lon="22.9253841432">
        <ele>13.2</ele>
        <time>2012-03-18T11:50:44Z</time>
      </trkpt>
      <trkpt lat="59.8326509642" lon="22.9252129848">
        <ele>13.2</ele>
        <time>2012-03-18T11:50:49Z</time>
      </trkpt>
      <trkpt lat="59.8326836536" lon="22.9251546468">
        <ele>13.2</ele>
        <time>2012-03-18T11:50:51Z</time>
      </trkpt>
      <trkpt lat="59.8327859966" lon="22.9250139147">
        <ele>13.2</ele>
        <time>2012-03-18T11:50:57Z</time>
      </trkpt>
      <trkpt lat="59.8328336058" lon="22.9249620307">
        <ele>13.2</ele>
        <time>2012-03-18T11:51:01Z</time>
      </trkpt>
      <trkpt lat="59.8328880044" lon="22.924908638">
        <ele>13.2</ele>
        <time>2012-03-18T11:51:06Z</time>
      </trkpt>
      <trkpt lat="59.8329051872" lon="22.9248932991">
        <ele>12.8</ele>
        <time>2012-03-18T11:51:08Z</time>
      </trkpt>
      <trkpt lat="59.8329267287" lon="22.924879469">
        <ele>12.4</ele>
        <time>2012-03-18T11:51:09Z</time>
      </trkpt>
      <trkpt lat="59.8329740026" lon="22.9247623739">
        <ele>12</ele>
        <time>2012-03-18T11:51:14Z</time>
      </trkpt>
      <trkpt lat="59.8330994797" lon="22.9244659899">
        <ele>11.4</ele>
        <time>2012-03-18T11:51:21Z</time>
      </trkpt>
      <trkpt lat="59.833176677" lon="22.9241963442">
        <ele>10.4</ele>
        <time>2012-03-18T11:51:26Z</time>
      </trkpt>
      <trkpt lat="59.8331980508" lon="22.9241512495">
        <ele>10.2</ele>
        <time>2012-03-18T11:51:27Z</time>
      </trkpt>
      <trkpt lat="59.8332514435" lon="22.9240092602">
        <ele>9.8</ele>
        <time>2012-03-18T11:51:31Z</time>
      </trkpt>
      <trkpt lat="59.8333146431" lon="22.9238441367">
        <ele>9.6</ele>
        <time>2012-03-18T11:51:36Z</time>
      </trkpt>
      <trkpt lat="59.8333403755" lon="22.9237508462">
        <ele>9.4</ele>
        <time>2012-03-18T11:51:38Z</time>
      </trkpt>
      <trkpt lat="59.8334124598" lon="22.9236925082">
        <ele>9.2</ele>
        <time>2012-03-18T11:51:44Z</time>
      </trkpt>
      <trkpt lat="59.8334301456" lon="22.9236270455">
        <ele>9.2</ele>
        <time>2012-03-18T11:51:45Z</time>
      </trkpt>
      <trkpt lat="59.8334436405" lon="22.9235546259">
        <ele>9.2</ele>
        <time>2012-03-18T11:51:47Z</time>
      </trkpt>
      <trkpt lat="59.833486472" lon="22.9234336751">
        <ele>9.2</ele>
        <time>2012-03-18T11:51:51Z</time>
      </trkpt>
      <trkpt lat="59.8335048284" lon="22.9233656141">
        <ele>9</ele>
        <time>2012-03-18T11:51:53Z</time>
      </trkpt>
      <trkpt lat="59.8336059979" lon="22.9232834714">
        <ele>9</ele>
        <time>2012-03-18T11:51:58Z</time>
      </trkpt>
      <trkpt lat="59.8336217559" lon="22.9232663724">
        <ele>9</ele>
        <time>2012-03-18T11:51:59Z</time>
      </trkpt>
      <trkpt lat="59.8336645036" lon="22.9231750096">
        <ele>9</ele>
        <time>2012-03-18T11:52:03Z</time>
      </trkpt>
      <trkpt lat="59.8336697003" lon="22.9230170946">
        <ele>9</ele>
        <time>2012-03-18T11:52:09Z</time>
      </trkpt>
      <trkpt lat="59.8337276193" lon="22.9229528055">
        <ele>9</ele>
        <time>2012-03-18T11:52:13Z</time>
      </trkpt>
      <trkpt lat="59.8337449698" lon="22.9229254805">
        <ele>9</ele>
        <time>2012-03-18T11:52:16Z</time>
      </trkpt>
      <trkpt lat="59.8337950098" lon="22.9229113151">
        <ele>9</ele>
        <time>2012-03-18T11:52:24Z</time>
      </trkpt>
      <trkpt lat="59.8339303774" lon="22.9226821539">
        <ele>9</ele>
        <time>2012-03-18T11:52:36Z</time>
      </trkpt>
      <trkpt lat="59.8339868714" lon="22.9222732848">
        <ele>9</ele>
        <time>2012-03-18T11:52:45Z</time>
      </trkpt>
      <trkpt lat="59.8340460477" lon="22.9221110951">
        <ele>9</ele>
        <time>2012-03-18T11:52:50Z</time>
      </trkpt>
      <trkpt lat="59.834073205" lon="22.922071784">
        <ele>9</ele>
        <time>2012-03-18T11:52:52Z</time>
      </trkpt>
      <trkpt lat="59.834119976" lon="22.9218741388">
        <ele>9</ele>
        <time>2012-03-18T11:52:57Z</time>
      </trkpt>
      <trkpt lat="59.834122742" lon="22.9218599734">
        <ele>9</ele>
        <time>2012-03-18T11:52:58Z</time>
      </trkpt>
      <trkpt lat="59.8341383324" lon="22.9218458918">
        <ele>9</ele>
        <time>2012-03-18T11:52:59Z</time>
      </trkpt>
      <trkpt lat="59.8341754642" lon="22.9217030642">
        <ele>9</ele>
        <time>2012-03-18T11:53:03Z</time>
      </trkpt>
      <trkpt lat="59.8341776435" lon="22.9216509288">
        <ele>9</ele>
        <time>2012-03-18T11:53:04Z</time>
      </trkpt>
      <trkpt lat="59.8341776435" lon="22.92157348">
        <ele>9</ele>
        <time>2012-03-18T11:53:06Z</time>
      </trkpt>
      <trkpt lat="59.8341944073" lon="22.9213754995">
        <ele>9</ele>
        <time>2012-03-18T11:53:10Z</time>
      </trkpt>
      <trkpt lat="59.8341980115" lon="22.9212402995">
        <ele>9</ele>
        <time>2012-03-18T11:53:15Z</time>
      </trkpt>
      <trkpt lat="59.8342034597" lon="22.9211517866">
        <ele>9</ele>
        <time>2012-03-18T11:53:18Z</time>
      </trkpt>
      <trkpt lat="59.8342023701" lon="22.9209539738">
        <ele>9</ele>
        <time>2012-03-18T11:53:23Z</time>
      </trkpt>
      <trkpt lat="59.8342008613" lon="22.9207403192">
        <ele>9</ele>
        <time>2012-03-18T11:53:28Z</time>
      </trkpt>
      <trkpt lat="59.8342344728" lon="22.9206795504">
        <ele>9</ele>
        <time>2012-03-18T11:53:30Z</time>
      </trkpt>
      <trkpt lat="59.8342586965" lon="22.9206383952">
        <ele>9</ele>
        <time>2012-03-18T11:53:32Z</time>
      </trkpt>
      <trkpt lat="59.8342849318" lon="22.9206143392">
        <ele>9</ele>
        <time>2012-03-18T11:53:36Z</time>
      </trkpt>
      <trkpt lat="59.8342969179" lon="22.9206188654">
        <ele>9</ele>
        <time>2012-03-18T11:53:38Z</time>
      </trkpt>
      <trkpt lat="59.8343333792" lon="22.9205033628">
        <ele>9</ele>
        <time>2012-03-18T11:53:41Z</time>
      </trkpt>
      <trkpt lat="59.8343904599" lon="22.9203923027">
        <ele>9</ele>
        <time>2012-03-18T11:53:45Z</time>
      </trkpt>
      <trkpt lat="59.8344259154" lon="22.9203560929">
        <ele>9</ele>
        <time>2012-03-18T11:53:47Z</time>
      </trkpt>
      <trkpt lat="59.8344654779" lon="22.920308316">
        <ele>9</ele>
        <time>2012-03-18T11:53:50Z</time>
      </trkpt>
      <trkpt lat="59.8345438487" lon="22.920241177">
        <ele>9</ele>
        <time>2012-03-18T11:53:55Z</time>
      </trkpt>
      <trkpt lat="59.8346046175" lon="22.9202652331">
        <ele>9</ele>
        <time>2012-03-18T11:54:00Z</time>
      </trkpt>
      <trkpt lat="59.8346224709" lon="22.9202623832">
        <ele>9</ele>
        <time>2012-03-18T11:54:01Z</time>
      </trkpt>
      <trkpt lat="59.8346701639" lon="22.9202708489">
        <ele>9</ele>
        <time>2012-03-18T11:54:05Z</time>
      </trkpt>
      <trkpt lat="59.8347226346" lon="22.9203025325">
        <ele>9</ele>
        <time>2012-03-18T11:54:09Z</time>
      </trkpt>
      <trkpt lat="59.8347853312" lon="22.9202696755">
        <ele>9</ele>
        <time>2012-03-18T11:54:15Z</time>
      </trkpt>
      <trkpt lat="59.8348709943" lon="22.9200658277">
        <ele>9</ele>
        <time>2012-03-18T11:54:21Z</time>
      </trkpt>
      <trkpt lat="59.8349390553" lon="22.9198960104">
        <ele>9</ele>
        <time>2012-03-18T11:54:25Z</time>
      </trkpt>
      <trkpt lat="59.8349981477" lon="22.9198613093">
        <ele>9</ele>
        <time>2012-03-18T11:54:28Z</time>
      </trkpt>
      <trkpt lat="59.8350248021" lon="22.9199793265">
        <ele>9</ele>
        <time>2012-03-18T11:54:35Z</time>
      </trkpt>
      <trkpt lat="59.8350274005" lon="22.9199819248">
        <ele>9</ele>
        <time>2012-03-18T11:54:36Z</time>
      </trkpt>
      <trkpt lat="59.8350339384" lon="22.9200064838">
        <ele>9</ele>
        <time>2012-03-18T11:54:37Z</time>
      </trkpt>
      <trkpt lat="59.835040141" lon="22.920018889">
        <ele>9</ele>
        <time>2012-03-18T11:54:41Z</time>
      </trkpt>
      <trkpt lat="59.8350761832" lon="22.9199988563">
        <ele>9</ele>
        <time>2012-03-18T11:54:46Z</time>
      </trkpt>
      <trkpt lat="59.835105436" lon="22.9199178871">
        <ele>9</ele>
        <time>2012-03-18T11:54:52Z</time>
      </trkpt>
      <trkpt lat="59.8351205234" lon="22.9199052305">
        <ele>9</ele>
        <time>2012-03-18T11:54:56Z</time>
      </trkpt>
      <trkpt lat="59.8351422325" lon="22.9198548552">
        <ele>9</ele>
        <time>2012-03-18T11:55:01Z</time>
      </trkpt>
      <trkpt lat="59.8351651151" lon="22.9198515025">
        <ele>9</ele>
        <time>2012-03-18T11:55:07Z</time>
      </trkpt>
      <trkpt lat="59.8351722397" lon="22.9198557772">
        <ele>9</ele>
        <time>2012-03-18T11:55:08Z</time>
      </trkpt>
      <trkpt lat="59.8352327571" lon="22.9198551067">
        <ele>9</ele>
        <time>2012-03-18T11:55:13Z</time>
      </trkpt>
      <trkpt lat="59.8352560587" lon="22.9198559449">
        <ele>9</ele>
        <time>2012-03-18T11:55:15Z</time>
      </trkpt>
      <trkpt lat="59.8352509458" lon="22.91989249">
        <ele>9</ele>
        <time>2012-03-18T11:55:18Z</time>
      </trkpt>
      <trkpt lat="59.8352518678" lon="22.9199006204">
        <ele>9</ele>
        <time>2012-03-18T11:55:19Z</time>
      </trkpt>
      <trkpt lat="59.8352527898" lon="22.9199118522">
        <ele>9</ele>
        <time>2012-03-18T11:55:20Z</time>
      </trkpt>
      <trkpt lat="59.8352578189" lon="22.9199640714">
        <ele>9</ele>
        <time>2012-03-18T11:55:25Z</time>
      </trkpt>
      <trkpt lat="59.8352644406" lon="22.9199717827">
        <ele>9</ele>
        <time>2012-03-18T11:55:32Z</time>
      </trkpt>
      <trkpt lat="59.8352698889" lon="22.9200222418">
        <ele>9.6</ele>
        <time>2012-03-18T11:55:41Z</time>
      </trkpt>
      <trkpt lat="59.8352838866" lon="22.9200722817">
        <ele>9.8</ele>
        <time>2012-03-18T11:55:44Z</time>
      </trkpt>
      <trkpt lat="59.8352321703" lon="22.9203062206">
        <ele>10.4</ele>
        <time>2012-03-18T11:55:48Z</time>
      </trkpt>
      <trkpt lat="59.8352366127" lon="22.920370845">
        <ele>10.4</ele>
        <time>2012-03-18T11:55:50Z</time>
      </trkpt>
      <trkpt lat="59.8352778517" lon="22.9203291031">
        <ele>11</ele>
        <time>2012-03-18T11:55:55Z</time>
      </trkpt>
      <trkpt lat="59.8352771811" lon="22.9203266724">
        <ele>11.2</ele>
        <time>2012-03-18T11:55:56Z</time>
      </trkpt>
      <trkpt lat="59.8352751695" lon="22.9203470404">
        <ele>12.2</ele>
        <time>2012-03-18T11:56:04Z</time>
      </trkpt>
      <trkpt lat="59.835278187" lon="22.9204378164">
        <ele>12.4</ele>
        <time>2012-03-18T11:56:07Z</time>
      </trkpt>
      <trkpt lat="59.8353046738" lon="22.9205105713">
        <ele>12.8</ele>
        <time>2012-03-18T11:56:11Z</time>
      </trkpt>
      <trkpt lat="59.8353433981" lon="22.9206565002">
        <ele>12.8</ele>
        <time>2012-03-18T11:56:17Z</time>
      </trkpt>
      <trkpt lat="59.8353548813" lon="22.9206849148">
        <ele>13.8</ele>
        <time>2012-03-18T11:56:24Z</time>
      </trkpt>
      <trkpt lat="59.8353720642" lon="22.9207968132">
        <ele>14.4</ele>
        <time>2012-03-18T11:56:29Z</time>
      </trkpt>
      <trkpt lat="59.8353844694" lon="22.9209195242">
        <ele>14.8</ele>
        <time>2012-03-18T11:56:34Z</time>
      </trkpt>
      <trkpt lat="59.835458314" lon="22.9210999865">
        <ele>15</ele>
        <time>2012-03-18T11:56:40Z</time>
      </trkpt>
      <trkpt lat="59.835514808" lon="22.9212307441">
        <ele>15</ele>
        <time>2012-03-18T11:56:46Z</time>
      </trkpt>
      <trkpt lat="59.8355520236" lon="22.9214190854">
        <ele>15</ele>
        <time>2012-03-18T11:56:50Z</time>
      </trkpt>
      <trkpt lat="59.835597705" lon="22.9215360129">
        <ele>15</ele>
        <time>2012-03-18T11:56:53Z</time>
      </trkpt>
      <trkpt lat="59.8356018121" lon="22.9216783376">
        <ele>15.2</ele>
        <time>2012-03-18T11:56:58Z</time>
      </trkpt>
      <trkpt lat="59.8356050811" lon="22.921702226">
        <ele>15.2</ele>
        <time>2012-03-18T11:56:59Z</time>
      </trkpt>
      <trkpt lat="59.8356177377" lon="22.9217017231">
        <ele>15.2</ele>
        <time>2012-03-18T11:57:01Z</time>
      </trkpt>
      <trkpt lat="59.835674567" lon="22.9217780822">
        <ele>14.6</ele>
        <time>2012-03-18T11:57:05Z</time>
      </trkpt>
      <trkpt lat="59.8356992936" lon="22.9217908227">
        <ele>14.4</ele>
        <time>2012-03-18T11:57:06Z</time>
      </trkpt>
      <trkpt lat="59.8357731382" lon="22.921868942">
        <ele>14</ele>
        <time>2012-03-18T11:57:10Z</time>
      </trkpt>
      <trkpt lat="59.8357988706" lon="22.9219107677">
        <ele>13.6</ele>
        <time>2012-03-18T11:57:12Z</time>
      </trkpt>
      <trkpt lat="59.8358112758" lon="22.9220103446">
        <ele>12.8</ele>
        <time>2012-03-18T11:57:15Z</time>
      </trkpt>
      <trkpt lat="59.835818149" lon="22.9220836024">
        <ele>12.4</ele>
        <time>2012-03-18T11:57:18Z</time>
      </trkpt>
      <trkpt lat="59.8358080069" lon="22.92211713">
        <ele>12.2</ele>
        <time>2012-03-18T11:57:19Z</time>
      </trkpt>
      <trkpt lat="59.8358291292" lon="22.9224290205">
        <ele>11.6</ele>
        <time>2012-03-18T11:57:26Z</time>
      </trkpt>
      <trkpt lat="59.835813958" lon="22.9226292641">
        <ele>11.4</ele>
        <time>2012-03-18T11:57:32Z</time>
      </trkpt>
      <trkpt lat="59.8357832802" lon="22.9227710021">
        <ele>11.2</ele>
        <time>2012-03-18T11:57:38Z</time>
      </trkpt>
      <trkpt lat="59.8357742278" lon="22.922809475">
        <ele>11.2</ele>
        <time>2012-03-18T11:57:40Z</time>
      </trkpt>
      <trkpt lat="59.8358471503" lon="22.9228766978">
        <ele>11</ele>
        <time>2012-03-18T11:57:44Z</time>
      </trkpt>
      <trkpt lat="59.8359378425" lon="22.922927576">
        <ele>11</ele>
        <time>2012-03-18T11:57:49Z</time>
      </trkpt>
      <trkpt lat="59.8359874633" lon="22.9229818069">
        <ele>11</ele>
        <time>2012-03-18T11:57:52Z</time>
      </trkpt>
      <trkpt lat="59.8360318036" lon="22.9232574037">
        <ele>11</ele>
        <time>2012-03-18T11:57:58Z</time>
      </trkpt>
      <trkpt lat="59.8360332285" lon="22.9232933621">
        <ele>11</ele>
        <time>2012-03-18T11:57:59Z</time>
      </trkpt>
      <trkpt lat="59.8359753096" lon="22.9234957011">
        <ele>11</ele>
        <time>2012-03-18T11:58:05Z</time>
      </trkpt>
      <trkpt lat="59.8359616471" lon="22.9237159775">
        <ele>11</ele>
        <time>2012-03-18T11:58:10Z</time>
      </trkpt>
      <trkpt lat="59.8359613956" lon="22.9237766624">
        <ele>11</ele>
        <time>2012-03-18T11:58:12Z</time>
      </trkpt>
      <trkpt lat="59.8359546901" lon="22.9237744831">
        <ele>11</ele>
        <time>2012-03-18T11:58:19Z</time>
      </trkpt>
      <trkpt lat="59.8359778241" lon="22.9234794403">
        <ele>11</ele>
        <time>2012-03-18T11:58:31Z</time>
      </trkpt>
      <trkpt lat="59.8359873795" lon="22.9234325854">
        <ele>11</ele>
        <time>2012-03-18T11:58:33Z</time>
      </trkpt>
      <trkpt lat="59.8360240922" lon="22.9233437373">
        <ele>11</ele>
        <time>2012-03-18T11:58:39Z</time>
      </trkpt>
      <trkpt lat="59.8360190631" lon="22.9233060187">
        <ele>11</ele>
        <time>2012-03-18T11:58:42Z</time>
      </trkpt>
      <trkpt lat="59.8359854517" lon="22.9231393866">
        <ele>10.6</ele>
        <time>2012-03-18T11:58:47Z</time>
      </trkpt>
      <trkpt lat="59.8359370881" lon="22.9230114788">
        <ele>10</ele>
        <time>2012-03-18T11:58:51Z</time>
      </trkpt>
      <trkpt lat="59.8358804265" lon="22.922948866">
        <ele>9.8</ele>
        <time>2012-03-18T11:58:54Z</time>
      </trkpt>
      <trkpt lat="59.8358494134" lon="22.9229019273">
        <ele>9.6</ele>
        <time>2012-03-18T11:58:56Z</time>
      </trkpt>
      <trkpt lat="59.8356923366" lon="22.9229309287">
        <ele>9.2</ele>
        <time>2012-03-18T11:59:02Z</time>
      </trkpt>
      <trkpt lat="59.8356056678" lon="22.9229674738">
        <ele>9.2</ele>
        <time>2012-03-18T11:59:05Z</time>
      </trkpt>
      <trkpt lat="59.8355645965" lon="22.9230137419">
        <ele>9</ele>
        <time>2012-03-18T11:59:07Z</time>
      </trkpt>
      <trkpt lat="59.8354918416" lon="22.9230859939">
        <ele>9</ele>
        <time>2012-03-18T11:59:10Z</time>
      </trkpt>
      <trkpt lat="59.8354676179" lon="22.9231144923">
        <ele>9</ele>
        <time>2012-03-18T11:59:11Z</time>
      </trkpt>
      <trkpt lat="59.8353695497" lon="22.9232750057">
        <ele>9</ele>
        <time>2012-03-18T11:59:16Z</time>
      </trkpt>
      <trkpt lat="59.8352750018" lon="22.9234887442">
        <ele>9</ele>
        <time>2012-03-18T11:59:22Z</time>
      </trkpt>
      <trkpt lat="59.8352132272" lon="22.9238349166">
        <ele>8.8</ele>
        <time>2012-03-18T11:59:29Z</time>
      </trkpt>
      <trkpt lat="59.8351895903" lon="22.9241657502">
        <ele>9.4</ele>
        <time>2012-03-18T11:59:35Z</time>
      </trkpt>
      <trkpt lat="59.835163774" lon="22.9244598711">
        <ele>10.2</ele>
        <time>2012-03-18T11:59:41Z</time>
      </trkpt>
      <trkpt lat="59.8350798712" lon="22.9247067181">
        <ele>11.6</ele>
        <time>2012-03-18T11:59:47Z</time>
      </trkpt>
      <trkpt lat="59.8349762709" lon="22.9247648046">
        <ele>12.2</ele>
        <time>2012-03-18T11:59:51Z</time>
      </trkpt>
      <trkpt lat="59.8348321861" lon="22.9247636312">
        <ele>12.6</ele>
        <time>2012-03-18T11:59:56Z</time>
      </trkpt>
      <trkpt lat="59.8347171026" lon="22.924734043">
        <ele>13</ele>
        <time>2012-03-18T12:00:01Z</time>
      </trkpt>
      <trkpt lat="59.8345532364" lon="22.9247062151">
        <ele>13</ele>
        <time>2012-03-18T12:00:06Z</time>
      </trkpt>
      <trkpt lat="59.8344539109" lon="22.9246810694">
        <ele>13.2</ele>
        <time>2012-03-18T12:00:11Z</time>
      </trkpt>
      <trkpt lat="59.8342939843" lon="22.9246730228">
        <ele>13.2</ele>
        <time>2012-03-18T12:00:16Z</time>
      </trkpt>
      <trkpt lat="59.8341743745" lon="22.9246907086">
        <ele>13.2</ele>
        <time>2012-03-18T12:00:21Z</time>
      </trkpt>
      <trkpt lat="59.8341450379" lon="22.9246943128">
        <ele>13.2</ele>
        <time>2012-03-18T12:00:23Z</time>
      </trkpt>
      <trkpt lat="59.8340431978" lon="22.9247628768">
        <ele>13.2</ele>
        <time>2012-03-18T12:00:27Z</time>
      </trkpt>
      <trkpt lat="59.8337949259" lon="22.9251159224">
        <ele>12</ele>
        <time>2012-03-18T12:00:39Z</time>
      </trkpt>
      <trkpt lat="59.8336677725" lon="22.9252622704">
        <ele>11.6</ele>
        <time>2012-03-18T12:00:44Z</time>
      </trkpt>
      <trkpt lat="59.833640699" lon="22.9252753461">
        <ele>11.6</ele>
        <time>2012-03-18T12:00:45Z</time>
      </trkpt>
      <trkpt lat="59.8335397809" lon="22.9253849814">
        <ele>11.4</ele>
        <time>2012-03-18T12:00:50Z</time>
      </trkpt>
      <trkpt lat="59.8335152219" lon="22.9253977219">
        <ele>11.4</ele>
        <time>2012-03-18T12:00:51Z</time>
      </trkpt>
      <trkpt lat="59.8334083527" lon="22.9256195908">
        <ele>11.4</ele>
        <time>2012-03-18T12:00:56Z</time>
      </trkpt>
      <trkpt lat="59.8333708856" lon="22.9257096124">
        <ele>11.4</ele>
        <time>2012-03-18T12:00:58Z</time>
      </trkpt>
      <trkpt lat="59.8333300658" lon="22.92592838">
        <ele>11.2</ele>
        <time>2012-03-18T12:01:03Z</time>
      </trkpt>
      <trkpt lat="59.8333080214" lon="22.9262510831">
        <ele>11.2</ele>
        <time>2012-03-18T12:01:08Z</time>
      </trkpt>
      <trkpt lat="59.8333594862" lon="22.9266196353">
        <ele>12.4</ele>
        <time>2012-03-18T12:01:15Z</time>
      </trkpt>
      <trkpt lat="59.8334672775" lon="22.9270626187">
        <ele>13.8</ele>
        <time>2012-03-18T12:01:24Z</time>
      </trkpt>
      <trkpt lat="59.8335510965" lon="22.9273113097">
        <ele>15.4</ele>
        <time>2012-03-18T12:01:29Z</time>
      </trkpt>
      <trkpt lat="59.8336259468" lon="22.9275341006">
        <ele>16.2</ele>
        <time>2012-03-18T12:01:34Z</time>
      </trkpt>
      <trkpt lat="59.8336880567" lon="22.9277378645">
        <ele>17</ele>
        <time>2012-03-18T12:01:39Z</time>
      </trkpt>
      <trkpt lat="59.8338260228" lon="22.9275360284">
        <ele>18.4</ele>
        <time>2012-03-18T12:01:47Z</time>
      </trkpt>
      <trkpt lat="59.8339634021" lon="22.9274193523">
        <ele>19</ele>
        <time>2012-03-18T12:01:53Z</time>
      </trkpt>
      <trkpt lat="59.8341122647" lon="22.9273812985">
        <ele>19.2</ele>
        <time>2012-03-18T12:02:00Z</time>
      </trkpt>
      <trkpt lat="59.8342484705" lon="22.9274187656">
        <ele>19.4</ele>
        <time>2012-03-18T12:02:05Z</time>
      </trkpt>
      <trkpt lat="59.8344151027" lon="22.9274904309">
        <ele>19.4</ele>
        <time>2012-03-18T12:02:11Z</time>
      </trkpt>
      <trkpt lat="59.8345944754" lon="22.9275590786">
        <ele>19.4</ele>
        <time>2012-03-18T12:02:18Z</time>
      </trkpt>
      <trkpt lat="59.8347697409" lon="22.9276132257">
        <ele>19.4</ele>
        <time>2012-03-18T12:02:26Z</time>
      </trkpt>
      <trkpt lat="59.8348143326" lon="22.9275404708">
        <ele>19.4</ele>
        <time>2012-03-18T12:02:32Z</time>
      </trkpt>
      <trkpt lat="59.8348186912" lon="22.9275355255">
        <ele>19.4</ele>
        <time>2012-03-18T12:02:33Z</time>
      </trkpt>
      <trkpt lat="59.8348375505" lon="22.9275140678">
        <ele>19.4</ele>
        <time>2012-03-18T12:02:35Z</time>
      </trkpt>
      <trkpt lat="59.8348383048" lon="22.9274035106">
        <ele>19.6</ele>
        <time>2012-03-18T12:02:41Z</time>
      </trkpt>
      <trkpt lat="59.834832689" lon="22.9273370421">
        <ele>19.6</ele>
        <time>2012-03-18T12:02:45Z</time>
      </trkpt>
      <trkpt lat="59.8348378857" lon="22.9272489483">
        <ele>19.6</ele>
        <time>2012-03-18T12:02:50Z</time>
      </trkpt>
      <trkpt lat="59.8348388916" lon="22.9272067874">
        <ele>19.6</ele>
        <time>2012-03-18T12:02:53Z</time>
      </trkpt>
      <trkpt lat="59.8348585052" lon="22.9271432526">
        <ele>19.6</ele>
        <time>2012-03-18T12:02:57Z</time>
      </trkpt>
      <trkpt lat="59.8348472735" lon="22.9270991638">
        <ele>19.6</ele>
        <time>2012-03-18T12:03:00Z</time>
      </trkpt>
      <trkpt lat="59.8348620256" lon="22.9270036939">
        <ele>19.6</ele>
        <time>2012-03-18T12:03:05Z</time>
      </trkpt>
      <trkpt lat="59.8348616903" lon="22.9269675679">
        <ele>19.6</ele>
        <time>2012-03-18T12:03:07Z</time>
      </trkpt>
      <trkpt lat="59.834864624" lon="22.9269207969">
        <ele>19.6</ele>
        <time>2012-03-18T12:03:10Z</time>
      </trkpt>
      <trkpt lat="59.8348751852" lon="22.9268335414">
        <ele>19.6</ele>
        <time>2012-03-18T12:03:15Z</time>
      </trkpt>
      <trkpt lat="59.834894715" lon="22.9267616247">
        <ele>19.6</ele>
        <time>2012-03-18T12:03:19Z</time>
      </trkpt>
      <trkpt lat="59.8349093834" lon="22.9266379078">
        <ele>19.6</ele>
        <time>2012-03-18T12:03:25Z</time>
      </trkpt>
      <trkpt lat="59.8349468504" lon="22.9265574416">
        <ele>19.6</ele>
        <time>2012-03-18T12:03:31Z</time>
      </trkpt>
      <trkpt lat="59.8349801266" lon="22.9264918113">
        <ele>19.6</ele>
        <time>2012-03-18T12:03:36Z</time>
      </trkpt>
      <trkpt lat="59.8349946273" lon="22.9264434477">
        <ele>19.6</ele>
        <time>2012-03-18T12:03:39Z</time>
      </trkpt>
      <trkpt lat="59.835030418" lon="22.9263893007">
        <ele>19.6</ele>
        <time>2012-03-18T12:03:44Z</time>
      </trkpt>
      <trkpt lat="59.835048942" lon="22.9263679268">
        <ele>19.6</ele>
        <time>2012-03-18T12:03:47Z</time>
      </trkpt>
      <trkpt lat="59.8350678013" lon="22.9263072419">
        <ele>19.6</ele>
        <time>2012-03-18T12:03:52Z</time>
      </trkpt>
      <trkpt lat="59.8350708187" lon="22.9262677631">
        <ele>19.6</ele>
        <time>2012-03-18T12:03:54Z</time>
      </trkpt>
      <trkpt lat="59.8350861576" lon="22.9262056532">
        <ele>19.6</ele>
        <time>2012-03-18T12:03:58Z</time>
      </trkpt>
      <trkpt lat="59.8350861576" lon="22.926197439">
        <ele>19.6</ele>
        <time>2012-03-18T12:03:59Z</time>
      </trkpt>
      <trkpt lat="59.8350490258" lon="22.9260973591">
        <ele>19.6</ele>
        <time>2012-03-18T12:04:04Z</time>
      </trkpt>
      <trkpt lat="59.8350426556" lon="22.9260533541">
        <ele>19.6</ele>
        <time>2012-03-18T12:04:05Z</time>
      </trkpt>
      <trkpt lat="59.8350513727" lon="22.9260340757">
        <ele>19.6</ele>
        <time>2012-03-18T12:04:07Z</time>
      </trkpt>
      <trkpt lat="59.835059587" lon="22.9260292142">
        <ele>19.2</ele>
        <time>2012-03-18T12:04:12Z</time>
      </trkpt>
      <trkpt lat="59.8350596708" lon="22.9260114446">
        <ele>17.8</ele>
        <time>2012-03-18T12:04:29Z</time>
      </trkpt>
      <trkpt lat="59.8350812961" lon="22.9260458942">
        <ele>17.6</ele>
        <time>2012-03-18T12:04:36Z</time>
      </trkpt>
      <trkpt lat="59.8350998201" lon="22.9261063277">
        <ele>17.4</ele>
        <time>2012-03-18T12:04:45Z</time>
      </trkpt>
      <trkpt lat="59.8350786977" lon="22.9261501651">
        <ele>17.4</ele>
        <time>2012-03-18T12:04:48Z</time>
      </trkpt>
      <trkpt lat="59.8350585812" lon="22.9261639952">
        <ele>17.4</ele>
        <time>2012-03-18T12:04:50Z</time>
      </trkpt>
      <trkpt lat="59.8350331002" lon="22.9262773185">
        <ele>17.4</ele>
        <time>2012-03-18T12:04:56Z</time>
      </trkpt>
      <trkpt lat="59.8350316753" lon="22.926304392">
        <ele>17.4</ele>
        <time>2012-03-18T12:04:57Z</time>
      </trkpt>
      <trkpt lat="59.8350271491" lon="22.9263613051">
        <ele>17.4</ele>
        <time>2012-03-18T12:04:59Z</time>
      </trkpt>
      <trkpt lat="59.8349850719" lon="22.926494242">
        <ele>17.4</ele>
        <time>2012-03-18T12:05:06Z</time>
      </trkpt>
      <trkpt lat="59.8349724991" lon="22.9265409292">
        <ele>17.4</ele>
        <time>2012-03-18T12:05:08Z</time>
      </trkpt>
      <trkpt lat="59.8349294161" lon="22.9266603713">
        <ele>17.4</ele>
        <time>2012-03-18T12:05:12Z</time>
      </trkpt>
      <trkpt lat="59.8349059468" lon="22.9268286799">
        <ele>17.4</ele>
        <time>2012-03-18T12:05:16Z</time>
      </trkpt>
      <trkpt lat="59.8348606845" lon="22.9273937876">
        <ele>17.4</ele>
        <time>2012-03-18T12:05:28Z</time>
      </trkpt>
      <trkpt lat="59.8348714133" lon="22.9275393812">
        <ele>17.4</ele>
        <time>2012-03-18T12:05:32Z</time>
      </trkpt>
      <trkpt lat="59.834887339" lon="22.9277067677">
        <ele>17</ele>
        <time>2012-03-18T12:05:36Z</time>
      </trkpt>
      <trkpt lat="59.8349468504" lon="22.9278124635">
        <ele>16.4</ele>
        <time>2012-03-18T12:05:41Z</time>
      </trkpt>
      <trkpt lat="59.8350065296" lon="22.9281072549">
        <ele>16</ele>
        <time>2012-03-18T12:05:46Z</time>
      </trkpt>
      <trkpt lat="59.8349766062" lon="22.9283200713">
        <ele>15.8</ele>
        <time>2012-03-18T12:05:50Z</time>
      </trkpt>
      <trkpt lat="59.8349576631" lon="22.9283459714">
        <ele>15.8</ele>
        <time>2012-03-18T12:05:51Z</time>
      </trkpt>
      <trkpt lat="59.8348845729" lon="22.9285019586">
        <ele>15.6</ele>
        <time>2012-03-18T12:05:56Z</time>
      </trkpt>
      <trkpt lat="59.834848866" lon="22.9285718636">
        <ele>15.6</ele>
        <time>2012-03-18T12:05:57Z</time>
      </trkpt>
      <trkpt lat="59.8347722555" lon="22.9287994322">
        <ele>14.6</ele>
        <time>2012-03-18T12:06:03Z</time>
      </trkpt>
      <trkpt lat="59.8347119058" lon="22.9290539905">
        <ele>14</ele>
        <time>2012-03-18T12:06:07Z</time>
      </trkpt>
      <trkpt lat="59.8346995006" lon="22.9291046172">
        <ele>14</ele>
        <time>2012-03-18T12:06:08Z</time>
      </trkpt>
      <trkpt lat="59.8345939725" lon="22.9292709141">
        <ele>13.6</ele>
        <time>2012-03-18T12:06:13Z</time>
      </trkpt>
      <trkpt lat="59.8344960719" lon="22.9293512965">
        <ele>13.2</ele>
        <time>2012-03-18T12:06:18Z</time>
      </trkpt>
      <trkpt lat="59.8344009373" lon="22.9294155857">
        <ele>12.4</ele>
        <time>2012-03-18T12:06:22Z</time>
      </trkpt>
      <trkpt lat="59.8341146954" lon="22.9296345209">
        <ele>11.6</ele>
        <time>2012-03-18T12:06:34Z</time>
      </trkpt>
      <trkpt lat="59.8339606361" lon="22.929785898">
        <ele>11.4</ele>
        <time>2012-03-18T12:06:40Z</time>
      </trkpt>
      <trkpt lat="59.8338603886" lon="22.9300159811">
        <ele>11.4</ele>
        <time>2012-03-18T12:06:46Z</time>
      </trkpt>
      <trkpt lat="59.8338309681" lon="22.9302589724">
        <ele>11.2</ele>
        <time>2012-03-18T12:06:51Z</time>
      </trkpt>
      <trkpt lat="59.8338124441" lon="22.9305655823">
        <ele>11.2</ele>
        <time>2012-03-18T12:06:56Z</time>
      </trkpt>
      <trkpt lat="59.833806912" lon="22.9308411792">
        <ele>11.2</ele>
        <time>2012-03-18T12:07:01Z</time>
      </trkpt>
      <trkpt lat="59.833838428" lon="22.9310966595">
        <ele>11.2</ele>
        <time>2012-03-18T12:07:06Z</time>
      </trkpt>
      <trkpt lat="59.8338622326" lon="22.9311291813">
        <ele>11.2</ele>
        <time>2012-03-18T12:07:08Z</time>
      </trkpt>
      <trkpt lat="59.8339400166" lon="22.9312269142">
        <ele>11.2</ele>
        <time>2012-03-18T12:07:11Z</time>
      </trkpt>
      <trkpt lat="59.834108409" lon="22.9314112322">
        <ele>11.2</ele>
        <time>2012-03-18T12:07:18Z</time>
      </trkpt>
      <trkpt lat="59.8342179604" lon="22.9315730867">
        <ele>11.2</ele>
        <time>2012-03-18T12:07:24Z</time>
      </trkpt>
      <trkpt lat="59.834322818" lon="22.9317315884">
        <ele>11.2</ele>
        <time>2012-03-18T12:07:28Z</time>
      </trkpt>
      <trkpt lat="59.8345053758" lon="22.9321439779">
        <ele>11.2</ele>
        <time>2012-03-18T12:07:39Z</time>
      </trkpt>
      <trkpt lat="59.8345701679" lon="22.9323059162">
        <ele>11.2</ele>
        <time>2012-03-18T12:07:44Z</time>
      </trkpt>
      <trkpt lat="59.8346407435" lon="22.9324562037">
        <ele>11.2</ele>
        <time>2012-03-18T12:07:48Z</time>
      </trkpt>
      <trkpt lat="59.834713666" lon="22.9326395159">
        <ele>11.2</ele>
        <time>2012-03-18T12:07:53Z</time>
      </trkpt>
      <trkpt lat="59.8347570842" lon="22.9328214869">
        <ele>11.2</ele>
        <time>2012-03-18T12:07:56Z</time>
      </trkpt>
      <trkpt lat="59.8347768655" lon="22.9328561041">
        <ele>11.2</ele>
        <time>2012-03-18T12:07:57Z</time>
      </trkpt>
      <trkpt lat="59.8348656298" lon="22.9330816611">
        <ele>11.4</ele>
        <time>2012-03-18T12:08:03Z</time>
      </trkpt>
      <trkpt lat="59.8349306734" lon="22.9332072219">
        <ele>12</ele>
        <time>2012-03-18T12:08:06Z</time>
      </trkpt>
      <trkpt lat="59.8350305856" lon="22.9331197987">
        <ele>12.6</ele>
        <time>2012-03-18T12:08:11Z</time>
      </trkpt>
      <trkpt lat="59.8350833916" lon="22.9330202217">
        <ele>12.8</ele>
        <time>2012-03-18T12:08:14Z</time>
      </trkpt>
      <trkpt lat="59.8351854831" lon="22.9328301203">
        <ele>13</ele>
        <time>2012-03-18T12:08:20Z</time>
      </trkpt>
      <trkpt lat="59.8352915142" lon="22.9326194831">
        <ele>13.2</ele>
        <time>2012-03-18T12:08:26Z</time>
      </trkpt>
      <trkpt lat="59.8353634309" lon="22.9324793377">
        <ele>13.2</ele>
        <time>2012-03-18T12:08:30Z</time>
      </trkpt>
      <trkpt lat="59.8354662768" lon="22.9322513501">
        <ele>13.2</ele>
        <time>2012-03-18T12:08:36Z</time>
      </trkpt>
      <trkpt lat="59.8355733137" lon="22.9320816166">
        <ele>13.2</ele>
        <time>2012-03-18T12:08:41Z</time>
      </trkpt>
      <trkpt lat="59.8357114474" lon="22.9320181656">
        <ele>13.2</ele>
        <time>2012-03-18T12:08:46Z</time>
      </trkpt>
      <trkpt lat="59.8357393591" lon="22.9320469155">
        <ele>13.2</ele>
        <time>2012-03-18T12:08:47Z</time>
      </trkpt>
      <trkpt lat="59.8358021395" lon="22.9322306468">
        <ele>13.2</ele>
        <time>2012-03-18T12:08:51Z</time>
      </trkpt>
      <trkpt lat="59.8358678536" lon="22.9324940061">
        <ele>13.2</ele>
        <time>2012-03-18T12:08:56Z</time>
      </trkpt>
      <trkpt lat="59.8359125291" lon="22.9326970995">
        <ele>13.8</ele>
        <time>2012-03-18T12:09:00Z</time>
      </trkpt>
      <trkpt lat="59.8359294606" lon="22.9328456268">
        <ele>14.2</ele>
        <time>2012-03-18T12:09:03Z</time>
      </trkpt>
      <trkpt lat="59.8359945879" lon="22.9331495545">
        <ele>14.8</ele>
        <time>2012-03-18T12:09:09Z</time>
      </trkpt>
      <trkpt lat="59.8360376709" lon="22.9334098125">
        <ele>15.8</ele>
        <time>2012-03-18T12:09:14Z</time>
      </trkpt>
      <trkpt lat="59.836045969" lon="22.9334619479">
        <ele>16</ele>
        <time>2012-03-18T12:09:15Z</time>
      </trkpt>
      <trkpt lat="59.8360937458" lon="22.9337538895">
        <ele>16.6</ele>
        <time>2012-03-18T12:09:21Z</time>
      </trkpt>
      <trkpt lat="59.8361440372" lon="22.9340377844">
        <ele>17.6</ele>
        <time>2012-03-18T12:09:26Z</time>
      </trkpt>
      <trkpt lat="59.836201118" lon="22.934323691">
        <ele>18.6</ele>
        <time>2012-03-18T12:09:32Z</time>
      </trkpt>
      <trkpt lat="59.8362368249" lon="22.9346287084">
        <ele>19</ele>
        <time>2012-03-18T12:09:38Z</time>
      </trkpt>
      <trkpt lat="59.8362846855" lon="22.934939593">
        <ele>20.2</ele>
        <time>2012-03-18T12:09:44Z</time>
      </trkpt>
      <trkpt lat="59.8363203086" lon="22.9351463745">
        <ele>20.8</ele>
        <time>2012-03-18T12:09:48Z</time>
      </trkpt>
      <trkpt lat="59.8363542553" lon="22.9354093147">
        <ele>21</ele>
        <time>2012-03-18T12:09:53Z</time>
      </trkpt>
      <trkpt lat="59.8363747071" lon="22.9356747695">
        <ele>21.4</ele>
        <time>2012-03-18T12:09:57Z</time>
      </trkpt>
      <trkpt lat="59.8363922253" lon="22.9358848199">
        <ele>21.4</ele>
        <time>2012-03-18T12:10:01Z</time>
      </trkpt>
      <trkpt lat="59.8364110007" lon="22.9361380371">
        <ele>21.6</ele>
        <time>2012-03-18T12:10:06Z</time>
      </trkpt>
      <trkpt lat="59.8364204723" lon="22.9363674497">
        <ele>21.6</ele>
        <time>2012-03-18T12:10:10Z</time>
      </trkpt>
      <trkpt lat="59.8364226516" lon="22.936681268">
        <ele>21.6</ele>
        <time>2012-03-18T12:10:16Z</time>
      </trkpt>
      <trkpt lat="59.8366699176" lon="22.9370539273">
        <ele>21.6</ele>
        <time>2012-03-18T12:10:30Z</time>
      </trkpt>
      <trkpt lat="59.8367954785" lon="22.9371699328">
        <ele>21.6</ele>
        <time>2012-03-18T12:10:35Z</time>
      </trkpt>
      <trkpt lat="59.8369500407" lon="22.9372744551">
        <ele>21.6</ele>
        <time>2012-03-18T12:10:41Z</time>
      </trkpt>
      <trkpt lat="59.837041152" lon="22.9373588608">
        <ele>21.6</ele>
        <time>2012-03-18T12:10:45Z</time>
      </trkpt>
      <trkpt lat="59.8371393879" lon="22.9375247386">
        <ele>21.6</ele>
        <time>2012-03-18T12:10:50Z</time>
      </trkpt>
      <trkpt lat="59.8372661222" lon="22.9377649639">
        <ele>21.6</ele>
        <time>2012-03-18T12:10:57Z</time>
      </trkpt>
      <trkpt lat="59.83739864" lon="22.9378073763">
        <ele>21.6</ele>
        <time>2012-03-18T12:11:02Z</time>
      </trkpt>
      <trkpt lat="59.8375620032" lon="22.9377541512">
        <ele>21.6</ele>
        <time>2012-03-18T12:11:08Z</time>
      </trkpt>
      <trkpt lat="59.8376610773" lon="22.9376759481">
        <ele>21.6</ele>
        <time>2012-03-18T12:11:12Z</time>
      </trkpt>
      <trkpt lat="59.8377318205" lon="22.9376098987">
        <ele>21.6</ele>
        <time>2012-03-18T12:11:15Z</time>
      </trkpt>
      <trkpt lat="59.8378788391" lon="22.937479644">
        <ele>21.6</ele>
        <time>2012-03-18T12:11:21Z</time>
      </trkpt>
      <trkpt lat="59.8380101834" lon="22.9373298595">
        <ele>21.6</ele>
        <time>2012-03-18T12:11:27Z</time>
      </trkpt>
      <trkpt lat="59.8381805875" lon="22.9371842658">
        <ele>21.6</ele>
        <time>2012-03-18T12:11:34Z</time>
      </trkpt>
      <trkpt lat="59.8383198108" lon="22.9371772251">
        <ele>21.6</ele>
        <time>2012-03-18T12:11:39Z</time>
      </trkpt>
      <trkpt lat="59.8384421027" lon="22.9372576075">
        <ele>21.6</ele>
        <time>2012-03-18T12:11:44Z</time>
      </trkpt>
      <trkpt lat="59.8386203019" lon="22.9374060509">
        <ele>21.6</ele>
        <time>2012-03-18T12:11:50Z</time>
      </trkpt>
      <trkpt lat="59.8387255786" lon="22.9374767103">
        <ele>21.6</ele>
        <time>2012-03-18T12:11:55Z</time>
      </trkpt>
      <trkpt lat="59.8388517262" lon="22.9376188674">
        <ele>21.2</ele>
        <time>2012-03-18T12:12:01Z</time>
      </trkpt>
      <trkpt lat="59.8389427536" lon="22.9377073802">
        <ele>20.6</ele>
        <time>2012-03-18T12:12:06Z</time>
      </trkpt>
      <trkpt lat="59.8391015906" lon="22.9378507945">
        <ele>20</ele>
        <time>2012-03-18T12:12:12Z</time>
      </trkpt>
      <trkpt lat="59.8392336056" lon="22.9379830609">
        <ele>19.8</ele>
        <time>2012-03-18T12:12:17Z</time>
      </trkpt>
      <trkpt lat="59.8394494395" lon="22.9382232862">
        <ele>18.8</ele>
        <time>2012-03-18T12:12:26Z</time>
      </trkpt>
      <trkpt lat="59.8395630142" lon="22.9383049259">
        <ele>18.2</ele>
        <time>2012-03-18T12:12:31Z</time>
      </trkpt>
      <trkpt lat="59.8397168221" lon="22.938434091">
        <ele>17.8</ele>
        <time>2012-03-18T12:12:37Z</time>
      </trkpt>
      <trkpt lat="59.8398217635" lon="22.9385268786">
        <ele>17.8</ele>
        <time>2012-03-18T12:12:42Z</time>
      </trkpt>
      <trkpt lat="59.8399210052" lon="22.93859385">
        <ele>17.6</ele>
        <time>2012-03-18T12:12:47Z</time>
      </trkpt>
      <trkpt lat="59.8399468214" lon="22.9385950234">
        <ele>17.6</ele>
        <time>2012-03-18T12:12:48Z</time>
      </trkpt>
      <trkpt lat="59.8399712966" lon="22.9386089374">
        <ele>17.6</ele>
        <time>2012-03-18T12:12:49Z</time>
      </trkpt>
      <trkpt lat="59.8400735558" lon="22.9386803512">
        <ele>17.6</ele>
        <time>2012-03-18T12:12:53Z</time>
      </trkpt>
      <trkpt lat="59.8402258549" lon="22.9388657588">
        <ele>17.6</ele>
        <time>2012-03-18T12:12:59Z</time>
      </trkpt>
      <trkpt lat="59.8403843566" lon="22.9389505836">
        <ele>17.4</ele>
        <time>2012-03-18T12:13:05Z</time>
      </trkpt>
      <trkpt lat="59.8404993563" lon="22.9389702811">
        <ele>17.4</ele>
        <time>2012-03-18T12:13:10Z</time>
      </trkpt>
      <trkpt lat="59.8405706024" lon="22.9389561995">
        <ele>17.4</ele>
        <time>2012-03-18T12:13:16Z</time>
      </trkpt>
      <trkpt lat="59.8405856899" lon="22.9389541879">
        <ele>17.4</ele>
        <time>2012-03-18T12:13:17Z</time>
      </trkpt>
      <trkpt lat="59.8407560939" lon="22.9390080835">
        <ele>17.4</ele>
        <time>2012-03-18T12:13:29Z</time>
      </trkpt>
      <trkpt lat="59.8407676609" lon="22.9390428684">
        <ele>17.4</ele>
        <time>2012-03-18T12:13:30Z</time>
      </trkpt>
      <trkpt lat="59.8408404996" lon="22.9391981011">
        <ele>17.4</ele>
        <time>2012-03-18T12:13:36Z</time>
      </trkpt>
      <trkpt lat="59.8409333711" lon="22.9393262604">
        <ele>17.4</ele>
        <time>2012-03-18T12:13:41Z</time>
      </trkpt>
      <trkpt lat="59.8409543258" lon="22.9393516576">
        <ele>17.4</ele>
        <time>2012-03-18T12:13:42Z</time>
      </trkpt>
      <trkpt lat="59.8410812278" lon="22.9394900427">
        <ele>17.4</ele>
        <time>2012-03-18T12:13:46Z</time>
      </trkpt>
      <trkpt lat="59.841174686" lon="22.9396099039">
        <ele>17.4</ele>
        <time>2012-03-18T12:13:50Z</time>
      </trkpt>
      <trkpt lat="59.841263115" lon="22.9396830779">
        <ele>17.4</ele>
        <time>2012-03-18T12:13:54Z</time>
      </trkpt>
      <trkpt lat="59.8412799626" lon="22.9397137556">
        <ele>17.4</ele>
        <time>2012-03-18T12:13:55Z</time>
      </trkpt>
      <trkpt lat="59.8413973931" lon="22.9398328624">
        <ele>17.4</ele>
        <time>2012-03-18T12:14:01Z</time>
      </trkpt>
      <trkpt lat="59.8414521269" lon="22.9398410767">
        <ele>17.4</ele>
        <time>2012-03-18T12:14:03Z</time>
      </trkpt>
      <trkpt lat="59.8416076111" lon="22.9398093093">
        <ele>18</ele>
        <time>2012-03-18T12:14:08Z</time>
      </trkpt>
      <trkpt lat="59.8417723993" lon="22.9398908652">
        <ele>18.8</ele>
        <time>2012-03-18T12:14:14Z</time>
      </trkpt>
      <trkpt lat="59.841896619" lon="22.9399319365">
        <ele>19</ele>
        <time>2012-03-18T12:14:18Z</time>
      </trkpt>
      <trkpt lat="59.841982282" lon="22.9399728402">
        <ele>19.2</ele>
        <time>2012-03-18T12:14:21Z</time>
      </trkpt>
      <trkpt lat="59.8421061665" lon="22.9400062839">
        <ele>19.2</ele>
        <time>2012-03-18T12:14:26Z</time>
      </trkpt>
      <trkpt lat="59.8422292966" lon="22.9400318487">
        <ele>20.2</ele>
        <time>2012-03-18T12:14:31Z</time>
      </trkpt>
      <trkpt lat="59.8423062425" lon="22.9400296694">
        <ele>20.6</ele>
        <time>2012-03-18T12:14:34Z</time>
      </trkpt>
      <trkpt lat="59.8424112677" lon="22.9400103073">
        <ele>21</ele>
        <time>2012-03-18T12:14:39Z</time>
      </trkpt>
      <trkpt lat="59.8425426959" lon="22.9400097205">
        <ele>21.2</ele>
        <time>2012-03-18T12:14:45Z</time>
      </trkpt>
      <trkpt lat="59.8426531693" lon="22.9401052742">
        <ele>21.4</ele>
        <time>2012-03-18T12:14:51Z</time>
      </trkpt>
      <trkpt lat="59.8427623855" lon="22.9403006563">
        <ele>22.2</ele>
        <time>2012-03-18T12:14:56Z</time>
      </trkpt>
      <trkpt lat="59.8427780596" lon="22.9403436554">
        <ele>22.2</ele>
        <time>2012-03-18T12:14:57Z</time>
      </trkpt>
      <trkpt lat="59.8428700091" lon="22.9404723176">
        <ele>22.8</ele>
        <time>2012-03-18T12:15:01Z</time>
      </trkpt>
      <trkpt lat="59.8429192108" lon="22.9406242814">
        <ele>23</ele>
        <time>2012-03-18T12:15:06Z</time>
      </trkpt>
      <trkpt lat="59.8429780518" lon="22.9408067554">
        <ele>23.2</ele>
        <time>2012-03-18T12:15:11Z</time>
      </trkpt>
      <trkpt lat="59.8429955699" lon="22.9408747326">
        <ele>23.4</ele>
        <time>2012-03-18T12:15:13Z</time>
      </trkpt>
      <trkpt lat="59.8430898663" lon="22.9411580408">
        <ele>23.4</ele>
        <time>2012-03-18T12:15:21Z</time>
      </trkpt>
      <trkpt lat="59.8431758646" lon="22.9415350587">
        <ele>23.6</ele>
        <time>2012-03-18T12:15:28Z</time>
      </trkpt>
      <trkpt lat="59.8432314366" lon="22.9417700033">
        <ele>23.6</ele>
        <time>2012-03-18T12:15:33Z</time>
      </trkpt>
      <trkpt lat="59.843256247" lon="22.9418503019">
        <ele>23.6</ele>
        <time>2012-03-18T12:15:36Z</time>
      </trkpt>
      <trkpt lat="59.8432609409" lon="22.9420593465">
        <ele>23.6</ele>
        <time>2012-03-18T12:15:41Z</time>
      </trkpt>
      <trkpt lat="59.8432002559" lon="22.9421110628">
        <ele>23.6</ele>
        <time>2012-03-18T12:15:45Z</time>
      </trkpt>
      <trkpt lat="59.8431672312" lon="22.9421219593">
        <ele>23.6</ele>
        <time>2012-03-18T12:15:48Z</time>
      </trkpt>
      <trkpt lat="59.8430353001" lon="22.9421169302">
        <ele>23.6</ele>
        <time>2012-03-18T12:15:53Z</time>
      </trkpt>
      <trkpt lat="59.8429565103" lon="22.9421350351">
        <ele>23</ele>
        <time>2012-03-18T12:15:56Z</time>
      </trkpt>
      <trkpt lat="59.8427944043" lon="22.9422062812">
        <ele>22.4</ele>
        <time>2012-03-18T12:16:03Z</time>
      </trkpt>
      <trkpt lat="59.8426112598" lon="22.9423330156">
        <ele>21.4</ele>
        <time>2012-03-18T12:16:08Z</time>
      </trkpt>
      <trkpt lat="59.8425525865" lon="22.9423700636">
        <ele>21</ele>
        <time>2012-03-18T12:16:11Z</time>
      </trkpt>
      <trkpt lat="59.8424206554" lon="22.9424900085">
        <ele>20.4</ele>
        <time>2012-03-18T12:16:15Z</time>
      </trkpt>
      <trkpt lat="59.842327281" lon="22.9425937765">
        <ele>20</ele>
        <time>2012-03-18T12:16:20Z</time>
      </trkpt>
      <trkpt lat="59.8422436297" lon="22.9427224386">
        <ele>19.8</ele>
        <time>2012-03-18T12:16:23Z</time>
      </trkpt>
      <trkpt lat="59.8420485829" lon="22.9432509174">
        <ele>19.6</ele>
        <time>2012-03-18T12:16:35Z</time>
      </trkpt>
      <trkpt lat="59.8420342498" lon="22.9432924078">
        <ele>19.6</ele>
        <time>2012-03-18T12:16:36Z</time>
      </trkpt>
      <trkpt lat="59.8419922565" lon="22.9434209024">
        <ele>19.6</ele>
        <time>2012-03-18T12:16:38Z</time>
      </trkpt>
      <trkpt lat="59.8419544541" lon="22.9435258438">
        <ele>19.6</ele>
        <time>2012-03-18T12:16:41Z</time>
      </trkpt>
      <trkpt lat="59.841836437" lon="22.9437311165">
        <ele>19.4</ele>
        <time>2012-03-18T12:16:46Z</time>
      </trkpt>
      <trkpt lat="59.8418176615" lon="22.9437576033">
        <ele>19.4</ele>
        <time>2012-03-18T12:16:48Z</time>
      </trkpt>
      <trkpt lat="59.8416804498" lon="22.9438792247">
        <ele>19.4</ele>
        <time>2012-03-18T12:16:53Z</time>
      </trkpt>
      <trkpt lat="59.8416268057" lon="22.9439222238">
        <ele>19.4</ele>
        <time>2012-03-18T12:16:56Z</time>
      </trkpt>
      <trkpt lat="59.8414767696" lon="22.9440914544">
        <ele>19.4</ele>
        <time>2012-03-18T12:17:01Z</time>
      </trkpt>
      <trkpt lat="59.8413035158" lon="22.9442927038">
        <ele>19.4</ele>
        <time>2012-03-18T12:17:08Z</time>
      </trkpt>
      <trkpt lat="59.841264037" lon="22.9443734215">
        <ele>19.4</ele>
        <time>2012-03-18T12:17:09Z</time>
      </trkpt>
      <trkpt lat="59.8411375542" lon="22.9445478488">
        <ele>19.4</ele>
        <time>2012-03-18T12:17:15Z</time>
      </trkpt>
      <trkpt lat="59.8410889391" lon="22.944620017">
        <ele>19.4</ele>
        <time>2012-03-18T12:17:16Z</time>
      </trkpt>
      <trkpt lat="59.8409502187" lon="22.9448072686">
        <ele>19.4</ele>
        <time>2012-03-18T12:17:22Z</time>
      </trkpt>
      <trkpt lat="59.8408156892" lon="22.9450113679">
        <ele>19.4</ele>
        <time>2012-03-18T12:17:27Z</time>
      </trkpt>
      <trkpt lat="59.8406777231" lon="22.9452165568">
        <ele>19.4</ele>
        <time>2012-03-18T12:17:33Z</time>
      </trkpt>
      <trkpt lat="59.840577727" lon="22.9453644973">
        <ele>19.4</ele>
        <time>2012-03-18T12:17:38Z</time>
      </trkpt>
      <trkpt lat="59.8404864482" lon="22.9455110968">
        <ele>19.4</ele>
        <time>2012-03-18T12:17:41Z</time>
      </trkpt>
      <trkpt lat="59.8403635695" lon="22.9457304511">
        <ele>19.4</ele>
        <time>2012-03-18T12:17:48Z</time>
      </trkpt>
      <trkpt lat="59.8402743023" lon="22.9458769667">
        <ele>19.4</ele>
        <time>2012-03-18T12:17:53Z</time>
      </trkpt>
      <trkpt lat="59.840208672" lon="22.9459767951">
        <ele>19.4</ele>
        <time>2012-03-18T12:17:58Z</time>
      </trkpt>
      <trkpt lat="59.8401468136" lon="22.9460940579">
        <ele>19.4</ele>
        <time>2012-03-18T12:18:05Z</time>
      </trkpt>
      <trkpt lat="59.8401262779" lon="22.9461159347">
        <ele>19.4</ele>
        <time>2012-03-18T12:18:08Z</time>
      </trkpt>
      <trkpt lat="59.840111861" lon="22.9461687406">
        <ele>19.4</ele>
        <time>2012-03-18T12:18:11Z</time>
      </trkpt>
      <trkpt lat="59.8400748969" lon="22.946207465">
        <ele>19.4</ele>
        <time>2012-03-18T12:18:18Z</time>
      </trkpt>
      <trkpt lat="59.8399452289" lon="22.9461498814">
        <ele>19.4</ele>
        <time>2012-03-18T12:18:29Z</time>
      </trkpt>
      <trkpt lat="59.8399299738" lon="22.9461300163">
        <ele>19.4</ele>
        <time>2012-03-18T12:18:30Z</time>
      </trkpt>
      <trkpt lat="59.8398094421" lon="22.9460572614">
        <ele>19.4</ele>
        <time>2012-03-18T12:18:36Z</time>
      </trkpt>
      <trkpt lat="59.8396331707" lon="22.946163963">
        <ele>19.4</ele>
        <time>2012-03-18T12:18:45Z</time>
      </trkpt>
      <trkpt lat="59.839663597" lon="22.946433441">
        <ele>19.4</ele>
        <time>2012-03-18T12:18:49Z</time>
      </trkpt>
      <trkpt lat="59.8396594899" lon="22.9466653682">
        <ele>19.4</ele>
        <time>2012-03-18T12:18:54Z</time>
      </trkpt>
      <trkpt lat="59.8396822887" lon="22.9468620914">
        <ele>19.4</ele>
        <time>2012-03-18T12:18:58Z</time>
      </trkpt>
      <trkpt lat="59.8397148104" lon="22.9470365187">
        <ele>19.4</ele>
        <time>2012-03-18T12:19:03Z</time>
      </trkpt>
      <trkpt lat="59.839722438" lon="22.947353606">
        <ele>19.4</ele>
        <time>2012-03-18T12:19:09Z</time>
      </trkpt>
      <trkpt lat="59.8396855576" lon="22.9476010397">
        <ele>19.4</ele>
        <time>2012-03-18T12:19:15Z</time>
      </trkpt>
      <trkpt lat="59.8396429776" lon="22.9477934881">
        <ele>19.4</ele>
        <time>2012-03-18T12:19:20Z</time>
      </trkpt>
      <trkpt lat="59.839607103" lon="22.9480923867">
        <ele>19.4</ele>
        <time>2012-03-18T12:19:25Z</time>
      </trkpt>
      <trkpt lat="59.8395681272" lon="22.9483665586">
        <ele>19.4</ele>
        <time>2012-03-18T12:19:31Z</time>
      </trkpt>
      <trkpt lat="59.8395446579" lon="22.9485927861">
        <ele>19.4</ele>
        <time>2012-03-18T12:19:36Z</time>
      </trkpt>
      <trkpt lat="59.8395244575" lon="22.9488694726">
        <ele>19.8</ele>
        <time>2012-03-18T12:19:40Z</time>
      </trkpt>
      <trkpt lat="59.8394869066" lon="22.9491151461">
        <ele>20.6</ele>
        <time>2012-03-18T12:19:45Z</time>
      </trkpt>
      <trkpt lat="59.839456145" lon="22.9494225104">
        <ele>20.8</ele>
        <time>2012-03-18T12:19:51Z</time>
      </trkpt>
      <trkpt lat="59.8394319213" lon="22.9496583771">
        <ele>21</ele>
        <time>2012-03-18T12:19:55Z</time>
      </trkpt>
      <trkpt lat="59.839395963" lon="22.9499374943">
        <ele>21.2</ele>
        <time>2012-03-18T12:20:00Z</time>
      </trkpt>
      <trkpt lat="59.8393560651" lon="22.9503047054">
        <ele>22.4</ele>
        <time>2012-03-18T12:20:06Z</time>
      </trkpt>
      <trkpt lat="59.8393434085" lon="22.9505268257">
        <ele>22.8</ele>
        <time>2012-03-18T12:20:09Z</time>
      </trkpt>
      <trkpt lat="59.8392770238" lon="22.9508178453">
        <ele>23.4</ele>
        <time>2012-03-18T12:20:15Z</time>
      </trkpt>
      <trkpt lat="59.8392225415" lon="22.9510144847">
        <ele>24.2</ele>
        <time>2012-03-18T12:20:20Z</time>
      </trkpt>
      <trkpt lat="59.8392084599" lon="22.9510589926">
        <ele>24.4</ele>
        <time>2012-03-18T12:20:21Z</time>
      </trkpt>
      <trkpt lat="59.8391301729" lon="22.9513153111">
        <ele>25</ele>
        <time>2012-03-18T12:20:26Z</time>
      </trkpt>
      <trkpt lat="59.8389860881" lon="22.9518027185">
        <ele>25.8</ele>
        <time>2012-03-18T12:20:36Z</time>
      </trkpt>
      <trkpt lat="59.8389098128" lon="22.952313763">
        <ele>26.8</ele>
        <time>2012-03-18T12:20:44Z</time>
      </trkpt>
      <trkpt lat="59.8388580126" lon="22.9526698261">
        <ele>27.4</ele>
        <time>2012-03-18T12:20:51Z</time>
      </trkpt>
      <trkpt lat="59.8388206294" lon="22.9529448362">
        <ele>27.4</ele>
        <time>2012-03-18T12:20:56Z</time>
      </trkpt>
      <trkpt lat="59.8387904545" lon="22.9531852291">
        <ele>27.6</ele>
        <time>2012-03-18T12:21:00Z</time>
      </trkpt>
      <trkpt lat="59.8387685778" lon="22.9534440622">
        <ele>27.6</ele>
        <time>2012-03-18T12:21:05Z</time>
      </trkpt>
      <trkpt lat="59.8387616208" lon="22.9537800088">
        <ele>27.6</ele>
        <time>2012-03-18T12:21:11Z</time>
      </trkpt>
      <trkpt lat="59.8387570946" lon="22.9538834414">
        <ele>27.6</ele>
        <time>2012-03-18T12:21:13Z</time>
      </trkpt>
      <trkpt lat="59.8386644746" lon="22.954083685">
        <ele>27.8</ele>
        <time>2012-03-18T12:21:18Z</time>
      </trkpt>
      <trkpt lat="59.8385968326" lon="22.9541881235">
        <ele>27.8</ele>
        <time>2012-03-18T12:21:21Z</time>
      </trkpt>
      <trkpt lat="59.8384731996" lon="22.9543990959">
        <ele>27.8</ele>
        <time>2012-03-18T12:21:26Z</time>
      </trkpt>
      <trkpt lat="59.838391057" lon="22.9545987527">
        <ele>27.8</ele>
        <time>2012-03-18T12:21:31Z</time>
      </trkpt>
      <trkpt lat="59.8382773146" lon="22.9547963141">
        <ele>27.8</ele>
        <time>2012-03-18T12:21:35Z</time>
      </trkpt>
      <trkpt lat="59.8381421984" lon="22.9550356174">
        <ele>27.8</ele>
        <time>2012-03-18T12:21:41Z</time>
      </trkpt>
      <trkpt lat="59.838004819" lon="22.9552925226">
        <ele>27.8</ele>
        <time>2012-03-18T12:21:48Z</time>
      </trkpt>
      <trkpt lat="59.8379016378" lon="22.9555164032">
        <ele>27.8</ele>
        <time>2012-03-18T12:21:53Z</time>
      </trkpt>
      <trkpt lat="59.8377767475" lon="22.9557560417">
        <ele>27.2</ele>
        <time>2012-03-18T12:21:59Z</time>
      </trkpt>
      <trkpt lat="59.8376586466" lon="22.9559953449">
        <ele>26.6</ele>
        <time>2012-03-18T12:22:04Z</time>
      </trkpt>
      <trkpt lat="59.8375118795" lon="22.9562676729">
        <ele>26</ele>
        <time>2012-03-18T12:22:11Z</time>
      </trkpt>
      <trkpt lat="59.8374501049" lon="22.9563804932">
        <ele>26</ele>
        <time>2012-03-18T12:22:14Z</time>
      </trkpt>
      <trkpt lat="59.8372997336" lon="22.9566179525">
        <ele>25</ele>
        <time>2012-03-18T12:22:20Z</time>
      </trkpt>
      <trkpt lat="59.8372123104" lon="22.9568135022">
        <ele>24.4</ele>
        <time>2012-03-18T12:22:24Z</time>
      </trkpt>
      <trkpt lat="59.8372015815" lon="22.956831188">
        <ele>24.4</ele>
        <time>2012-03-18T12:22:25Z</time>
      </trkpt>
      <trkpt lat="59.8370740928" lon="22.9570700721">
        <ele>23.8</ele>
        <time>2012-03-18T12:22:31Z</time>
      </trkpt>
      <trkpt lat="59.8369768628" lon="22.9572786138">
        <ele>23.8</ele>
        <time>2012-03-18T12:22:36Z</time>
      </trkpt>
      <trkpt lat="59.8368732625" lon="22.9574501075">
        <ele>23.6</ele>
        <time>2012-03-18T12:22:41Z</time>
      </trkpt>
      <trkpt lat="59.8367860908" lon="22.9576582301">
        <ele>23.6</ele>
        <time>2012-03-18T12:22:46Z</time>
      </trkpt>
      <trkpt lat="59.8367210472" lon="22.9577979563">
        <ele>23.6</ele>
        <time>2012-03-18T12:22:50Z</time>
      </trkpt>
      <trkpt lat="59.8366537406" lon="22.9579118664">
        <ele>23.6</ele>
        <time>2012-03-18T12:22:53Z</time>
      </trkpt>
      <trkpt lat="59.8365576002" lon="22.9580289615">
        <ele>23.6</ele>
        <time>2012-03-18T12:22:56Z</time>
      </trkpt>
      <trkpt lat="59.836530359" lon="22.9580551968">
        <ele>23.6</ele>
        <time>2012-03-18T12:22:57Z</time>
      </trkpt>
      <trkpt lat="59.8363943208" lon="22.9583198973">
        <ele>23.4</ele>
        <time>2012-03-18T12:23:04Z</time>
      </trkpt>
      <trkpt lat="59.836216373" lon="22.9585458733">
        <ele>23.4</ele>
        <time>2012-03-18T12:23:11Z</time>
      </trkpt>
      <trkpt lat="59.836106151" lon="22.9586935624">
        <ele>22.8</ele>
        <time>2012-03-18T12:23:15Z</time>
      </trkpt>
      <trkpt lat="59.8358131198" lon="22.9590566663">
        <ele>21.8</ele>
        <time>2012-03-18T12:23:26Z</time>
      </trkpt>
      <trkpt lat="59.8355846292" lon="22.9593708199">
        <ele>21.6</ele>
        <time>2012-03-18T12:23:35Z</time>
      </trkpt>
      <trkpt lat="59.8354778438" lon="22.9595238734">
        <ele>21.6</ele>
        <time>2012-03-18T12:23:39Z</time>
      </trkpt>
      <trkpt lat="59.835354127" lon="22.9596943612">
        <ele>21.6</ele>
        <time>2012-03-18T12:23:44Z</time>
      </trkpt>
      <trkpt lat="59.8352206871" lon="22.9598520248">
        <ele>21.6</ele>
        <time>2012-03-18T12:23:50Z</time>
      </trkpt>
      <trkpt lat="59.8351194338" lon="22.9599940141">
        <ele>21.4</ele>
        <time>2012-03-18T12:23:55Z</time>
      </trkpt>
      <trkpt lat="59.8349992373" lon="22.9601980296">
        <ele>21.4</ele>
        <time>2012-03-18T12:24:00Z</time>
      </trkpt>
      <trkpt lat="59.8349017558" lon="22.9603945851">
        <ele>21.4</ele>
        <time>2012-03-18T12:24:04Z</time>
      </trkpt>
      <trkpt lat="59.8347843254" lon="22.9606312062">
        <ele>21.4</ele>
        <time>2012-03-18T12:24:09Z</time>
      </trkpt>
      <trkpt lat="59.8346721756" lon="22.9607225689">
        <ele>21.4</ele>
        <time>2012-03-18T12:24:14Z</time>
      </trkpt>
      <trkpt lat="59.8345621212" lon="22.9608829146">
        <ele>21.4</ele>
        <time>2012-03-18T12:24:19Z</time>
      </trkpt>
      <trkpt lat="59.83447562" lon="22.9610323639">
        <ele>21</ele>
        <time>2012-03-18T12:24:23Z</time>
      </trkpt>
      <trkpt lat="59.8343444433" lon="22.9612769478">
        <ele>20.4</ele>
        <time>2012-03-18T12:24:29Z</time>
      </trkpt>
      <trkpt lat="59.8341475525" lon="22.9616711485">
        <ele>19.8</ele>
        <time>2012-03-18T12:24:38Z</time>
      </trkpt>
      <trkpt lat="59.8340368276" lon="22.9618526166">
        <ele>19.6</ele>
        <time>2012-03-18T12:24:43Z</time>
      </trkpt>
      <trkpt lat="59.8339304613" lon="22.9620592305">
        <ele>19.6</ele>
        <time>2012-03-18T12:24:48Z</time>
      </trkpt>
      <trkpt lat="59.8338473128" lon="22.962222929">
        <ele>19.6</ele>
        <time>2012-03-18T12:24:51Z</time>
      </trkpt>
      <trkpt lat="59.8336871347" lon="22.9624907307">
        <ele>19.6</ele>
        <time>2012-03-18T12:24:59Z</time>
      </trkpt>
      <trkpt lat="59.8336185708" lon="22.9627518269">
        <ele>19.4</ele>
        <time>2012-03-18T12:25:05Z</time>
      </trkpt>
      <trkpt lat="59.8336318142" lon="22.9629901243">
        <ele>19.4</ele>
        <time>2012-03-18T12:25:09Z</time>
      </trkpt>
      <trkpt lat="59.8336576304" lon="22.9632657212">
        <ele>19.4</ele>
        <time>2012-03-18T12:25:15Z</time>
      </trkpt>
      <trkpt lat="59.8337076704" lon="22.9636109716">
        <ele>19.4</ele>
        <time>2012-03-18T12:25:21Z</time>
      </trkpt>
      <trkpt lat="59.8337547766" lon="22.9640293961">
        <ele>19.4</ele>
        <time>2012-03-18T12:25:29Z</time>
      </trkpt>
      <trkpt lat="59.8337986978" lon="22.9644099343">
        <ele>19.4</ele>
        <time>2012-03-18T12:25:36Z</time>
      </trkpt>
      <trkpt lat="59.8338388471" lon="22.9647586214">
        <ele>19.4</ele>
        <time>2012-03-18T12:25:41Z</time>
      </trkpt>
      <trkpt lat="59.8338656692" lon="22.9651169476">
        <ele>19.4</ele>
        <time>2012-03-18T12:25:48Z</time>
      </trkpt>
      <trkpt lat="59.8338836064" lon="22.9654030218">
        <ele>19.4</ele>
        <time>2012-03-18T12:25:53Z</time>
      </trkpt>
      <trkpt lat="59.833903723" lon="22.9656751821">
        <ele>19.4</ele>
        <time>2012-03-18T12:25:57Z</time>
      </trkpt>
      <trkpt lat="59.8339291202" lon="22.9658819636">
        <ele>19.4</ele>
        <time>2012-03-18T12:26:01Z</time>
      </trkpt>
      <trkpt lat="59.8339488176" lon="22.9662026551">
        <ele>19.4</ele>
        <time>2012-03-18T12:26:08Z</time>
      </trkpt>
      <trkpt lat="59.8339751368" lon="22.9665357518">
        <ele>19.4</ele>
        <time>2012-03-18T12:26:14Z</time>
      </trkpt>
      <trkpt lat="59.8339961754" lon="22.9669187208">
        <ele>19.4</ele>
        <time>2012-03-18T12:26:21Z</time>
      </trkpt>
      <trkpt lat="59.8339779866" lon="22.9672976665">
        <ele>19.4</ele>
        <time>2012-03-18T12:26:27Z</time>
      </trkpt>
      <trkpt lat="59.8339637374" lon="22.9679346909">
        <ele>19.4</ele>
        <time>2012-03-18T12:26:39Z</time>
      </trkpt>
      <trkpt lat="59.8339517513" lon="22.9682428096">
        <ele>19.4</ele>
        <time>2012-03-18T12:26:44Z</time>
      </trkpt>
      <trkpt lat="59.8339339817" lon="22.9685982021">
        <ele>19.4</ele>
        <time>2012-03-18T12:26:51Z</time>
      </trkpt>
      <trkpt lat="59.8339312994" lon="22.9688772356">
        <ele>19.4</ele>
        <time>2012-03-18T12:26:56Z</time>
      </trkpt>
      <trkpt lat="59.8339244263" lon="22.9691082407">
        <ele>19.4</ele>
        <time>2012-03-18T12:27:00Z</time>
      </trkpt>
      <trkpt lat="59.8339178046" lon="22.9694630466">
        <ele>19.4</ele>
        <time>2012-03-18T12:27:06Z</time>
      </trkpt>
      <trkpt lat="59.833908333" lon="22.9697906112">
        <ele>19.4</ele>
        <time>2012-03-18T12:27:12Z</time>
      </trkpt>
      <trkpt lat="59.8338989453" lon="22.9701274798">
        <ele>19.4</ele>
        <time>2012-03-18T12:27:18Z</time>
      </trkpt>
      <trkpt lat="59.8338801699" lon="22.9704158171">
        <ele>19.4</ele>
        <time>2012-03-18T12:27:23Z</time>
      </trkpt>
      <trkpt lat="59.8338603886" lon="22.9708064137">
        <ele>19.4</ele>
        <time>2012-03-18T12:27:30Z</time>
      </trkpt>
      <trkpt lat="59.8338406073" lon="22.9711354871">
        <ele>19.4</ele>
        <time>2012-03-18T12:27:36Z</time>
      </trkpt>
      <trkpt lat="59.8338378413" lon="22.9711826772">
        <ele>19.4</ele>
        <time>2012-03-18T12:27:37Z</time>
      </trkpt>
      <trkpt lat="59.8337200756" lon="22.9713232416">
        <ele>19.4</ele>
        <time>2012-03-18T12:27:42Z</time>
      </trkpt>
      <trkpt lat="59.8336876376" lon="22.9713278517">
        <ele>19.4</ele>
        <time>2012-03-18T12:27:43Z</time>
      </trkpt>
      <trkpt lat="59.8335328239" lon="22.9712768897">
        <ele>19.4</ele>
        <time>2012-03-18T12:27:48Z</time>
      </trkpt>
      <trkpt lat="59.8333583128" lon="22.9712427754">
        <ele>19.4</ele>
        <time>2012-03-18T12:27:54Z</time>
      </trkpt>
      <trkpt lat="59.8332077738" lon="22.9712159533">
        <ele>19.4</ele>
        <time>2012-03-18T12:27:59Z</time>
      </trkpt>
      <trkpt lat="59.8330211927" lon="22.9711978484">
        <ele>19.4</ele>
        <time>2012-03-18T12:28:05Z</time>
      </trkpt>
      <trkpt lat="59.8328390541" lon="22.9711385046">
        <ele>19.4</ele>
        <time>2012-03-18T12:28:11Z</time>
      </trkpt>
      <trkpt lat="59.8327165945" lon="22.9711214055">
        <ele>19.4</ele>
        <time>2012-03-18T12:28:15Z</time>
      </trkpt>
      <trkpt lat="59.8325942188" lon="22.9710849442">
        <ele>19.4</ele>
        <time>2012-03-18T12:28:19Z</time>
      </trkpt>
      <trkpt lat="59.8324143432" lon="22.9710375865">
        <ele>19.4</ele>
        <time>2012-03-18T12:28:25Z</time>
      </trkpt>
      <trkpt lat="59.8322230682" lon="22.9709952579">
        <ele>19.4</ele>
        <time>2012-03-18T12:28:32Z</time>
      </trkpt>
      <trkpt lat="59.8320424383" lon="22.9709902287">
        <ele>19.4</ele>
        <time>2012-03-18T12:28:38Z</time>
      </trkpt>
      <trkpt lat="59.8318655802" lon="22.9709416975">
        <ele>19.4</ele>
        <time>2012-03-18T12:28:44Z</time>
      </trkpt>
      <trkpt lat="59.831700792" lon="22.9709134505">
        <ele>19.4</ele>
        <time>2012-03-18T12:28:50Z</time>
      </trkpt>
      <trkpt lat="59.8315524324" lon="22.9708950942">
        <ele>19.4</ele>
        <time>2012-03-18T12:28:55Z</time>
      </trkpt>
      <trkpt lat="59.8314020611" lon="22.9708705352">
        <ele>19.4</ele>
        <time>2012-03-18T12:29:00Z</time>
      </trkpt>
      <trkpt lat="59.8312167373" lon="22.9708529332">
        <ele>19.4</ele>
        <time>2012-03-18T12:29:06Z</time>
      </trkpt>
      <trkpt lat="59.8310434834" lon="22.970818316">
        <ele>19.4</ele>
        <time>2012-03-18T12:29:12Z</time>
      </trkpt>
      <trkpt lat="59.8308538849" lon="22.9708075871">
        <ele>19.4</ele>
        <time>2012-03-18T12:29:18Z</time>
      </trkpt>
      <trkpt lat="59.8308293259" lon="22.9708412824">
        <ele>19.4</ele>
        <time>2012-03-18T12:29:19Z</time>
      </trkpt>
      <trkpt lat="59.8307106382" lon="22.9713398378">
        <ele>18.4</ele>
        <time>2012-03-18T12:29:29Z</time>
      </trkpt>
      <trkpt lat="59.8306061997" lon="22.9716270017">
        <ele>18</ele>
        <time>2012-03-18T12:29:35Z</time>
      </trkpt>
      <trkpt lat="59.8305489513" lon="22.971811152">
        <ele>17.8</ele>
        <time>2012-03-18T12:29:39Z</time>
      </trkpt>
      <trkpt lat="59.8304788787" lon="22.9719957215">
        <ele>17.6</ele>
        <time>2012-03-18T12:29:43Z</time>
      </trkpt>
      <trkpt lat="59.8303811457" lon="22.9723086178">
        <ele>17.4</ele>
        <time>2012-03-18T12:29:49Z</time>
      </trkpt>
      <trkpt lat="59.830280982" lon="22.9725084423">
        <ele>17.4</ele>
        <time>2012-03-18T12:29:54Z</time>
      </trkpt>
      <trkpt lat="59.8301594444" lon="22.9726741525">
        <ele>17.4</ele>
        <time>2012-03-18T12:29:59Z</time>
      </trkpt>
      <trkpt lat="59.8299988472" lon="22.9727821113">
        <ele>17.4</ele>
        <time>2012-03-18T12:30:04Z</time>
      </trkpt>
      <trkpt lat="59.8298228273" lon="22.9728906569">
        <ele>17.4</ele>
        <time>2012-03-18T12:30:11Z</time>
      </trkpt>
      <trkpt lat="59.8296568657" lon="22.9729569578">
        <ele>16.4</ele>
        <time>2012-03-18T12:30:17Z</time>
      </trkpt>
      <trkpt lat="59.8295129485" lon="22.9730293774">
        <ele>16</ele>
        <time>2012-03-18T12:30:21Z</time>
      </trkpt>
      <trkpt lat="59.8293420416" lon="22.9731375039">
        <ele>15.6</ele>
        <time>2012-03-18T12:30:28Z</time>
      </trkpt>
      <trkpt lat="59.8292124574" lon="22.9732159585">
        <ele>15.4</ele>
        <time>2012-03-18T12:30:33Z</time>
      </trkpt>
      <trkpt lat="59.8291925085" lon="22.97348661">
        <ele>15.4</ele>
        <time>2012-03-18T12:30:39Z</time>
      </trkpt>
      <trkpt lat="59.8292031535" lon="22.9735405895">
        <ele>15.4</ele>
        <time>2012-03-18T12:30:40Z</time>
      </trkpt>
      <trkpt lat="59.8292694543" lon="22.9739279171">
        <ele>15.4</ele>
        <time>2012-03-18T12:30:47Z</time>
      </trkpt>
      <trkpt lat="59.8293199133" lon="22.9742439985">
        <ele>15.4</ele>
        <time>2012-03-18T12:30:53Z</time>
      </trkpt>
      <trkpt lat="59.8293634992" lon="22.9744963775">
        <ele>15.4</ele>
        <time>2012-03-18T12:30:57Z</time>
      </trkpt>
      <trkpt lat="59.8294031456" lon="22.9748852139">
        <ele>15.4</ele>
        <time>2012-03-18T12:31:04Z</time>
      </trkpt>
      <trkpt lat="59.8294511739" lon="22.975202385">
        <ele>15.4</ele>
        <time>2012-03-18T12:31:11Z</time>
      </trkpt>
      <trkpt lat="59.8295046504" lon="22.9754915605">
        <ele>15.4</ele>
        <time>2012-03-18T12:31:17Z</time>
      </trkpt>
      <trkpt lat="59.8295493259" lon="22.9757956558">
        <ele>15.8</ele>
        <time>2012-03-18T12:31:22Z</time>
      </trkpt>
      <trkpt lat="59.8296022157" lon="22.9762158405">
        <ele>16.6</ele>
        <time>2012-03-18T12:31:30Z</time>
      </trkpt>
      <trkpt lat="59.8296618949" lon="22.9765995639">
        <ele>17</ele>
        <time>2012-03-18T12:31:37Z</time>
      </trkpt>
      <trkpt lat="59.8296929079" lon="22.9769513522">
        <ele>17.2</ele>
        <time>2012-03-18T12:31:43Z</time>
      </trkpt>
      <trkpt lat="59.8297213225" lon="22.9772778272">
        <ele>18.2</ele>
        <time>2012-03-18T12:31:49Z</time>
      </trkpt>
      <trkpt lat="59.829767423" lon="22.9775646558">
        <ele>18.8</ele>
        <time>2012-03-18T12:31:54Z</time>
      </trkpt>
      <trkpt lat="59.8297909761" lon="22.9778994289">
        <ele>19</ele>
        <time>2012-03-18T12:32:00Z</time>
      </trkpt>
      <trkpt lat="59.8298185526" lon="22.978256414">
        <ele>19.2</ele>
        <time>2012-03-18T12:32:06Z</time>
      </trkpt>
      <trkpt lat="59.829836406" lon="22.9785868285">
        <ele>19.4</ele>
        <time>2012-03-18T12:32:12Z</time>
      </trkpt>
      <trkpt lat="59.8298326342" lon="22.9788587374">
        <ele>19.4</ele>
        <time>2012-03-18T12:32:17Z</time>
      </trkpt>
      <trkpt lat="59.8298384177" lon="22.9792189076">
        <ele>19.4</ele>
        <time>2012-03-18T12:32:23Z</time>
      </trkpt>
      <trkpt lat="59.829848895" lon="22.9795406888">
        <ele>19.4</ele>
        <time>2012-03-18T12:32:29Z</time>
      </trkpt>
      <trkpt lat="59.8298889605" lon="22.9799150244">
        <ele>19.4</ele>
        <time>2012-03-18T12:32:36Z</time>
      </trkpt>
      <trkpt lat="59.8298994379" lon="22.9801761206">
        <ele>19.4</ele>
        <time>2012-03-18T12:32:41Z</time>
      </trkpt>
      <trkpt lat="59.8299145253" lon="22.9802110731">
        <ele>19.4</ele>
        <time>2012-03-18T12:32:42Z</time>
      </trkpt>
      <trkpt lat="59.8299278525" lon="22.980442665">
        <ele>19.4</ele>
        <time>2012-03-18T12:32:46Z</time>
      </trkpt>
      <trkpt lat="59.829945706" lon="22.9807835569">
        <ele>19.4</ele>
        <time>2012-03-18T12:32:51Z</time>
      </trkpt>
      <trkpt lat="59.8299768028" lon="22.9811566353">
        <ele>19.4</ele>
        <time>2012-03-18T12:32:58Z</time>
      </trkpt>
      <trkpt lat="59.8299882022" lon="22.9813909094">
        <ele>19.4</ele>
        <time>2012-03-18T12:33:02Z</time>
      </trkpt>
      <trkpt lat="59.8300161978" lon="22.9817284485">
        <ele>19.4</ele>
        <time>2012-03-18T12:33:08Z</time>
      </trkpt>
      <trkpt lat="59.8300193829" lon="22.9817784884">
        <ele>19.4</ele>
        <time>2012-03-18T12:33:09Z</time>
      </trkpt>
      <trkpt lat="59.830049893" lon="22.9821174525">
        <ele>19.4</ele>
        <time>2012-03-18T12:33:14Z</time>
      </trkpt>
      <trkpt lat="59.8300737814" lon="22.9824723421">
        <ele>19.4</ele>
        <time>2012-03-18T12:33:20Z</time>
      </trkpt>
      <trkpt lat="59.8301089016" lon="22.9828255554">
        <ele>18.8</ele>
        <time>2012-03-18T12:33:26Z</time>
      </trkpt>
      <trkpt lat="59.8301617914" lon="22.9835917448">
        <ele>17.8</ele>
        <time>2012-03-18T12:33:39Z</time>
      </trkpt>
      <trkpt lat="59.8301987556" lon="22.9838141167">
        <ele>17.6</ele>
        <time>2012-03-18T12:33:43Z</time>
      </trkpt>
      <trkpt lat="59.830274025" lon="22.9841912183">
        <ele>17.4</ele>
        <time>2012-03-18T12:33:50Z</time>
      </trkpt>
      <trkpt lat="59.8303438462" lon="22.9844585171">
        <ele>17.4</ele>
        <time>2012-03-18T12:33:55Z</time>
      </trkpt>
      <trkpt lat="59.8304207083" lon="22.9847648756">
        <ele>17.4</ele>
        <time>2012-03-18T12:34:01Z</time>
      </trkpt>
      <trkpt lat="59.8304980732" lon="22.9851150714">
        <ele>17.4</ele>
        <time>2012-03-18T12:34:07Z</time>
      </trkpt>
      <trkpt lat="59.8305753543" lon="22.9853753293">
        <ele>17.4</ele>
        <time>2012-03-18T12:34:12Z</time>
      </trkpt>
      <trkpt lat="59.830661185" lon="22.9856842024">
        <ele>17.4</ele>
        <time>2012-03-18T12:34:18Z</time>
      </trkpt>
      <trkpt lat="59.830707956" lon="22.9858750582">
        <ele>17.4</ele>
        <time>2012-03-18T12:34:22Z</time>
      </trkpt>
      <trkpt lat="59.8307632765" lon="22.9862025391">
        <ele>17.4</ele>
        <time>2012-03-18T12:34:28Z</time>
      </trkpt>
      <trkpt lat="59.8309092892" lon="22.9867570856">
        <ele>17.4</ele>
        <time>2012-03-18T12:34:38Z</time>
      </trkpt>
      <trkpt lat="59.8309722373" lon="22.9869968079">
        <ele>17.4</ele>
        <time>2012-03-18T12:34:42Z</time>
      </trkpt>
      <trkpt lat="59.8310615045" lon="22.9873001489">
        <ele>17.4</ele>
        <time>2012-03-18T12:34:49Z</time>
      </trkpt>
      <trkpt lat="59.8311442339" lon="22.98768119">
        <ele>17.4</ele>
        <time>2012-03-18T12:34:56Z</time>
      </trkpt>
      <trkpt lat="59.8312149771" lon="22.9879689407">
        <ele>17.4</ele>
        <time>2012-03-18T12:35:01Z</time>
      </trkpt>
      <trkpt lat="59.8312850498" lon="22.9882516622">
        <ele>17.4</ele>
        <time>2012-03-18T12:35:06Z</time>
      </trkpt>
      <trkpt lat="59.831367863" lon="22.9885688332">
        <ele>17.6</ele>
        <time>2012-03-18T12:35:11Z</time>
      </trkpt>
      <trkpt lat="59.8314308949" lon="22.9888389819">
        <ele>18.4</ele>
        <time>2012-03-18T12:35:16Z</time>
      </trkpt>
      <trkpt lat="59.8314207528" lon="22.9891505371">
        <ele>18.8</ele>
        <time>2012-03-18T12:35:21Z</time>
      </trkpt>
      <trkpt lat="59.8314734749" lon="22.9895005653">
        <ele>19</ele>
        <time>2012-03-18T12:35:27Z</time>
      </trkpt>
      <trkpt lat="59.831473894" lon="22.9895656926">
        <ele>19</ele>
        <time>2012-03-18T12:35:28Z</time>
      </trkpt>
      <trkpt lat="59.831370629" lon="22.9897844602">
        <ele>19.2</ele>
        <time>2012-03-18T12:35:33Z</time>
      </trkpt>
      <trkpt lat="59.8312459063" lon="22.9901194009">
        <ele>19.2</ele>
        <time>2012-03-18T12:35:38Z</time>
      </trkpt>
      <trkpt lat="59.8311849699" lon="22.9904169584">
        <ele>19.4</ele>
        <time>2012-03-18T12:35:42Z</time>
      </trkpt>
      <trkpt lat="59.8311732352" lon="22.9904899647">
        <ele>19.4</ele>
        <time>2012-03-18T12:35:43Z</time>
      </trkpt>
      <trkpt lat="59.8311646857" lon="22.9905127635">
        <ele>19.4</ele>
        <time>2012-03-18T12:35:45Z</time>
      </trkpt>
    </trkseg>
  </trk>
</gpx>